[[{"header":{"parameterUnit":"m.s-1","parameterCategory":1,"la1":30.6,"la2":29.2853,"lo1":-89.7004,"lo2":-87.6739,"dx":0.0162,"dy":0.0183,"nx":112,"ny":82,"refTime":"2022-12-24T18:00:00:Z","depth":0,"parameterNumber":2,"parameterNumberName":"U-component_of_WINDS"},"data":[0.0,0.0,0.0,0.0,0.0,0.0,0.0,0.0,0.0,0.0,0.0,0.0,0.0,0.0,0.0,0.0,0.0,0.0,0.0,0.0,0.0,0.0,0.0,0.0,0.0,0.0,0.0,0.0,0.0,0.0,0.0,0.0,0.0,0.0,0.0,0.0,0.0,0.0,0.0,0.0,0.0,0.0,0.0,0.0,0.0,0.0,0.0,0.0,0.0,0.0,0.0,0.0,0.0,0.0,0.0,0.0,0.0,0.0,0.0,0.0,0.0,0.0,0.0,0.0,0.0,0.0,0.0,0.0,0.0,0.0,0.0,0.0,0.0,0.0,0.0,0.0,0.0,0.0,0.0,0.0,0.0,0.0,0.0,0.0,0.0,0.0,0.0,0.0,0.0,0.0,0.0,4.1418,4.46,4.6855,4.7522,4.6376,4.3771,3.9434,0.0,0.0,0.0,0.0,0.0,0.0,0.0,0.0,0.0,0.0,0.0,0.0,0.0,0.0,0.0,0.0,0.0,0.0,0.0,0.0,0.0,0.0,0.0,0.0,0.0,0.0,0.0,0.0,0.0,0.0,0.0,0.0,0.0,0.0,0.0,0.0,0.0,0.0,0.0,0.0,0.0,0.0,0.0,0.0,0.0,0.0,0.0,0.0,0.0,0.0,0.0,0.0,0.0,0.0,0.0,0.0,0.0,0.0,0.0,0.0,0.0,0.0,0.0,0.0,0.0,0.0,0.0,0.0,0.0,0.0,0.0,0.0,0.0,0.0,0.0,0.0,0.0,0.0,0.0,0.0,0.0,0.0,0.0,0.0,0.0,0.0,0.0,0.0,0.0,0.0,0.0,0.0,0.0,0.0,0.0,0.0,0.0,0.0,0.0,0.0,0.0,0.0,0.0,0.0,3.8917,4.4107,4.623,4.7587,4.8359,4.7084,4.4671,4.0976,0.0,0.0,0.0,0.0,0.0,0.0,0.0,0.0,0.0,0.0,0.0,0.0,0.0,0.0,0.0,0.0,0.0,0.0,0.0,0.0,0.0,0.0,0.0,0.0,0.0,0.0,0.0,0.0,0.0,0.0,0.0,0.0,0.0,0.0,0.0,0.0,0.0,0.0,0.0,0.0,0.0,0.0,0.0,0.0,0.0,0.0,0.0,0.0,0.0,0.0,0.0,0.0,0.0,0.0,0.0,0.0,0.0,0.0,0.0,0.0,0.0,0.0,0.0,0.0,0.0,0.0,0.0,0.0,0.0,0.0,0.0,0.0,0.0,0.0,0.0,0.0,0.0,0.0,0.0,0.0,0.0,0.0,0.0,0.0,0.0,0.0,0.0,0.0,0.0,0.0,0.0,0.0,0.0,0.0,0.0,0.0,0.0,0.0,0.0,0.0,0.0,0.0,0.0,3.8668,4.1402,4.5944,4.7735,4.8717,4.9117,4.8604,4.6346,4.1929,4.0006,0.0,0.0,0.0,0.0,0.0,0.0,0.0,0.0,0.0,0.0,0.0,0.0,0.0,0.0,0.0,0.0,0.0,0.0,0.0,0.0,0.0,0.0,0.0,0.0,0.0,0.0,0.0,0.0,0.0,0.0,0.0,0.0,0.0,0.0,0.0,0.0,0.0,0.0,0.0,0.0,0.0,0.0,0.0,0.0,0.0,0.0,0.0,0.0,0.0,0.0,0.0,0.0,0.0,0.0,0.0,0.0,0.0,0.0,0.0,0.0,0.0,0.0,0.0,0.0,0.0,0.0,0.0,0.0,0.0,0.0,0.0,0.0,0.0,0.0,0.0,0.0,0.0,0.0,0.0,0.0,0.0,0.0,0.0,0.0,0.0,0.0,0.0,0.0,0.0,0.0,0.0,0.0,0.0,0.0,0.0,0.0,0.0,0.0,0.0,0.0,0.0,0.0,4.1747,4.433,4.7385,4.8976,4.9958,5.0141,4.9937,4.7723,4.2959,4.0981,0.0,0.0,0.0,0.0,0.0,0.0,0.0,0.0,0.0,0.0,0.0,0.0,0.0,0.0,0.0,0.0,0.0,0.0,0.0,0.0,0.0,0.0,0.0,0.0,0.0,0.0,0.0,0.0,0.0,0.0,0.0,0.0,0.0,0.0,0.0,0.0,0.0,0.0,0.0,0.0,0.0,0.0,0.0,0.0,0.0,0.0,0.0,0.0,0.0,0.0,0.0,0.0,0.0,0.0,0.0,0.0,0.0,0.0,0.0,0.0,0.0,0.0,0.0,0.0,0.0,0.0,0.0,0.0,0.0,0.0,0.0,0.0,0.0,0.0,0.0,0.0,0.0,0.0,0.0,0.0,0.0,0.0,0.0,0.0,0.0,0.0,0.0,0.0,0.0,0.0,0.0,0.0,0.0,0.0,0.0,0.0,0.0,0.0,0.0,0.0,0.0,0.0,4.3476,4.7192,4.8367,4.9815,5.1022,5.1756,5.0598,4.8191,4.4492,4.1578,0.0,0.0,0.0,0.0,0.0,0.0,0.0,0.0,0.0,0.0,0.0,0.0,0.0,0.0,0.0,0.0,0.0,0.0,0.0,0.0,0.0,0.0,0.0,0.0,0.0,0.0,0.0,0.0,0.0,0.0,0.0,0.0,0.0,0.0,0.0,0.0,0.0,0.0,0.0,0.0,0.0,0.0,0.0,0.0,0.0,0.0,0.0,0.0,0.0,0.0,0.0,0.0,0.0,0.0,0.0,0.0,0.0,0.0,0.0,0.0,0.0,0.0,0.0,0.0,0.0,0.0,0.0,0.0,0.0,0.0,0.0,0.0,0.0,0.0,0.0,0.0,0.0,0.0,0.0,0.0,0.0,0.0,0.0,0.0,0.0,0.0,0.0,0.0,0.0,0.0,0.0,0.0,0.0,0.0,0.0,0.0,0.0,0.0,0.0,0.0,0.0,0.0,4.3228,4.6785,0.0,5.0607,5.1683,5.1977,5.1956,4.9778,4.4706,0.0,0.0,0.0,0.0,0.0,0.0,0.0,0.0,0.0,0.0,0.0,0.0,0.0,0.0,0.0,0.0,0.0,0.0,0.0,0.0,0.0,0.0,0.0,0.0,0.0,0.0,0.0,0.0,0.0,0.0,0.0,0.0,0.0,0.0,0.0,0.0,0.0,0.0,0.0,0.0,0.0,0.0,0.0,0.0,0.0,0.0,0.0,0.0,0.0,0.0,0.0,0.0,0.0,0.0,0.0,0.0,0.0,0.0,0.0,0.0,0.0,0.0,0.0,0.0,0.0,0.0,0.0,0.0,0.0,0.0,0.0,0.0,0.0,0.0,0.0,0.0,0.0,0.0,0.0,0.0,0.0,0.0,0.0,0.0,0.0,0.0,0.0,0.0,0.0,0.0,0.0,0.0,0.0,0.0,0.0,0.0,0.0,0.0,0.0,0.0,0.0,0.0,3.9498,4.3818,4.7484,0.0,5.1426,5.238,5.238,5.2894,5.0684,4.4785,0.0,0.0,0.0,0.0,0.0,0.0,0.0,0.0,0.0,0.0,0.0,0.0,0.0,0.0,0.0,0.0,0.0,0.0,0.0,0.0,0.0,0.0,0.0,0.0,0.0,0.0,0.0,0.0,0.0,0.0,0.0,0.0,0.0,0.0,0.0,0.0,0.0,0.0,0.0,0.0,0.0,0.0,0.0,0.0,0.0,0.0,0.0,0.0,0.0,0.0,0.0,0.0,0.0,0.0,0.0,0.0,0.0,0.0,0.0,0.0,0.0,0.0,0.0,0.0,0.0,0.0,0.0,0.0,0.0,0.0,0.0,0.0,0.0,0.0,0.0,0.0,0.0,0.0,0.0,0.0,0.0,0.0,0.0,0.0,0.0,0.0,0.0,0.0,0.0,0.0,0.0,0.0,0.0,0.0,0.0,0.0,0.0,0.0,0.0,0.0,0.0,0.0,3.9715,4.5503,4.9848,5.0729,5.227,5.3225,5.3225,5.3225,5.0684,0.0,0.0,0.0,0.0,0.0,0.0,0.0,0.0,0.0,0.0,0.0,0.0,0.0,0.0,0.0,0.0,0.0,0.0,0.0,0.0,0.0,0.0,0.0,0.0,0.0,0.0,0.0,0.0,0.0,0.0,0.0,0.0,0.0,0.0,0.0,0.0,0.0,0.0,0.0,0.0,0.0,0.0,0.0,0.0,0.0,0.0,0.0,0.0,0.0,0.0,0.0,0.0,0.0,0.0,0.0,0.0,0.0,0.0,0.0,0.0,0.0,0.0,0.0,0.0,0.0,0.0,0.0,0.0,0.0,0.0,0.0,0.0,0.0,0.0,0.0,0.0,0.0,0.0,0.0,0.0,0.0,0.0,0.0,0.0,0.0,0.0,0.0,0.0,0.0,0.0,0.0,0.0,0.0,0.0,0.0,0.0,0.0,0.0,0.0,0.0,0.0,0.0,0.0,0.0,4.6533,5.0729,5.1573,5.2601,5.3225,5.3225,5.3225,5.0811,4.5287,0.0,0.0,0.0,0.0,0.0,0.0,0.0,0.0,0.0,0.0,0.0,0.0,0.0,0.0,0.0,0.0,0.0,0.0,0.0,0.0,0.0,0.0,0.0,0.0,0.0,0.0,0.0,0.0,0.0,0.0,0.0,0.0,0.0,0.0,0.0,0.0,0.0,0.0,0.0,0.0,0.0,0.0,0.0,0.0,0.0,0.0,0.0,0.0,0.0,0.0,0.0,0.0,0.0,0.0,0.0,0.0,0.0,0.0,0.0,0.0,0.0,0.0,0.0,0.0,0.0,0.0,0.0,0.0,0.0,0.0,0.0,0.0,0.0,0.0,0.0,0.0,0.0,0.0,0.0,0.0,0.0,0.0,0.0,0.0,0.0,0.0,0.0,0.0,0.0,0.0,0.0,0.0,0.0,0.0,0.0,0.0,0.0,0.0,0.0,0.0,0.0,0.0,4.1469,4.6976,5.1096,5.1903,5.2711,5.3225,5.3225,5.3225,5.1334,4.6944,0.0,0.0,0.0,0.0,0.0,0.0,0.0,0.0,0.0,0.0,0.0,0.0,0.0,0.0,0.0,0.0,0.0,0.0,0.0,0.0,0.0,0.0,0.0,0.0,0.0,0.0,0.0,0.0,0.0,0.0,0.0,0.0,0.0,0.0,0.0,0.0,0.0,0.0,0.0,0.0,0.0,0.0,0.0,0.0,0.0,0.0,0.0,0.0,0.0,0.0,0.0,0.0,0.0,0.0,0.0,0.0,0.0,0.0,0.0,0.0,0.0,0.0,0.0,0.0,0.0,0.0,0.0,0.0,0.0,0.0,0.0,0.0,0.0,0.0,0.0,0.0,0.0,0.0,0.0,0.0,0.0,0.0,0.0,0.0,0.0,0.0,0.0,0.0,0.0,0.0,0.0,0.0,0.0,0.0,0.0,0.0,0.0,0.0,0.0,0.0,0.0,0.0,4.1723,4.7197,5.1206,5.2013,5.2747,5.3225,5.3225,5.3298,5.2066,4.9161,0.0,0.0,0.0,0.0,0.0,0.0,0.0,0.0,0.0,0.0,0.0,0.0,0.0,0.0,0.0,0.0,0.0,0.0,0.0,0.0,0.0,0.0,0.0,0.0,0.0,0.0,0.0,0.0,0.0,0.0,0.0,0.0,0.0,0.0,0.0,0.0,0.0,0.0,0.0,0.0,0.0,0.0,0.0,0.0,0.0,0.0,0.0,0.0,0.0,0.0,0.0,0.0,0.0,0.0,0.0,0.0,0.0,0.0,0.0,0.0,3.6046,0.0,0.0,0.0,0.0,0.0,0.0,0.0,0.0,0.0,0.0,0.0,0.0,0.0,0.0,0.0,0.0,0.0,0.0,0.0,0.0,0.0,0.0,0.0,0.0,0.0,0.0,0.0,0.0,0.0,0.0,0.0,0.0,0.0,0.0,0.0,0.0,0.0,0.0,0.0,0.0,0.0,4.3797,4.8561,5.205,5.2858,5.3115,5.3225,5.3225,5.3775,5.3072,5.0533,0.0,0.0,0.0,0.0,0.0,0.0,0.0,0.0,0.0,0.0,0.0,0.0,0.0,0.0,0.0,0.0,0.0,0.0,0.0,0.0,0.0,0.0,0.0,0.0,0.0,0.0,0.0,0.0,0.0,0.0,0.0,0.0,0.0,0.0,0.0,0.0,0.0,0.0,0.0,0.0,0.0,0.0,0.0,0.0,0.0,0.0,0.0,0.0,0.0,0.0,0.0,0.0,0.0,0.0,0.0,0.0,0.0,0.0,0.0,0.0,0.0,3.6723,0.0,0.0,0.0,0.0,0.0,0.0,0.0,0.0,0.0,0.0,0.0,0.0,0.0,0.0,0.0,0.0,0.0,0.0,0.0,0.0,0.0,0.0,0.0,0.0,0.0,0.0,0.0,0.0,0.0,0.0,0.0,0.0,0.0,0.0,0.0,0.0,0.0,0.0,0.0,0.0,4.4417,4.8967,5.2307,5.3115,5.3225,5.3371,5.3739,5.4179,5.4032,5.3151,5.1407,0.0,0.0,0.0,0.0,0.0,0.0,0.0,0.0,0.0,0.0,0.0,0.0,0.0,0.0,0.0,0.0,0.0,0.0,0.0,0.0,0.0,0.0,0.0,0.0,0.0,0.0,0.0,0.0,0.0,0.0,0.0,0.0,0.0,0.0,0.0,0.0,0.0,0.0,0.0,0.0,0.0,0.0,0.0,0.0,0.0,0.0,0.0,0.0,0.0,0.0,0.0,0.0,0.0,0.0,0.0,3.9479,4.0957,4.194,4.2443,4.0712,3.9458,3.8651,0.0,0.0,0.0,0.0,0.0,0.0,0.0,0.0,0.0,0.0,0.0,0.0,0.0,0.0,0.0,0.0,0.0,0.0,0.0,0.0,0.0,0.0,0.0,0.0,0.0,4.2543,4.258,0.0,0.0,0.0,0.0,0.0,0.0,0.0,0.0,0.0,0.0,0.0,0.0,4.4856,4.926,5.2454,5.3151,5.3335,5.3702,5.4326,5.4656,5.5097,5.5757,5.3922,5.2108,0.0,0.0,0.0,0.0,0.0,0.0,0.0,0.0,0.0,0.0,0.0,0.0,0.0,0.0,0.0,0.0,0.0,0.0,0.0,0.0,0.0,0.0,0.0,0.0,0.0,0.0,0.0,0.0,0.0,0.0,0.0,0.0,0.0,3.396,0.0,0.0,0.0,0.0,0.0,0.0,0.0,0.0,0.0,0.0,0.0,0.0,0.0,0.0,3.8794,3.9605,3.9999,3.9999,4.0418,4.0802,4.1308,4.2092,4.2871,4.3638,4.4565,0.0,4.1973,4.114,0.0,0.0,0.0,0.0,0.0,0.0,0.0,0.0,0.0,0.0,0.0,0.0,0.0,0.0,0.0,0.0,0.0,0.0,0.0,0.0,0.0,0.0,4.5002,4.5223,4.5883,4.6397,0.0,4.269,3.968,3.9397,0.0,0.0,0.0,0.0,0.0,0.0,0.0,0.0,4.647,5.0472,5.3078,5.3188,5.3849,5.4289,5.4399,5.5684,5.6528,5.6638,5.6345,5.4833,5.1899,4.9434,0.0,0.0,0.0,0.0,0.0,0.0,0.0,0.0,0.0,0.0,0.0,0.0,0.0,0.0,0.0,0.0,0.0,0.0,0.0,0.0,0.0,0.0,0.0,0.0,0.0,0.0,0.0,0.0,0.0,3.4587,3.47,3.5347,3.5575,3.5556,0.0,0.0,0.0,0.0,0.0,0.0,0.0,0.0,0.0,3.8799,4.0084,4.0876,4.1143,4.1675,4.178,4.155,4.2049,4.2763,4.3713,4.444,4.5342,4.6348,4.6981,4.6535,4.5183,4.3207,4.1279,3.9504,0.0,0.0,0.0,0.0,0.0,0.0,4.0157,0.0,0.0,0.0,0.0,0.0,0.0,0.0,0.0,0.0,0.0,0.0,0.0,0.0,0.0,4.8306,4.893,4.9187,4.9187,4.6827,4.416,0.0,4.1625,4.0419,3.7192,0.0,0.0,0.0,0.0,0.0,4.8306,5.1242,5.3371,5.3849,5.4179,5.4766,5.5684,5.6381,5.7005,5.7446,5.7483,5.6859,5.5427,5.2076,4.8605,0.0,0.0,0.0,0.0,0.0,0.0,0.0,0.0,0.0,0.0,0.0,0.0,0.0,0.0,0.0,0.0,0.0,0.0,0.0,0.0,0.0,0.0,0.0,0.0,0.0,0.0,0.0,0.0,3.5608,0.0,3.6672,3.6735,3.6416,0.0,0.0,0.0,0.0,0.0,0.0,3.7221,3.8542,3.979,4.0781,4.2176,4.3176,4.383,4.3775,4.3562,4.3288,4.3735,4.4354,4.5172,4.6023,4.6955,4.7838,4.8153,4.8035,4.7446,4.4971,4.29,4.1113,3.934,3.8804,0.0,3.9765,4.0237,4.0781,4.258,4.4158,4.5076,4.3681,0.0,4.2813,4.0454,0.0,0.0,0.0,0.0,4.3351,4.6012,0.0,4.8526,5.0362,5.0949,5.1096,5.1096,5.007,4.8296,0.0,4.4748,4.3432,4.023,0.0,0.0,0.0,0.0,4.871,4.9774,5.2013,5.3739,5.4326,5.4766,5.55,5.6712,5.7005,5.7373,5.796,5.7997,5.7997,5.7997,5.4574,5.19,0.0,0.0,0.0,0.0,0.0,0.0,0.0,0.0,0.0,0.0,0.0,0.0,0.0,0.0,0.0,0.0,0.0,0.0,0.0,0.0,0.0,0.0,0.0,0.0,0.0,0.0,0.0,0.0,0.0,0.0,3.7554,3.754,0.0,0.0,0.0,0.0,0.0,3.8255,3.8909,3.968,4.0524,4.1699,4.3277,4.4158,4.5297,4.6874,4.6327,4.6104,4.6141,4.5645,4.5127,4.4652,4.5865,4.6413,4.6553,4.7797,4.8267,4.8153,4.6811,4.5022,4.3117,4.233,4.0927,3.9646,4.1924,4.2544,4.2506,4.4892,4.6287,4.6874,4.5993,4.4344,4.2541,4.192,4.1018,0.0,0.0,4.4915,4.6597,4.9724,5.0582,5.0655,5.0765,5.1389,5.194,5.194,5.1275,5.0395,0.0,4.8088,4.6794,4.57,0.0,0.0,4.5663,4.7168,4.8893,5.0545,5.2858,5.4363,5.4399,5.5757,5.6712,5.6785,5.7483,5.796,5.7997,5.7997,5.7997,5.7997,5.7079,5.4527,5.0289,4.8413,0.0,0.0,0.0,0.0,0.0,0.0,0.0,0.0,0.0,0.0,0.0,0.0,0.0,0.0,0.0,0.0,0.0,0.0,0.0,0.0,0.0,0.0,0.0,0.0,0.0,0.0,0.0,0.0,3.8778,3.8133,0.0,0.0,3.6686,3.7325,3.8897,3.9445,4.0445,4.2139,4.2983,4.3938,4.5002,4.581,4.6801,4.7865,4.728,4.6793,4.6365,4.5765,4.5372,4.5249,4.6014,4.6635,4.7124,4.8502,4.8879,4.8472,4.8093,4.687,4.5137,4.3613,4.2843,4.2661,4.3402,4.4163,4.5067,4.6835,4.8012,4.8673,4.8379,4.7478,4.629,4.5187,4.5232,4.5809,4.6351,4.8119,5.0154,5.1275,5.1977,5.2344,5.2344,5.2564,5.2784,5.2784,5.2156,5.169,5.1857,5.0639,4.8948,4.702,4.8857,5.0068,4.8489,5.0105,5.1683,5.227,5.3555,5.4583,5.5097,5.6161,5.7005,5.7519,5.785,5.7997,5.7997,5.7997,5.7997,5.7997,5.7703,5.6566,5.448,5.2516,4.877,0.0,0.0,0.0,0.0,0.0,0.0,0.0,0.0,0.0,0.0,0.0,0.0,0.0,0.0,0.0,0.0,0.0,0.0,0.0,0.0,0.0,0.0,0.0,0.0,0.0,0.0,3.955,4.011,3.9488,3.8729,3.79,3.7895,3.851,3.9868,4.0661,4.1905,4.3793,4.4672,4.548,4.6287,4.7095,4.7755,4.8306,4.7879,4.7385,4.6728,4.6112,4.5838,4.5875,4.6548,4.7215,4.7949,4.9382,4.9756,4.9343,4.9195,4.8342,4.7011,4.5206,4.4736,4.5113,4.5492,4.6212,4.7175,4.8623,4.9517,4.9994,4.9994,4.9596,4.882,4.756,4.8128,4.9052,4.8626,5.0207,5.209,5.2339,5.2821,5.3225,5.3225,5.3225,5.3298,5.3555,5.3215,5.3072,5.3836,5.2505,5.0775,4.9404,5.1426,5.2564,5.0692,5.2234,5.3518,5.3225,5.4399,5.5427,5.5941,5.6712,5.7409,5.796,5.774,5.7703,5.796,5.774,5.7703,5.7997,5.774,5.7098,5.6025,5.3806,5.0403,4.5853,0.0,0.0,0.0,0.0,0.0,0.0,0.0,0.0,0.0,0.0,0.0,0.0,0.0,0.0,0.0,0.0,0.0,0.0,0.0,0.0,0.0,0.0,0.0,3.8517,4.0088,4.1238,4.1469,4.1721,4.1314,4.0095,4.0493,4.0861,4.0784,4.1944,4.3281,4.4746,4.5553,4.6324,4.7131,4.7902,4.8306,4.8306,4.8343,4.8032,4.7378,4.6763,4.652,4.6637,4.7357,4.8125,4.8884,5.0228,5.0839,5.0798,5.0141,4.9482,4.8756,4.7352,4.6681,4.6688,4.8201,4.871,4.8756,5.0305,5.0839,5.0875,5.0875,5.0472,4.9794,4.9101,4.9437,5.0039,5.0039,5.1021,5.2289,5.298,5.3225,5.3225,5.3225,5.3261,5.3482,5.4252,5.4436,5.4656,5.5427,5.3772,5.2454,5.3176,5.3298,5.3004,5.2234,5.3445,0.0,5.3408,5.5354,5.6785,5.6785,5.7483,5.796,5.796,5.7262,5.7152,5.796,5.7262,5.7189,5.796,5.7262,5.6098,5.4553,5.2213,5.0154,4.8443,0.0,0.0,0.0,0.0,0.0,0.0,0.0,0.0,0.0,0.0,0.0,0.0,0.0,0.0,0.0,0.0,0.0,0.0,0.0,0.0,0.0,0.0,3.8395,3.8135,4.0328,4.1823,4.1468,4.2185,4.2379,4.165,4.0817,4.1147,4.3085,4.3543,4.4803,4.7204,4.7535,4.7755,4.7976,4.8196,4.8306,4.8306,4.893,4.8665,4.7571,4.7961,4.7648,4.676,4.7962,4.8622,4.8919,5.0853,5.1683,5.1642,5.152,5.1047,5.0291,4.8305,4.7215,4.6851,4.7677,4.8962,5.0353,5.1328,5.205,5.2564,5.2564,5.2443,5.2025,5.0802,5.0945,5.1418,5.0921,5.145,5.2289,5.298,5.3225,5.3371,5.3922,5.4069,5.4289,5.5097,5.5244,5.5317,5.5537,5.5074,5.47,5.4913,5.495,5.4876,5.462,0.0,0.0,5.495,5.6014,5.6602,5.5978,5.6638,5.7152,5.7152,5.6932,5.7152,0.0,5.7776,5.7776,5.7997,5.7776,5.6948,5.5483,5.2651,4.9902,0.0,0.0,0.0,0.0,0.0,0.0,0.0,0.0,0.0,0.0,0.0,0.0,0.0,0.0,0.0,0.0,0.0,0.0,0.0,0.0,0.0,0.0,3.8023,3.8995,3.9213,4.1275,4.2807,4.2778,4.3728,4.4112,4.3559,4.2783,4.2906,4.4202,4.4799,4.5944,4.7842,4.8153,4.8306,4.8306,4.8306,4.8489,4.882,4.9334,4.9378,4.8938,4.9102,4.8976,4.8556,4.9345,4.9865,0.0,5.1814,5.2491,5.2485,5.2506,5.197,0.0,0.0,0.0,0.0,0.0,5.0125,5.1519,5.2242,5.2821,5.3225,5.3225,5.3225,5.3017,5.1874,5.2018,5.2417,5.1692,5.227,5.3153,5.3579,5.3959,5.4326,5.4803,5.4913,5.5133,5.5941,5.6088,5.6198,5.6528,0.0,0.0,5.6602,5.6051,5.5464,5.5133,5.5684,5.5978,0.0,5.6602,5.7116,5.6638,5.7005,5.7299,5.7299,5.7005,0.0,0.0,0.0,5.7666,5.7997,0.0,0.0,0.0,0.0,0.0,0.0,0.0,0.0,0.0,4.6681,4.6431,0.0,0.0,0.0,0.0,0.0,0.0,0.0,0.0,0.0,0.0,0.0,0.0,0.0,0.0,0.0,0.0,3.825,3.9643,4.1185,4.2837,4.4121,4.4782,4.5721,4.6126,4.5478,4.5481,4.5217,4.4574,4.5628,4.6635,0.0,0.0,0.0,0.0,0.0,4.882,4.9591,4.9774,5.0175,5.079,5.0286,5.038,5.0937,5.103,5.1473,5.2159,5.2893,5.3225,5.3225,5.3225,5.2417,5.1138,5.0223,4.9521,4.9168,5.0554,5.1494,0.0,0.0,0.0,0.0,5.3335,5.3408,5.3316,5.2589,5.2845,5.323,5.2542,5.3399,5.4422,5.4546,5.506,5.5611,5.5684,5.5721,5.5941,5.6748,5.6932,5.7152,5.785,5.7997,5.7997,5.7997,5.6822,5.5611,5.4913,5.6014,0.0,5.5941,5.7116,5.796,5.7886,0.0,0.0,5.785,5.7226,5.7189,5.807,5.7556,5.7519,5.8253,5.7593,5.7886,5.9318,5.6539,5.536,5.6075,5.4422,5.3183,5.2257,4.7415,4.6861,0.0,0.0,0.0,0.0,0.0,0.0,0.0,0.0,0.0,0.0,0.0,0.0,0.0,0.0,0.0,3.8944,4.0602,4.1956,4.291,4.5002,4.6214,4.5736,4.6557,4.6916,4.6247,4.5795,4.5459,4.5286,4.5527,4.6161,4.7342,4.7512,0.0,4.8306,4.8967,4.9407,4.9591,5.0875,5.1328,5.0886,0.0,0.0,5.1079,5.1622,5.1968,5.2159,5.2893,5.3225,5.3225,5.3225,5.268,5.1741,4.9861,4.9107,4.9168,5.0554,5.1189,5.1444,5.2725,5.3628,5.4179,5.4179,5.462,5.5009,5.4339,5.4195,0.0,5.4146,5.4303,5.4687,5.5221,5.5464,5.5757,5.6418,5.6565,5.6785,5.7593,5.7776,5.7813,5.796,5.7997,5.7997,5.7997,5.774,5.7483,5.7336,5.7556,5.7703,5.7556,5.7813,5.774,5.7116,5.7042,5.7042,5.7042,5.6895,5.7446,5.8877,5.9428,5.9758,5.9942,5.9795,5.9869,6.0162,5.8972,5.8156,5.7738,5.666,5.5469,5.4074,5.2295,5.182,0.0,0.0,0.0,0.0,0.0,0.0,0.0,0.0,0.0,0.0,0.0,3.5044,0.0,0.0,3.8077,3.9621,4.1258,4.2624,4.3506,4.526,4.6507,4.6507,4.7305,4.7596,4.6955,4.6353,4.5815,4.5494,4.5765,4.6257,4.6864,4.7512,4.8178,4.893,4.937,4.9958,5.0765,5.1573,5.2035,5.2061,5.2462,5.2463,5.2149,5.2509,5.2644,5.268,5.306,5.3225,5.3182,5.3251,5.3261,5.3207,5.1821,5.0552,4.9674,5.1173,5.1688,5.1932,5.3781,5.4656,5.4987,5.4987,5.5244,5.553,5.5222,5.513,5.513,5.513,5.5421,5.5796,5.6108,5.6492,5.6895,5.7299,5.7409,5.7519,5.7923,5.7997,5.7997,5.7997,5.7997,5.7997,5.7997,5.7997,5.7997,5.7997,5.7997,5.7997,5.7997,5.7997,5.785,5.7446,5.7409,5.7409,5.7409,5.7776,5.8547,5.9722,6.0199,6.0566,6.097,6.1006,6.119,6.1594,6.0461,5.9528,5.8786,5.7939,5.6696,5.5194,5.5049,5.4363,0.0,0.0,0.0,0.0,0.0,0.0,0.0,0.0,3.5754,3.6319,3.6007,3.6133,3.7864,3.8726,3.9445,4.0328,4.1742,4.3139,4.414,4.5474,4.658,4.709,4.7826,4.8075,4.747,4.6819,4.6161,4.5545,4.5965,4.627,4.6365,4.7657,4.8703,4.9554,4.9884,5.0692,5.1977,5.216,5.2564,5.3225,5.3225,5.3225,5.3225,5.3225,5.3225,5.3225,5.3371,5.3518,5.3659,5.3727,5.4194,5.4713,5.4041,5.2536,5.1025,5.2307,5.2766,5.2993,5.4921,5.5684,5.5831,5.5831,5.5941,5.6051,5.6051,5.6051,5.6051,5.6051,5.6528,5.7042,5.7042,5.7519,5.7997,5.7997,5.7997,5.7997,5.7997,5.7997,5.7997,5.7997,5.7997,5.7997,5.7997,5.7997,5.7997,5.7997,5.7997,5.7997,5.7997,5.7997,5.7997,5.7997,5.7997,5.807,5.8217,5.9134,5.9942,6.0603,6.0786,6.1153,6.1814,6.1814,6.2144,6.2805,6.16,6.0646,6.0046,5.9196,5.8072,5.6695,5.7068,5.5978,3.6997,0.0,0.0,3.5656,3.5959,3.6381,0.0,0.0,3.665,3.7796,3.7274,3.7124,3.8924,3.9337,4.0107,4.208,4.3543,4.4784,4.5766,4.7113,4.7855,4.7446,4.7922,4.8075,4.747,4.6819,4.6161,4.5545,4.5545,4.5815,4.6365,4.777,4.8847,4.9481,5.0949,5.1793,5.1977,5.2711,5.3115,5.3225,5.3225,5.3225,5.3225,5.3225,5.3225,5.3261,5.3959,5.4656,5.5317,5.5346,5.5412,5.544,5.4762,5.4323,5.4129,5.4287,5.4337,5.435,5.5277,5.6051,5.6675,5.6675,5.7152,5.774,5.774,5.774,5.774,5.774,5.7813,5.7886,5.7886,5.7923,5.7997,5.7997,5.7997,5.7997,5.7997,5.7997,5.7997,5.7997,5.7997,5.7997,5.7997,5.7997,5.7997,5.7997,5.7997,5.7997,5.7997,5.7997,5.7997,5.7997,5.7997,5.829,5.9024,6.0456,6.1374,6.1447,6.2144,6.2585,6.2658,6.2695,6.2732,6.2805,6.2595,6.2522,6.2412,6.1605,6.0762,5.9883,5.9234,5.7629,3.6335,0.0,0.0,0.0,3.6987,3.7698,3.7655,3.8044,3.84,3.8475,3.7944,3.7763,3.8773,3.9658,4.074,0.0,4.4198,4.5589,4.6091,4.7405,4.8075,4.747,4.7919,4.8229,4.7955,4.6999,4.6482,4.673,4.6765,4.709,4.7758,4.9117,5.019,5.0949,5.161,5.2197,5.2711,5.3041,5.3225,5.3225,5.3225,5.3445,5.3922,5.3922,5.4142,5.462,5.495,5.5537,5.6308,5.6308,5.6565,5.7005,5.6656,5.6562,5.6441,5.5595,5.5266,5.5437,5.6603,5.7226,5.7483,5.7483,5.774,5.7997,5.7997,5.7997,5.7997,5.7997,5.7997,5.7997,5.7997,5.7997,5.7997,5.7997,5.7997,5.7997,5.7997,5.7997,5.7997,5.7997,5.7997,5.7997,5.7997,5.7997,5.7997,5.7997,5.7997,5.7997,5.7997,5.7997,5.7997,5.7997,5.8437,5.9024,5.9832,6.0933,6.1777,6.2291,6.2622,6.2805,6.2805,6.3282,6.3576,6.3576,6.4016,6.4016,6.3576,6.3209,6.2365,6.108,6.075,5.9795,3.6237,0.0,0.0,3.6983,3.7786,3.8481,3.8436,3.8849,3.9204,3.8814,3.841,3.837,3.8894,3.9975,0.0,4.2884,4.44,4.5682,4.641,4.727,4.7679,4.7428,4.7797,4.8224,4.8636,4.7666,4.7204,4.7533,4.8022,4.8425,4.8799,5.0286,5.1389,5.1977,5.2197,5.2601,5.3188,5.3225,5.3225,5.3225,5.3445,5.3849,5.4399,5.462,5.517,5.5941,5.5941,5.6381,5.7152,5.7152,5.7483,5.7997,5.7997,5.7997,5.7877,5.6794,5.643,5.6552,5.7637,5.7997,5.7997,5.7997,5.7997,5.7997,5.7997,5.7997,5.7997,5.7997,5.7997,5.7997,5.7997,5.7997,5.7997,5.7997,5.7997,5.7997,5.7997,5.7997,5.7997,5.7997,5.7997,5.7997,5.7997,5.7997,5.7997,5.7997,5.7997,5.7997,5.7997,5.7997,5.8107,5.8327,5.9061,5.9869,6.0676,6.1484,6.2181,6.2768,6.3025,6.3172,6.3172,6.398,6.442,6.442,6.5007,6.5007,6.442,6.42,6.3466,6.2291,6.2034,6.163,0.0,0.0,3.7807,3.7889,3.7889,3.7889,3.7889,3.7922,3.8173,3.8851,3.8971,3.9174,3.9935,4.0508,4.1649,4.3793,4.4165,4.4911,4.7089,4.6829,4.6692,4.7342,4.7428,4.8,0.0,4.8956,4.8272,4.7652,4.8944,4.9467,4.8834,5.083,5.1977,5.1977,5.2747,5.3188,5.3225,5.3225,5.3225,5.3225,5.3995,5.4363,5.4436,5.5207,5.5978,5.6748,5.6748,5.7226,5.796,5.796,5.796,5.7997,5.7997,5.7997,5.7997,5.796,5.796,5.796,5.7997,5.7997,5.7997,5.7997,5.7997,5.7997,5.7997,5.7997,5.7997,5.7997,5.7997,5.7997,5.7997,5.7997,5.7997,5.7997,5.7997,5.7997,5.7997,5.7997,5.7997,5.7997,5.7997,5.7997,5.7997,5.7997,5.7997,5.7997,5.7997,5.7997,5.7997,5.7997,5.829,5.9098,5.9905,6.0676,6.1484,6.2291,6.2768,6.2805,6.3576,6.4053,6.4053,6.4861,6.5264,6.5264,6.5301,6.5301,6.5264,6.4494,6.4053,6.398,6.3172,6.2768,0.0,0.0,3.7436,3.84,3.8633,3.8768,3.9242,3.9343,3.9411,3.9648,4.0121,4.0527,4.0764,4.1317,4.225,4.4069,4.419,4.4867,4.7083,4.6819,4.6819,4.7879,4.8146,0.0,0.0,0.0,0.0,4.9733,5.0289,5.0695,5.1,5.2134,5.2821,5.2821,5.3078,5.3225,5.3225,5.3225,5.3482,5.3995,5.5354,5.6014,5.6014,5.6822,5.7336,5.7593,5.7593,5.774,5.7997,5.7997,5.7997,5.7997,5.7997,5.7997,5.7997,5.7997,5.7997,5.7997,5.7997,5.7997,5.7997,5.7997,5.7997,5.7997,5.7997,5.7997,5.7997,5.7997,5.7997,5.7997,5.7997,5.7997,5.7997,5.7997,5.7997,5.7997,5.7997,5.7997,5.7997,5.7997,5.7997,5.7997,5.7997,5.7997,5.7997,5.7997,5.7997,5.7997,5.7997,5.8474,5.8914,5.9171,6.0419,6.13,6.1557,6.2365,6.3062,6.3613,6.3943,6.4347,6.4861,6.5668,6.6109,6.6109,6.6623,6.6623,6.6109,6.5815,6.5411,6.4897,6.4604,6.4163,0.0,3.8085,3.787,3.9075,3.9377,3.9512,3.9986,4.0087,4.0087,4.0087,4.046,4.0798,4.0798,4.1523,4.2714,4.4467,4.4892,4.5658,4.7587,4.7285,4.728,4.8307,4.8547,0.0,0.0,0.0,0.0,5.0849,5.1439,5.1883,5.2076,5.2813,5.3225,5.3225,5.3225,5.3225,5.3225,5.3482,5.4179,5.528,5.6308,5.6969,5.7262,5.7776,5.7997,5.7997,5.7997,5.7997,5.7997,5.7997,5.7997,5.7997,5.7997,5.7997,5.7997,5.7997,5.7997,5.7997,5.7997,5.7997,5.7997,5.7997,5.7997,5.7997,5.7997,5.7997,5.7997,5.7997,5.7997,5.7997,5.7997,5.7997,5.7997,5.7997,5.7997,5.7997,5.7997,5.7997,5.8107,5.8364,5.8437,5.851,5.8804,5.8841,5.8841,5.8841,5.8841,5.8767,5.8474,5.9134,5.9758,6.0052,6.097,6.1704,6.1998,6.2805,6.3503,6.4053,6.464,6.5191,6.5705,6.6512,6.6916,6.6916,6.743,6.743,6.6916,6.6623,6.6219,6.5742,6.5448,6.5007,3.9884,3.958,3.9208,3.9952,4.0155,4.0155,4.0189,4.0155,4.0155,4.0155,4.0155,4.0155,0.0,0.0,4.294,4.5067,4.602,4.6965,4.8317,4.81,4.8002,0.0,0.0,0.0,0.0,0.0,0.0,5.1085,0.0,5.2893,5.2206,5.2813,5.3225,5.3225,5.3261,5.3261,5.3261,5.4106,5.528,5.6822,5.6859,5.7262,5.7997,5.7997,5.7997,5.7997,5.7997,5.7997,5.7997,5.7997,5.7997,5.7997,5.7997,5.7997,5.7997,5.7997,5.7997,5.7997,5.7997,5.7997,5.7997,5.7997,5.7997,5.7997,5.7997,5.7997,5.7997,5.7997,5.7997,5.7997,5.7997,5.7997,5.7997,5.7997,5.7997,5.7997,5.8033,5.807,5.829,5.9134,5.9281,5.9501,6.0272,6.0419,6.0419,6.0419,6.0456,6.0162,5.9391,5.9979,6.075,6.1569,6.1679,6.2047,6.2867,6.3663,6.4127,6.4251,6.5632,6.6512,6.6549,6.7283,6.7687,6.7687,6.7687,6.7687,6.7687,6.6916,6.6549,6.6549,6.5778,6.5411,3.9884,3.9952,3.9986,4.073,4.0933,4.1068,4.161,4.1305,4.0933,4.0933,4.0933,4.1068,0.0,0.0,0.0,4.5192,4.5196,0.0,4.7571,4.6965,0.0,0.0,0.0,5.0283,5.1857,5.2527,0.0,0.0,5.2993,5.3103,5.2937,5.3103,5.3225,5.3225,5.3775,5.4106,5.4106,5.55,5.6381,5.6822,5.7409,5.7813,5.7997,5.7997,5.7997,5.7997,5.7997,5.7997,5.7997,5.7997,5.7997,5.7997,5.7997,5.7997,5.7997,5.7997,5.7997,5.7997,5.7997,5.7997,5.7997,5.7997,5.7997,5.7997,5.7997,5.7997,5.7997,5.7997,5.7997,5.7997,5.7997,5.7997,5.7997,5.7997,5.7997,5.8143,5.8767,5.8914,5.9134,5.9942,6.0089,6.0162,6.0382,6.0419,6.0419,6.0419,6.0896,6.1006,6.0199,6.0786,6.1529,6.2138,6.2361,6.3121,6.4762,6.4419,6.482,6.6415,6.6529,6.6769,6.7357,6.7577,6.7687,6.7687,6.7687,6.7687,6.7687,6.7467,6.7393,6.7393,6.7173,6.6769,3.9986,4.0087,4.0257,4.1035,4.1204,4.1305,4.1711,4.1508,4.1102,4.0764,4.0696,0.0,0.0,0.0,0.0,0.0,0.0,0.0,4.8461,4.8574,4.8977,0.0,5.0677,0.0,5.2407,5.2931,5.3225,0.0,0.0,5.3225,5.3225,5.3225,5.3371,5.3739,5.4179,5.473,5.5464,5.6345,5.6969,5.7336,5.7776,5.7997,5.7997,5.7997,5.7997,5.8033,0.0,5.8327,5.8033,5.8767,5.8621,5.8033,5.84,5.8327,5.7997,5.7997,5.7997,5.7997,5.7997,5.7997,5.7997,5.7997,5.7997,5.7997,5.7997,5.7997,5.7997,5.7997,5.7997,5.7997,5.7997,5.8253,5.8547,5.8547,5.8804,5.9171,5.9648,5.9758,5.9979,6.0786,6.1227,6.1447,6.1447,6.1447,6.1447,6.1447,6.1851,6.1961,6.152,6.1851,6.2314,6.2879,6.3194,6.3965,6.5462,6.5301,6.5791,6.7198,6.7096,6.721,6.765,6.7687,6.7687,6.7687,6.7687,6.7687,6.7687,6.7687,6.7687,6.7687,6.7687,6.7467,4.0087,4.0155,4.0392,4.117,4.1441,4.1474,4.1373,4.1339,4.1102,4.0257,0.0,0.0,4.2085,0.0,4.5142,4.7277,0.0,5.0361,5.0028,5.1066,5.1734,5.121,5.1726,5.2381,5.3103,5.3225,5.3261,5.3371,5.3371,5.3335,5.3225,5.3298,5.3775,5.4693,5.473,5.5427,5.6932,5.6969,5.7299,5.7997,5.7997,5.7997,5.7997,5.7997,5.807,5.818,0.0,0.0,5.8253,5.9538,5.9245,5.807,5.8767,5.8621,5.7997,5.7997,5.7997,5.7997,5.7997,5.7997,5.7997,5.7997,5.7997,5.7997,5.7997,5.807,5.8143,5.8143,5.8253,5.8327,5.8327,5.8841,5.9391,5.9391,5.9905,6.0419,6.0529,6.0639,6.0933,6.163,6.2328,6.2805,6.2805,6.2805,6.2805,6.2805,6.2805,6.2842,6.3015,6.2928,6.3099,6.3786,6.4076,6.4744,6.6031,6.6416,6.6901,6.7659,6.7741,6.781,6.781,6.792,6.7941,6.7834,6.7944,6.7944,6.7834,6.7834,6.7797,6.7687,6.7687,6.7687,4.0087,4.0527,4.1204,4.1914,4.2591,4.2861,4.2252,4.2117,0.0,0.0,0.0,4.212,4.2944,0.0,0.0,4.8143,0.0,0.0,0.0,0.0,0.0,0.0,0.0,0.0,0.0,0.0,0.0,0.0,0.0,0.0,5.3261,5.3849,5.4876,5.6345,5.6381,5.6859,5.7776,5.7776,5.785,5.7997,5.7997,5.7997,5.7997,5.7997,5.8364,5.8988,0.0,0.0,5.8988,5.8584,5.8253,5.7997,5.8143,5.8107,5.7997,5.7997,5.7997,5.7997,5.7997,5.7997,5.7997,5.7997,5.7997,5.7997,5.7997,5.8474,5.8988,5.8988,5.9465,5.9979,5.9979,6.0089,6.0199,6.0199,6.0309,6.0566,6.1263,6.1924,6.2438,6.2585,6.2695,6.2805,6.2805,6.2805,6.2805,6.2805,6.2805,6.3223,6.4382,6.3516,6.3427,6.5078,6.4967,6.5902,6.8731,6.7836,6.786,6.9509,6.8816,6.8368,6.8368,6.9037,6.911,6.8678,6.9339,6.9339,6.8678,6.8678,6.8348,6.7687,6.7687,6.7687,4.0466,4.0848,4.1477,4.2501,4.3095,4.3234,4.2455,0.0,0.0,0.0,0.0,4.1511,4.3454,0.0,0.0,0.0,0.0,0.0,0.0,0.0,0.0,0.0,0.0,0.0,0.0,0.0,0.0,0.0,0.0,0.0,5.4473,5.5207,5.6014,5.6785,5.7226,5.7593,5.7997,5.7997,5.7997,5.7997,5.7997,5.7997,5.7997,5.8437,5.8621,5.8621,0.0,0.0,5.9208,5.9245,5.8988,5.8621,5.8621,5.8364,5.7997,5.7997,5.7997,5.7997,5.7997,5.8253,5.8621,5.8621,5.8621,5.8621,5.8621,5.9208,5.9832,5.9832,6.0126,6.0419,6.0419,6.0713,6.1006,6.1006,6.1337,6.1741,6.2144,6.2548,6.2904,6.3168,6.3215,6.3271,6.3593,6.3637,6.3637,6.3637,6.3973,6.4513,6.5178,6.5085,6.5361,6.6516,6.6595,6.743,6.9509,6.883,6.8819,7.0023,6.9808,6.961,6.961,7.0361,7.0537,6.9999,7.0369,7.0196,6.9522,6.9522,6.9339,6.8935,6.8531,6.8311,4.0967,4.1423,4.2021,4.2955,4.3511,4.3464,4.217,4.161,0.0,0.0,0.0,4.1226,4.3545,0.0,0.0,0.0,0.0,0.0,0.0,0.0,0.0,0.0,0.0,0.0,0.0,0.0,0.0,0.0,0.0,0.0,0.0,5.6455,5.6895,5.7042,5.7666,5.7997,5.7997,5.7997,5.7997,5.7997,5.7997,5.7997,5.8033,5.8657,5.8804,5.8584,0.0,0.0,0.0,6.0015,5.9869,5.9465,5.9465,5.9061,5.851,5.851,5.851,5.851,5.851,5.8951,5.9465,5.9465,5.9465,5.9501,5.9685,6.0162,6.0676,6.086,6.0933,6.0933,6.0933,6.1374,6.19,6.2008,6.2487,6.2965,6.2965,6.3062,6.3262,6.3543,6.383,6.4158,6.4596,6.4823,6.4974,6.4974,6.5464,6.5993,6.6295,6.69,6.7574,6.8241,6.8291,6.8742,6.9844,6.9645,6.9777,7.0495,7.0687,7.0835,7.1025,7.1781,7.1944,7.1279,7.1417,7.1153,7.0367,7.0367,7.0257,7.0073,6.9449,6.9155,4.1725,4.2741,4.3722,4.3305,4.43,4.444,4.1087,0.0,0.0,3.8667,4.0561,4.2802,4.3058,4.4614,0.0,0.0,0.0,5.0508,0.0,0.0,0.0,0.0,0.0,0.0,0.0,0.0,0.0,0.0,0.0,0.0,0.0,5.6748,5.7152,5.7886,5.796,5.7997,5.7997,5.7997,5.7997,5.7997,5.7997,5.7997,5.7997,5.807,5.8877,6.0126,0.0,0.0,0.0,5.9905,5.9722,6.0309,6.0309,6.0236,6.0199,6.0199,6.0199,6.0199,6.0199,6.0236,6.0309,6.0309,6.0309,6.0419,6.1153,6.141,6.163,6.2365,6.2585,6.2585,6.2585,6.2658,6.2806,6.3297,6.3468,6.3543,6.3543,6.3934,6.4099,6.368,6.4578,6.5426,6.5464,6.6144,6.6672,6.6672,6.671,6.724,6.8464,6.865,6.9196,7.0469,6.952,6.9343,7.0679,7.0324,7.0572,7.1919,7.1593,7.1662,7.2386,7.3227,7.3184,7.21,7.2795,7.2526,7.1211,7.1211,7.0807,7.011,7.0,7.0,4.2262,4.3202,4.4021,4.3746,4.4251,4.4233,4.1936,0.0,4.0629,3.9445,4.0492,4.1931,4.281,4.4219,4.5957,4.8379,4.9224,0.0,0.0,0.0,0.0,0.0,0.0,0.0,0.0,0.0,0.0,0.0,0.0,0.0,0.0,5.7519,5.7666,5.7997,5.7997,5.7997,5.7997,5.7997,5.7997,5.7997,5.7997,5.7997,5.8033,5.851,5.8804,5.8951,0.0,0.0,0.0,5.9685,5.9979,6.108,6.0603,6.0419,6.0419,6.0419,6.0419,6.0419,6.0419,6.0713,6.1117,6.1117,6.1447,6.1924,6.2254,6.2695,6.3172,6.3503,6.3209,6.2805,6.2805,6.3062,6.3408,6.3937,6.4059,6.4059,6.4059,6.4632,6.5162,6.5274,6.6099,6.6916,6.7216,6.7553,6.7814,6.7814,6.8272,6.8794,6.9327,6.9787,7.0306,7.086,7.0441,7.0335,7.086,7.118,7.1602,7.2168,7.2946,7.3507,7.3852,7.4696,7.4778,7.3976,7.3928,7.3501,7.2569,7.2208,7.1872,7.1541,7.1064,7.0844,4.317,4.4133,4.4872,4.4405,4.4483,4.4222,0.0,4.1291,4.029,3.9851,4.0457,4.1357,4.2455,4.3746,4.5406,4.7609,4.8673,4.9958,5.205,0.0,0.0,0.0,0.0,0.0,0.0,0.0,0.0,0.0,0.0,0.0,0.0,0.0,5.7997,5.7997,5.7997,5.7997,5.7997,5.7997,5.8051,5.8231,5.8088,5.8051,5.8231,5.8676,5.875,0.0,0.0,0.0,0.0,6.037,6.0867,6.1887,6.1337,6.1117,6.1117,6.1117,6.1117,6.1117,6.1117,6.1592,6.2166,6.201,6.2682,6.3595,6.3442,6.3652,6.4021,6.4242,6.3689,6.3062,6.3062,6.3354,6.3766,6.4444,6.459,6.4666,6.4931,6.553,6.6197,6.6668,6.7553,6.8318,6.8729,6.8975,6.9129,6.9129,6.9667,7.0052,7.0052,7.0552,7.0898,7.0898,7.1129,7.1283,7.1283,7.186,7.2399,7.2899,7.4053,7.4822,7.5091,7.5668,7.5718,7.5127,7.4588,7.398,7.3391,7.2816,7.2496,7.2496,7.1945,7.1541,4.4673,4.5847,4.6724,4.5341,4.5158,4.4763,0.0,4.1679,4.0764,3.9309,4.0492,4.181,4.181,4.3385,4.5259,4.6837,4.7792,4.9444,5.2747,0.0,0.0,0.0,0.0,0.0,0.0,0.0,0.0,0.0,0.0,0.0,0.0,0.0,5.7997,5.7997,5.7997,5.7997,5.7997,5.7997,5.8238,5.8713,5.8194,5.8238,5.8673,5.8231,0.0,0.0,0.0,0.0,0.0,6.2364,6.253,6.2805,6.2805,6.2805,6.2805,6.2805,6.2805,6.2805,6.2805,6.3121,6.3461,6.2965,6.4063,6.5459,6.4918,6.422,6.3736,6.4555,6.4182,6.3587,6.3587,6.3631,6.3855,6.4866,6.5099,6.5328,6.6205,6.6739,6.7176,6.7522,6.8723,6.9667,6.9706,7.036,7.086,7.086,7.0898,7.0898,7.0898,7.0898,7.0898,7.0898,7.1668,7.2168,7.2168,7.2168,7.2899,7.4591,7.4707,7.5091,7.5938,7.6015,7.5718,7.5127,7.4588,7.398,7.3391,7.2816,7.2496,7.2496,7.2496,7.2055,4.4743,4.548,4.6066,4.5196,4.4664,4.4199,4.3623,4.2496,4.1485,4.0996,4.1676,4.2422,4.2422,4.365,4.5259,4.6874,4.8746,5.0848,0.0,0.0,0.0,0.0,0.0,0.0,0.0,0.0,0.0,0.0,0.0,0.0,0.0,0.0,5.7997,5.7997,5.7997,5.8142,5.8503,5.8503,5.8676,5.9176,5.9028,5.9365,6.0041,5.989,0.0,0.0,0.0,0.0,0.0,6.286,6.3065,6.3391,6.3947,6.4216,6.4216,6.4216,6.4369,6.4645,6.4083,6.3978,6.4099,6.3937,6.4287,6.4747,6.4592,6.47,6.4888,6.4627,6.4364,6.4217,6.4554,6.5042,6.5673,6.6318,6.6929,6.7428,6.7735,6.8356,6.891,6.903,6.9816,7.0514,7.0514,7.0744,7.0898,7.0898,7.0898,7.0898,7.0898,7.0898,7.1129,7.1706,7.2052,7.2206,7.2206,7.3245,7.413,7.4668,7.5245,7.5707,7.5976,7.6015,7.5917,7.5718,7.5165,7.4751,7.4591,7.3989,7.3541,7.3119,7.2686,7.2349,4.5201,4.5827,4.6394,4.5699,4.5176,4.4854,4.4907,4.3543,4.2235,4.2235,4.2517,4.2693,4.2693,4.4053,4.5551,4.6687,4.8975,5.1417,0.0,0.0,0.0,0.0,0.0,0.0,0.0,0.0,0.0,0.0,0.0,0.0,0.0,0.0,5.8508,5.8508,5.8332,5.8418,5.8713,5.8874,5.9363,6.0151,5.9983,6.0399,6.1401,0.0,0.0,0.0,0.0,0.0,0.0,6.3713,6.3879,6.393,6.4454,6.4683,6.472,6.4683,6.485,6.5049,6.4558,6.4518,6.4626,6.4444,6.4745,6.5265,6.5741,6.5939,6.5838,6.5646,6.5609,6.5679,6.595,6.6434,6.698,6.7472,6.8013,6.8513,6.8821,6.9321,6.9783,7.009,7.0552,7.0898,7.0898,7.0898,7.0898,7.0898,7.0898,7.0898,7.0898,7.1206,7.1591,7.2129,7.2783,7.3129,7.3129,7.4091,7.4861,7.5168,7.5707,7.6015,7.6015,7.6015,7.6015,7.6015,7.5413,7.5091,7.5091,7.4588,7.4117,7.3699,7.3119,7.2871,0.0,4.6719,4.7462,4.661,4.636,4.6323,4.6354,4.4677,0.0,4.3116,4.292,4.2768,4.2804,4.4527,4.6063,4.6573,4.8762,5.1357,0.0,0.0,0.0,0.0,0.0,0.0,0.0,0.0,0.0,0.0,0.0,0.0,0.0,0.0,0.0,5.9389,5.9028,5.8796,5.8796,5.9287,6.0183,6.1459,6.1088,6.1543,6.2756,0.0,0.0,0.0,0.0,0.0,0.0,6.4787,6.4904,6.4482,6.4595,6.4595,6.4558,6.4633,6.4595,6.4557,6.4519,6.4803,6.5175,6.4815,6.5559,6.6789,6.8098,6.7573,6.6726,6.7452,6.7681,6.7681,6.7681,6.7719,6.789,6.8356,6.8552,6.8821,6.9629,6.9783,7.0014,7.0744,7.0898,7.0898,7.0898,7.0898,7.0898,7.0898,7.0898,7.0937,7.0975,7.1706,7.2245,7.236,7.3783,7.4745,7.4784,7.4784,7.513,7.5938,7.6015,7.6015,7.6015,7.6015,7.6015,7.6015,7.5446,7.5163,7.5163,7.4629,7.4336,7.4336,7.3747,7.3442,4.5649,0.0,4.7049,4.6525,4.6442,4.6535,0.0,4.555,4.4308,4.4308,4.3762,4.3468,4.4126,4.515,4.6431,4.8066,5.044,5.2956,5.5598,0.0,0.0,0.0,0.0,0.0,0.0,0.0,0.0,0.0,0.0,0.0,0.0,0.0,0.0,5.9389,5.9625,5.9792,5.9792,6.0532,6.1258,6.1953,6.2425,6.3192,6.4116,0.0,0.0,0.0,0.0,0.0,0.0,6.5613,6.5417,6.5085,6.6345,6.6459,6.5998,6.6612,6.6688,6.6385,6.5771,6.6019,6.6726,6.7295,6.7669,6.8098,6.9102,6.8729,6.7955,6.8147,6.8185,6.8185,6.8185,6.8685,6.925,6.9371,6.986,7.036,7.0552,7.0629,7.0667,7.086,7.0898,7.0898,7.0898,7.0898,7.0898,7.0898,7.0898,7.1129,7.1822,7.2052,7.2668,7.3976,7.4476,7.4976,7.563,7.5707,7.5784,7.5976,7.6015,7.6015,7.6015,7.6015,7.6015,7.6015,7.5848,7.5787,7.5787,7.5201,7.4943,7.4905,7.4379,7.3841,4.5586,4.6385,4.72,4.6948,4.6997,4.7132,4.7344,4.599,4.4709,4.4709,4.4048,4.3754,4.4562,4.551,4.6817,4.8877,5.1456,5.4284,0.0,0.0,0.0,0.0,0.0,0.0,0.0,0.0,0.0,0.0,0.0,0.0,0.0,0.0,0.0,0.0,6.0884,6.0912,6.0704,6.1371,6.2221,6.3243,6.3705,6.4359,6.5205,0.0,0.0,0.0,0.0,0.0,6.5897,6.5897,6.5717,6.5561,6.648,6.6787,6.6748,6.7208,6.7505,6.7628,6.7205,6.7321,6.7859,6.8706,6.9013,6.9167,7.0014,6.9937,6.9552,6.9552,6.9552,6.9552,6.9552,6.9898,7.0244,7.0244,7.0591,7.0898,7.0898,7.0898,7.0898,7.0898,7.0898,7.1014,7.1437,7.1514,7.1629,7.2014,7.2091,7.2245,7.2745,7.3129,7.3707,7.4591,7.5053,7.5476,7.5976,7.6015,7.6015,7.6015,7.6015,7.6015,7.6015,7.6015,7.6015,7.6015,7.6015,7.6015,7.6015,7.5686,7.548,7.548,7.4943,7.4468,4.574,4.6684,4.7541,4.7342,4.7597,4.781,4.7569,4.6086,4.4743,4.4709,4.4158,4.3975,4.4892,4.6082,4.7579,4.9805,5.265,5.5733,5.9065,0.0,0.0,0.0,0.0,0.0,0.0,0.0,0.0,0.0,0.0,0.0,0.0,0.0,0.0,0.0,6.2204,6.2158,6.1898,6.2273,6.3205,6.4589,6.4743,6.5205,6.5897,6.5897,0.0,0.0,0.0,0.0,6.6051,6.5936,6.6051,6.6282,6.6282,6.6705,6.7321,6.7436,6.7898,6.8436,6.8552,6.859,6.8744,6.959,6.9898,7.0014,7.0706,7.0898,7.0898,7.0898,7.0898,7.0898,7.0898,7.0898,7.0898,7.0898,7.0898,7.0898,7.0898,7.0898,7.0937,7.1052,7.1091,7.136,7.2245,7.2399,7.2629,7.3399,7.3514,7.3553,7.3668,7.4284,7.4745,7.4899,7.5553,7.6015,7.6015,7.6015,7.6015,7.6015,7.6015,7.6015,7.6015,7.6015,7.6015,7.6015,7.6015,7.6015,7.6015,7.6015,7.6015,7.6015,7.548,7.5201,4.6509,4.7318,4.7779,4.6762,4.7577,4.8261,4.6919,4.5834,4.5041,4.4743,4.4599,4.4966,4.6471,4.7749,4.9487,0.0,0.0,5.8081,0.0,0.0,0.0,0.0,0.0,0.0,0.0,0.0,0.0,0.0,0.0,0.0,0.0,0.0,0.0,0.0,0.0,6.3449,6.4091,6.418,6.4359,6.4628,6.5359,6.5782,6.5897,6.5897,6.5897,0.0,0.0,0.0,6.6859,6.6167,6.6744,6.8013,6.8013,6.809,6.8282,6.9013,6.8936,6.8513,6.9244,6.9513,6.9629,7.0437,7.0706,7.0744,7.086,7.0898,7.0898,7.0898,7.0898,7.0898,7.0898,7.0898,7.0898,7.0898,7.0898,7.0898,7.0898,7.0898,7.1129,7.186,7.2014,7.2283,7.3168,7.3322,7.336,7.3476,7.3514,7.3745,7.4437,7.463,7.4976,7.5707,7.5938,7.6015,7.6015,7.6015,7.6015,7.6015,7.6015,7.6015,7.6015,7.6015,7.6015,7.6015,7.6015,7.6015,7.6015,7.6015,7.6015,7.6015,7.5917,7.5584,4.6086,4.6817,4.7318,4.6781,4.7745,4.8667,4.7943,4.6794,4.5978,4.6231,4.5805,4.5993,4.8086,0.0,5.0636,5.4611,0.0,0.0,0.0,0.0,0.0,0.0,0.0,0.0,0.0,0.0,0.0,0.0,0.0,0.0,0.0,0.0,0.0,0.0,0.0,0.0,6.5282,6.5282,6.5282,6.532,6.5705,6.5897,6.5897,6.6359,6.6551,0.0,0.0,6.7475,6.7782,6.7398,6.7705,6.8398,6.8398,6.8706,6.9206,7.0052,7.009,6.9821,7.0206,7.036,7.0398,7.0783,7.0898,7.0898,7.0898,7.1245,7.1514,7.1014,7.0898,7.0898,7.0898,7.0898,7.0898,7.0898,7.1245,7.1591,7.1591,7.1975,7.2437,7.2822,7.2899,7.3168,7.4014,7.4168,7.4322,7.4784,7.4861,7.4976,7.5361,7.5399,7.5553,7.5976,7.6015,7.6015,7.6015,7.6015,7.6015,7.6015,7.6015,7.6015,7.6015,7.6015,7.6015,7.6015,7.6015,7.6015,7.6015,7.6015,7.6015,7.6015,7.6015,7.5848,4.5855,4.6394,4.6971,4.7124,4.7816,4.8509,4.8823,4.778,4.6997,4.7826,4.7451,4.7537,4.9637,5.0825,0.0,0.0,0.0,0.0,0.0,0.0,0.0,0.0,0.0,0.0,0.0,0.0,0.0,0.0,0.0,0.0,0.0,0.0,0.0,0.0,0.0,0.0,6.5897,6.5897,6.5897,6.5897,6.5897,6.6013,6.6205,6.6821,6.7205,6.7436,6.8129,6.8513,6.8706,6.8475,6.8629,6.8975,6.8783,6.9244,7.0052,7.0667,7.0898,7.0898,7.0898,7.0898,7.0898,7.0898,7.0898,7.0937,7.1129,7.1668,7.2091,7.1629,7.1514,7.1475,7.1245,7.136,7.1514,7.1514,7.2014,7.2514,7.2514,7.3014,7.3553,7.3745,7.3783,7.4053,7.4861,7.5014,7.5245,7.5899,7.6015,7.6015,7.6015,7.6015,7.6015,7.6015,7.6015,7.6015,7.6015,7.6015,7.6015,7.6015,7.6015,7.6015,7.6015,7.6015,7.6015,7.6015,7.6015,7.6015,7.6015,7.6015,7.6015,7.6015,7.6015,7.6015,4.6586,4.6855,4.7086,4.7817,4.7529,4.7377,4.864,4.8166,4.7758,4.8696,0.0,0.0,0.0,5.4434,0.0,0.0,0.0,0.0,0.0,0.0,0.0,0.0,0.0,0.0,0.0,0.0,0.0,0.0,0.0,0.0,0.0,0.0,0.0,0.0,0.0,0.0,6.5897,6.5897,6.5897,6.5897,6.5897,6.6282,6.7013,6.7051,6.7552,6.8321,6.8359,6.8859,6.9552,6.8744,6.9321,7.0667,6.9898,7.009,7.0821,7.0898,7.0898,7.0898,7.0898,7.0898,7.0898,7.0898,7.0898,7.1052,7.186,7.2129,7.236,7.3091,7.3322,7.3129,7.2322,7.2706,7.3322,7.3322,7.336,7.3399,7.3399,7.3476,7.3745,7.4476,7.463,7.4899,7.5745,7.5899,7.5938,7.5976,7.6015,7.6015,7.6015,7.6015,7.6015,7.6015,7.6015,7.6015,7.6015,7.6015,7.6015,7.6015,7.6015,7.6015,7.6015,7.6015,7.6015,7.6015,7.6015,7.6015,7.6015,7.6015,7.6015,7.6015,7.6015,7.6015,4.6009,4.6855,4.774,4.8009,4.8279,4.8721,4.9775,4.9969,5.0215,5.1381,5.1469,0.0,0.0,0.0,0.0,0.0,0.0,0.0,0.0,0.0,0.0,0.0,0.0,0.0,0.0,0.0,0.0,0.0,0.0,0.0,0.0,0.0,0.0,0.0,0.0,0.0,0.0,6.6397,6.6628,6.6628,6.6628,6.6821,6.7128,6.8205,6.8898,6.9244,6.9744,7.0129,7.0437,7.009,7.0321,7.086,7.0552,7.0629,7.0898,7.0898,7.0898,7.0898,7.0898,7.0898,7.0898,7.0898,7.1283,7.1783,7.2091,7.2937,7.3707,7.3553,7.4245,7.4745,7.336,7.3245,7.3514,7.3514,7.3899,7.4245,7.4245,7.4668,7.513,7.5438,7.5515,7.563,7.5938,7.6015,7.6015,7.6015,7.6015,7.6015,7.6015,7.6015,7.6015,7.6015,7.6015,7.6015,7.6015,7.6015,7.6015,7.6015,7.6015,7.6015,7.6015,7.6015,7.6015,7.6015,7.6015,7.6015,7.6015,7.6015,7.6015,7.6015,7.6015,7.6015,4.6009,4.6855,4.7855,4.8394,4.8971,4.9779,5.1164,5.148,5.1915,5.348,5.3375,0.0,0.0,0.0,0.0,0.0,0.0,0.0,0.0,0.0,0.0,0.0,0.0,0.0,0.0,0.0,0.0,0.0,0.0,0.0,0.0,0.0,0.0,0.0,0.0,0.0,0.0,6.6821,6.7244,6.7513,6.7782,6.7936,6.7975,6.9167,6.986,7.0129,7.0667,7.0898,7.0898,7.0898,7.0898,7.0898,7.0898,7.0898,7.0898,7.0898,7.0898,7.0898,7.0898,7.1091,7.1321,7.1321,7.1898,7.2668,7.2899,7.3783,7.463,7.4361,7.513,7.5745,7.4591,7.4284,7.4284,7.4284,7.4707,7.513,7.513,7.5592,7.6015,7.6015,7.6015,7.6015,7.6015,7.6015,7.6015,7.6015,7.6015,7.6015,7.6015,7.6015,7.6015,7.6015,7.6015,7.6015,7.6015,7.6015,7.6015,7.6015,7.6015,7.6015,7.6015,7.6015,7.6015,7.6015,7.6015,7.6015,7.6015,7.6015,7.6015,7.6015,7.6015,7.6015,4.6894,4.6932,4.7317,4.8971,4.9433,5.0125,5.2626,5.2549,5.2543,5.4651,5.5107,5.5107,5.5107,0.0,0.0,0.0,0.0,0.0,0.0,0.0,0.0,0.0,0.0,0.0,0.0,0.0,0.0,0.0,0.0,0.0,0.0,0.0,0.0,0.0,0.0,0.0,0.0,6.7128,6.7552,6.8436,6.9321,6.9706,6.9706,6.9706,7.0167,7.0898,7.0898,7.0898,7.0898,7.0898,7.0898,7.0898,7.0898,7.0898,7.0898,7.0898,7.0898,7.0898,7.0898,7.1475,7.2206,7.2206,7.2783,7.3668,7.4476,7.4707,7.4899,7.5745,7.6015,7.6015,7.6015,7.6015,7.6015,7.6015,7.6015,7.6015,7.6015,7.6015,7.6015,7.6015,7.6015,7.6015,7.6015,7.6015,7.6015,7.6015,7.6015,7.6015,7.6015,7.6015,7.6015,7.6015,7.6015,7.6015,7.6015,7.6015,7.6015,7.6015,7.6015,7.6015,7.6015,7.6015,7.6015,7.6015,7.6015,7.6015,7.6015,7.6015,7.6015,7.6015,7.6015,7.6015,4.6165,4.774,4.9566,4.943,0.0,0.0,0.0,5.3895,0.0,0.0,5.5107,5.5107,0.0,0.0,0.0,0.0,0.0,0.0,0.0,0.0,0.0,0.0,0.0,0.0,0.0,0.0,0.0,0.0,0.0,0.0,0.0,0.0,0.0,0.0,0.0,0.0,0.0,0.0,6.9052,6.9321,7.0167,7.0244,6.9706,7.0283,7.0667,7.0898,7.0898,7.0898,7.0898,7.0898,7.0898,7.0898,7.0898,7.0898,7.0898,7.0898,7.1283,7.1822,7.1822,7.2399,7.3129,7.3129,7.3668,7.4399,7.463,7.513,7.5668,7.5938,7.6015,7.6015,7.6015,7.6015,7.6015,7.6015,7.6015,7.6015,7.6015,7.6015,7.6015,7.6015,7.6015,7.6015,7.6015,7.6015,7.6015,7.6015,7.6015,7.6015,7.6015,7.6015,7.6015,7.6015,7.6015,7.6015,7.6015,7.6015,7.6015,7.6015,7.6015,7.6015,7.6015,7.6015,7.6015,7.6015,7.6015,7.6015,7.6015,7.6015,7.6015,7.6015,7.6015,7.6015,4.7566,4.9124,5.0817,5.1279,5.2704,5.4185,5.4839,0.0,0.0,0.0,0.0,0.0,0.0,0.0,0.0,0.0,0.0,0.0,0.0,0.0,0.0,0.0,0.0,0.0,0.0,0.0,0.0,0.0,0.0,0.0,0.0,0.0,0.0,0.0,0.0,0.0,0.0,0.0,0.0,7.0167,7.0667,7.0667,7.0206,7.0667,7.0898,7.0898,7.0898,7.0898,7.0898,7.0898,7.0898,7.0898,7.0898,7.1091,7.1398,7.1398,7.1975,7.2706,7.2706,7.3283,7.3976,7.3976,7.4553,7.5207,7.5207,7.5592,7.6015,7.6015,7.6015,7.6015,7.6015,7.6015,7.6015,7.6015,7.6015,7.6015,7.6015,7.6015,7.6015,7.6015,7.6015,7.6015,7.6015,7.6015,7.6015,7.6015,7.6015,7.6015,7.6015,7.6015,7.6015,7.6015,7.6015,7.6015,7.6015,7.6015,7.6015,7.6015,7.6015,7.6015,7.6015,7.6015,7.6015,7.6015,7.6015,7.6015,7.6015,7.6015,7.6015,7.6015,7.6015,7.6015,5.0061,5.0681,5.1491,5.382,5.3897,0.0,5.534,5.5703,5.5703,0.0,0.0,0.0,0.0,0.0,0.0,0.0,0.0,0.0,0.0,0.0,0.0,0.0,0.0,0.0,0.0,0.0,0.0,0.0,0.0,0.0,0.0,0.0,0.0,0.0,0.0,0.0,0.0,0.0,0.0,0.0,7.0898,7.0898,7.0898,7.0898,7.0898,7.0898,7.0898,7.0898,7.0898,7.0898,7.0937,7.1014,7.1014,7.1552,7.2322,7.2322,7.286,7.363,7.363,7.413,7.4822,7.4822,7.5361,7.6015,7.6015,7.6015,7.6015,7.6015,7.6015,7.6015,7.6015,7.6015,7.6015,7.6015,7.6015,7.6015,7.6015,7.6015,7.6015,7.6015,7.6015,7.6015,7.6015,7.6015,7.6015,7.6015,7.6015,7.6015,7.6015,7.6015,7.6015,7.6015,7.6015,7.6015,7.6015,7.6015,7.6015,7.6015,7.6015,7.6015,7.6015,7.6015,7.6015,7.6015,7.6015,7.6015,7.6015,7.6015,7.6015,7.6015,7.6015,7.6015,4.876,5.0624,0.0,5.3353,5.4336,5.5263,5.5626,5.5703,0.0,0.0,0.0,0.0,0.0,0.0,0.0,0.0,0.0,0.0,0.0,0.0,0.0,0.0,0.0,0.0,0.0,0.0,0.0,0.0,0.0,0.0,0.0,0.0,0.0,0.0,0.0,0.0,7.0629,7.0629,7.0744,0.0,7.0898,7.0898,7.0898,7.0898,7.0898,7.0898,7.0898,7.0898,7.0898,7.0898,7.1283,7.1898,7.1898,7.2437,7.3206,7.3206,7.3745,7.4437,7.4437,7.5014,7.5707,7.5707,7.5861,7.6015,7.6015,7.6015,7.6015,7.6015,7.6015,7.6015,7.6015,7.6015,7.6015,7.6015,7.6015,7.6015,7.6015,7.6015,7.6015,7.6015,7.6015,7.6015,7.6015,7.6015,7.6015,7.6015,7.6015,7.6015,7.6015,7.6015,7.6015,7.6015,7.6015,7.6015,7.6015,7.6015,7.6015,7.6015,7.6015,7.6015,7.6015,7.6015,7.6015,7.6015,7.6015,7.6015,7.6015,7.6015,7.6015,7.6015,7.6015,7.6015,5.022,5.1621,0.0,5.4122,0.0,5.5703,5.5703,5.5703,0.0,0.0,0.0,0.0,0.0,0.0,0.0,0.0,0.0,0.0,0.0,0.0,0.0,0.0,0.0,0.0,0.0,0.0,0.0,0.0,0.0,0.0,0.0,0.0,0.0,0.0,0.0,0.0,7.0898,7.0898,7.0898,7.0898,7.0898,7.0898,7.0898,7.0898,7.0898,7.0898,7.0898,7.1129,7.1514,7.1514,7.2052,7.2822,7.2822,7.336,7.4091,7.4091,7.4591,7.5322,7.5322,7.563,7.6015,7.6015,7.6015,7.6015,7.6015,7.6015,7.6015,7.6015,7.6015,7.6015,7.6015,7.6015,7.6015,7.6015,7.6015,7.6015,7.6015,7.6015,7.6015,7.6015,7.6015,7.6015,7.6015,7.6015,7.6015,7.6015,7.6015,7.6015,7.6015,7.6015,7.6015,7.6015,7.6015,7.6015,7.6015,7.6015,7.6015,7.6015,7.6015,7.6015,7.6015,7.6015,7.6015,7.6015,7.6015,7.6015,7.6015,7.6015,7.6015,7.6015,7.6015,7.6015,5.1624,5.2444,5.2888,5.5318,5.5818,0.0,5.5895,5.5818,0.0,0.0,0.0,0.0,0.0,0.0,0.0,0.0,0.0,0.0,0.0,0.0,0.0,0.0,0.0,0.0,0.0,0.0,0.0,0.0,0.0,0.0,0.0,0.0,0.0,0.0,0.0,7.0898,7.0898,7.0898,7.0898,7.0898,7.0898,7.0975,7.1129,7.1129,7.1129,7.1129,7.1129,7.1629,7.2399,7.2399,7.2937,7.3707,7.3707,7.4207,7.4938,7.4938,7.5399,7.6015,7.6015,7.6015,7.6015,7.6015,7.6015,7.6015,7.6015,7.6015,7.6015,7.6015,7.6015,7.6015,7.6015,7.6015,7.6015,7.6015,7.6015,7.6015,7.6015,7.6015,7.6015,7.6015,7.6015,7.6015,7.6015,7.6015,7.6015,7.6015,7.6015,7.6015,7.6015,7.6015,7.6015,7.6015,7.6015,7.6015,7.6015,7.6015,7.6015,7.6015,7.6015,7.6015,7.6015,7.6015,7.6015,7.6015,7.6015,7.6015,7.6015,7.6015,7.6015,7.6015,7.6015,7.6015,4.9048,0.0,5.3793,0.0,5.6263,5.5895,0.0,0.0,0.0,0.0,0.0,0.0,0.0,0.0,0.0,0.0,0.0,0.0,0.0,0.0,0.0,0.0,0.0,0.0,0.0,0.0,0.0,0.0,0.0,0.0,0.0,0.0,6.959,6.9706,7.0475,0.0,7.0898,7.0898,7.0898,7.0898,7.0898,7.1283,7.2014,7.2014,7.2014,7.2014,7.2014,7.2514,7.3322,7.3322,7.3822,7.4553,7.4553,7.5091,7.5822,7.5822,7.5899,7.6015,7.6015,7.6015,7.6015,7.6015,7.6015,7.6015,7.6015,7.6015,7.6015,7.6015,7.6015,7.6015,7.6015,7.6015,7.6015,7.6015,7.6015,7.6015,7.6015,7.6015,7.6015,7.6015,7.6015,7.6015,7.6015,7.6015,7.6015,7.6015,7.6015,7.6015,7.6015,7.6015,7.6015,7.6015,7.6015,7.6015,7.6015,7.6015,7.6015,7.6015,7.6015,7.6015,7.6015,7.6015,7.6015,7.6015,7.6015,7.6015,7.6015,7.6015,7.6015,7.6015,7.6015,7.6015,5.001,5.2717,5.5143,0.0,5.7126,5.6989,5.6417,0.0,0.0,0.0,0.0,0.0,0.0,0.0,0.0,0.0,0.0,0.0,0.0,0.0,0.0,0.0,0.0,0.0,0.0,0.0,0.0,0.0,0.0,0.0,0.0,6.9283,6.9898,7.036,7.0706,0.0,7.0898,7.0898,7.1168,7.1629,7.1629,7.2091,7.2937,7.2937,7.2937,7.2937,7.2937,7.3399,7.4168,7.4168,7.4668,7.5438,7.5438,7.5668,7.6015,7.6015,7.6015,7.6015,7.6015,7.6015,7.6015,7.6015,7.6015,7.6015,7.6015,7.6015,7.6015,7.6015,7.6015,7.6015,7.6015,7.6015,7.6015,7.6015,7.6015,7.6015,7.6015,7.6015,7.6015,7.6015,7.6015,7.6015,7.6015,7.6015,7.6015,7.6015,7.6015,7.6015,7.6015,7.6015,7.6015,7.6015,7.6015,7.6015,7.6015,7.6015,7.6015,7.6015,7.6015,7.6015,7.6015,7.6015,7.6015,7.6015,7.6015,7.6015,7.6015,7.6015,7.6015,7.6015,7.6015,7.6015,0.0,0.0,5.5045,5.6767,5.7582,5.7751,0.0,0.0,0.0,0.0,0.0,0.0,0.0,0.0,0.0,0.0,0.0,0.0,0.0,0.0,0.0,0.0,0.0,0.0,0.0,0.0,0.0,0.0,0.0,0.0,6.9629,6.9937,7.036,7.0975,7.0975,7.0975,7.0975,7.1129,7.1552,7.2206,7.2399,7.2976,7.3822,7.3822,7.3937,7.413,7.3899,7.4284,7.5014,7.5014,7.5399,7.6015,7.6015,7.6015,7.6015,7.6015,7.6015,7.6015,7.6015,7.6015,7.6015,7.6015,7.6015,7.6015,7.6015,7.6015,7.6015,7.6015,7.6015,7.6015,7.6015,7.6015,7.6015,7.6015,7.6015,7.6015,7.6015,7.6015,7.6015,7.6015,7.6015,7.6015,7.6015,7.6015,7.6015,7.6015,7.6015,7.6015,7.6015,7.6015,7.6015,7.6015,7.6015,7.6015,7.6015,7.6015,7.6015,7.6015,7.6015,7.6015,7.6015,7.6015,7.6015,7.6015,7.6207,7.6207,7.6015,7.6015,7.6015,7.6015,7.6015,7.6015,0.0,5.0624,0.0,5.6213,5.7128,0.0,0.0,0.0,0.0,0.0,0.0,0.0,0.0,0.0,0.0,0.0,0.0,0.0,0.0,0.0,0.0,0.0,0.0,0.0,0.0,0.0,0.0,0.0,0.0,0.0,6.9706,7.0591,7.1129,7.1168,7.1168,7.1168,7.1168,7.1822,7.2168,7.2206,7.3053,7.386,7.463,7.463,7.5091,7.5822,7.5014,7.513,7.5938,7.5938,7.5976,7.6015,7.6015,7.6015,7.6015,7.6015,7.6015,7.6015,7.6015,7.6015,7.6015,7.6015,7.6015,7.6015,7.6015,7.6015,7.6015,7.6015,7.6015,7.6015,7.6015,7.6015,7.6015,7.6015,7.6015,7.6015,7.6015,7.6015,7.6015,7.6015,7.6015,7.6015,7.6015,7.6015,7.6015,7.6015,7.6015,7.6015,7.6015,7.6015,7.6015,7.6015,7.6015,7.6015,7.6015,7.6015,7.6015,7.6015,7.6015,7.6015,7.6015,7.6015,7.6015,7.6015,7.6823,7.6823,7.6015,7.6015,7.6015,7.6015,7.6015,7.6015,0.0,0.0,0.0,5.4939,5.6867,5.7943,0.0,0.0,0.0,0.0,0.0,0.0,0.0,0.0,0.0,0.0,0.0,0.0,0.0,0.0,0.0,0.0,0.0,0.0,0.0,0.0,0.0,0.0,0.0,0.0,7.0629,7.0975,7.126,7.1397,7.1415,7.1584,7.2014,7.2283,7.286,7.3822,7.413,7.4707,7.5515,7.5515,7.5707,7.5976,7.5668,7.5707,7.6015,7.6015,7.6015,7.6015,7.6015,7.6015,7.6015,7.6015,7.6015,7.6015,7.6015,7.6015,7.6015,7.6015,7.6015,7.6015,7.6015,7.6015,7.6015,7.6015,7.6015,7.6015,7.6015,7.6015,7.6015,7.6015,7.6015,7.6015,7.6015,7.6015,7.6015,7.6015,7.6015,7.6015,7.6015,7.6015,7.6015,7.6015,7.6015,7.6015,7.6015,7.6015,7.6015,7.6015,7.6015,7.6015,7.6015,7.6015,7.6245,7.6784,7.6322,7.6245,7.6823,7.6284,7.6245,7.6823,7.713,7.6861,7.6015,7.7092,7.7323,7.6823,7.6823,7.6823,4.8164,0.0,0.0,0.0,0.0,0.0,0.0,0.0,0.0,0.0,0.0,0.0,0.0,0.0,0.0,0.0,0.0,0.0,0.0,0.0,0.0,0.0,0.0,0.0,0.0,0.0,0.0,0.0,0.0,0.0,7.1245,7.1323,7.1377,7.1546,7.1828,7.2185,7.26,7.3112,7.3822,7.4784,7.5014,7.5438,7.6015,7.6015,7.6015,7.6015,7.6015,7.6015,7.6015,7.6015,7.6015,7.6015,7.6015,7.6015,7.6015,7.6015,7.6015,7.6015,7.6015,7.6015,7.6015,7.6015,7.6015,7.6015,7.6015,7.6015,7.6015,7.6015,7.6015,7.6015,7.6015,7.6015,7.6015,7.6015,7.6015,7.6015,7.6015,7.6015,7.6015,7.6015,7.6015,7.6015,7.6015,7.6015,7.6015,7.6015,7.6015,7.6015,7.6015,7.6015,7.6015,7.6015,7.6015,7.613,7.6399,7.6169,7.6476,7.763,7.6899,7.6707,7.7284,7.7015,7.6976,7.7284,7.7861,7.7707,7.6823,7.7938,7.8207,7.7707,7.7707,7.7707,0.0,0.0,0.0,0.0,0.0,0.0,0.0,0.0,0.0,0.0,0.0,0.0,0.0,0.0,0.0,0.0,0.0,0.0,0.0,0.0,0.0,0.0,0.0,0.0,0.0,0.0,0.0,0.0,0.0,7.131,7.1503,7.1493,7.1594,7.1757,7.2578,7.2983,7.2874,7.4309,7.5033,7.5082,7.5707,7.6015,7.6015,7.6015,7.6015,7.6015,7.6015,7.6015,7.6015,7.6015,7.6015,7.6015,7.6015,7.6015,7.6015,7.6015,7.6015,7.6015,7.6015,7.6015,7.6015,7.6015,7.6015,7.6015,7.6015,7.6015,7.6015,7.6015,7.6015,7.6015,7.6015,7.6015,7.6015,7.6015,7.6015,7.6015,7.6015,7.6015,7.6015,7.6015,7.6015,7.6015,7.6015,7.6015,7.6015,7.6015,7.6015,7.6015,7.6015,7.6015,7.6015,7.6015,7.6015,7.6361,7.7207,7.6515,7.6746,7.8438,7.7784,7.7361,7.7361,7.8092,7.813,7.74,7.8977,7.94,7.8554,7.8554,7.8554,7.8515,7.8515,7.8515,4.6055,0.0,0.0,0.0,0.0,0.0,0.0,0.0,0.0,0.0,0.0,0.0,0.0,0.0,0.0,0.0,0.0,0.0,0.0,0.0,0.0,0.0,0.0,0.0,0.0,0.0,0.0,0.0,0.0,7.1474,7.1645,7.177,7.2176,7.2851,7.3086,7.3748,7.4822,7.5215,7.5658,7.6159,7.6352,7.6399,7.6399,7.6399,7.6399,7.6399,7.6284,7.6207,7.6207,7.6053,7.6015,7.6015,7.6015,7.6015,7.6015,7.6015,7.6015,7.6015,7.6015,7.6015,7.6015,7.6015,7.6015,7.6015,7.6015,7.6015,7.6015,7.6015,7.6015,7.6015,7.6015,7.6015,7.6015,7.6015,7.6015,7.6015,7.6015,7.6015,7.6015,7.6015,7.6015,7.6015,7.6015,7.6015,7.6015,7.6015,7.6015,7.6015,7.6015,7.6015,7.6015,7.6015,7.6015,7.6361,7.7207,7.7092,7.7669,7.9323,7.8631,7.8438,7.9092,7.8707,7.8669,7.9092,7.9554,7.9977,8.0362,8.0362,8.0054,7.9438,7.9438,7.9092,0.0,0.0,0.0,0.0,0.0,0.0,0.0,0.0,0.0,0.0,0.0,0.0,0.0,0.0,0.0,0.0,0.0,0.0,0.0,0.0,0.0,0.0,0.0,0.0,0.0,0.0,0.0,0.0,7.1628,7.1601,7.171,7.2238,7.2773,7.3281,7.4023,7.4805,7.5703,7.6015,7.632,7.6704,7.6648,7.6614,7.6614,7.6614,7.6614,7.6614,7.6403,7.6288,7.6284,7.6092,7.6015,7.6015,7.6015,7.6015,7.6015,7.6015,7.6015,7.6015,7.6015,7.6015,7.6015,7.6015,7.6015,7.6015,7.6015,7.6015,7.6015,7.6092,7.6169,7.6245,7.6245,7.6245,7.6207,7.613,7.613,7.6092,7.6015,7.6015,7.6015,7.6015,7.6015,7.6015,7.6015,7.6015,7.6015,7.6015,7.6015,7.6015,7.6015,7.6015,7.613,7.6515,7.6553,7.7015,7.8246,7.8015,7.8515,8.0246,7.9515,7.9285,7.9785,7.9669,7.9631,7.9823,8.0169,8.0592,8.1093,8.1093,8.0823,8.0323,8.0323,8.0054,0.0,0.0,0.0,0.0,0.0,0.0,0.0,0.0,0.0,0.0,0.0,0.0,0.0,0.0,0.0,0.0,0.0,0.0,0.0,0.0,0.0,0.0,0.0,0.0,0.0,0.0,0.0,7.1992,7.1836,7.1721,7.1742,7.2743,7.3359,7.3437,7.5039,7.5937,7.6055,7.664,7.6914,7.6914,7.6769,7.6677,7.6677,7.6677,7.6677,7.6677,7.6454,7.6382,7.6322,7.613,7.6053,7.6015,7.6015,7.6015,7.6015,7.6015,7.6015,7.6015,7.6015,7.6015,7.6015,7.6053,7.6053,7.6015,7.6015,7.6015,7.6082,7.6283,7.6465,7.6619,7.6619,7.6619,7.6542,7.6388,7.6303,7.6245,7.6053,7.6015,7.6015,7.6015,7.6015,7.6015,7.6015,7.6015,7.6015,7.6015,7.6015,7.6015,7.6015,7.6015,7.6322,7.7207,7.7284,7.7977,7.9669,7.9092,7.9361,8.1016,8.0362,7.9939,7.9939,8.0708,8.0746,7.9977,8.0708,8.1093,8.1093,8.1093,8.1093,8.1093,8.1093,8.1093,0.0,0.0,0.0,0.0,0.0,0.0,0.0,0.0,0.0,0.0,0.0,0.0,0.0,0.0,0.0,0.0,0.0,0.0,0.0,0.0,0.0,0.0,0.0,0.0,0.0,0.0,7.1992,7.1992,7.1953,7.1949,7.1953,7.2806,7.3633,7.4336,7.5351,7.625,7.6953,7.707,7.7148,7.7148,7.7105,7.7097,7.7097,7.7097,7.7097,7.7055,7.6855,7.6769,7.6775,7.6583,7.6284,7.6015,7.6015,7.6015,7.6015,7.6015,7.6015,7.6015,7.6169,7.613,7.6053,7.6361,7.6245,7.6015,7.6169,7.6245,7.6272,7.6458,7.657,7.6609,7.6609,7.6609,7.657,7.6531,7.6436,7.6284,7.6245,7.6092,7.6015,7.6015,7.6015,7.6015,7.6015,7.6015,7.6015,7.6015,7.6015,7.6015,7.6015,7.6015,7.6322,7.7207,7.7284,7.7977,7.9669,7.9631,7.9977,8.1016,8.0939,8.0862,8.0862,8.1016,8.1016,8.0862,8.1016,8.1093,8.1093,8.1093,8.1093,8.1093,8.1093,8.1093,0.0,0.0,0.0,5.3359,0.0,0.0,0.0,0.0,0.0,0.0,0.0,0.0,0.0,0.0,0.0,0.0,0.0,0.0,0.0,0.0,0.0,0.0,0.0,0.0,0.0,0.0,7.1992,7.1992,7.1992,7.1992,7.1992,7.3242,7.414,7.4609,7.5859,7.6758,7.7187,7.7187,7.7187,7.7187,7.7187,7.7187,7.7187,7.7187,7.7187,7.7187,7.7004,7.6898,7.6881,7.6683,7.6488,7.6311,7.6272,7.6284,7.6284,7.6284,7.6284,7.6284,7.6399,7.6379,7.6327,7.6542,7.6456,7.6305,7.6398,7.6544,7.6601,7.673,7.6801,7.6919,7.6919,7.6919,7.688,7.6763,7.6671,7.6588,7.6453,7.6284,7.613,7.613,7.6053,7.6015,7.6015,7.6015,7.6015,7.6015,7.6015,7.6015,7.6015,7.6361,7.6976,7.7823,7.8284,7.9054,8.0323,8.0439,8.0631,8.1054,8.1093,8.1093,8.1093,8.1093,8.1093,8.1093,8.1093,8.1093,8.1093,8.1093,8.1093,8.1093,8.1093,8.1093,0.0,0.0,0.0,0.0,0.0,5.3867,0.0,0.0,0.0,0.0,0.0,0.0,0.0,0.0,0.0,0.0,0.0,0.0,0.0,0.0,0.0,0.0,0.0,0.0,0.0,0.0,7.1484,7.1953,7.1562,7.1562,7.2226,7.375,7.4687,7.4844,7.6367,7.7187,7.7187,7.7187,7.7187,7.7187,7.7187,7.7187,7.7187,7.7187,7.7187,7.7187,7.7031,7.6965,7.6962,7.6782,7.6738,7.6708,7.663,7.6584,7.6584,7.6584,7.6584,7.6596,7.6611,7.6637,7.6599,7.6683,7.6691,7.665,7.6675,7.6775,7.691,7.6944,7.7065,7.7187,7.7187,7.7187,7.7148,7.6992,7.6914,7.6848,7.671,7.6494,7.6338,7.6352,7.6207,7.6053,7.6015,7.6015,7.6015,7.6015,7.6015,7.6053,7.6053,7.6823,7.7669,7.8477,7.9285,8.0169,8.1016,8.1093,8.1093,8.1093,8.1093,8.1093,8.1093,8.1093,8.1093,8.1093,8.1093,8.1093,8.1093,8.1093,8.1093,8.1093,8.1093,8.1093,0.0,0.0,0.0,0.0,5.6328,0.0,0.0,0.0,0.0,0.0,0.0,0.0,0.0,0.0,0.0,0.0,0.0,0.0,0.0,0.0,0.0,0.0,0.0,0.0,0.0,0.0,0.0,7.1836,6.9922,6.9961,7.3008,7.4062,7.4961,7.5742,7.668,7.7187,7.7187,7.7187,7.7187,7.7187,7.7187,7.7187,7.7187,7.7187,7.7187,7.7187,7.7187,7.7186,7.7165,7.7128,7.7127,7.7088,7.6731,7.6582,7.6582,7.6582,7.6582,7.6609,7.6804,7.6753,7.666,7.7042,7.7024,7.6878,7.6862,7.689,7.6932,7.7137,7.7183,7.7187,7.7187,7.7187,7.7187,7.7187,7.7031,7.6874,7.6863,7.6692,7.6594,7.658,7.6399,7.6207,7.6015,7.6015,7.6015,7.6015,7.613,7.6245,7.6245,7.7015,7.7861,7.8707,7.94,8.0169,8.1016,8.1093,8.1093,8.1093,8.1093,8.1093,8.1093,8.1093,8.1093,8.1093,8.1093,8.1093,8.1093,8.1093,8.1093,8.1093,8.1093,8.1093,0.0,0.0,0.0,0.0,0.0,0.0,0.0,0.0,5.5312,0.0,0.0,0.0,0.0,0.0,0.0,0.0,0.0,0.0,0.0,0.0,0.0,0.0,0.0,0.0,0.0,0.0,0.0,0.0,0.0,7.0195,7.3125,7.414,7.5,7.5859,7.6758,7.7187,7.7187,7.7187,7.7187,7.7187,7.7187,7.7187,7.7187,7.7187,7.7187,7.7187,7.7187,7.7187,7.7187,7.72,7.7212,7.7173,7.7017,7.6939,7.6939,7.6939,7.6939,7.6972,7.7022,7.7024,7.6978,7.7134,7.7133,7.7067,7.7053,7.7065,7.7072,7.7181,7.7187,7.7187,7.7187,7.7187,7.7187,7.7187,7.7148,7.7226,7.7734,7.768,7.7657,7.8142,7.8089,7.796,7.7862,7.7314,7.7121,7.7766,7.792,7.7985,7.7965,7.8706,7.9308,7.9537,8.0246,8.0823,8.1093,8.1093,8.1093,8.1093,8.1093,8.1093,8.1093,8.1093,8.1093,8.1093,8.1093,8.1093,8.1093,8.1093,8.1093,8.1093,8.1093,8.1093,5.793,0.0,0.0,0.0,0.0,0.0,0.0,0.0,0.0,0.0,0.0,0.0,0.0,0.0,0.0,0.0,0.0,0.0,0.0,0.0,0.0,0.0,0.0,0.0,0.0,0.0,0.0,0.0,0.0,0.0,7.3476,7.4258,7.5117,7.6211,7.6875,7.7187,7.7187,7.7187,7.7187,7.7187,7.7187,7.7187,7.7187,7.7187,7.7187,7.7187,7.7187,7.7187,7.7187,7.7187,7.7187,7.7187,7.7187,7.7187,7.7187,7.7187,7.7187,7.7187,7.7187,7.7187,7.7187,7.7187,7.7187,7.7187,7.7187,7.7187,7.7187,7.7187,7.7187,7.7187,7.7187,7.7187,7.7265,7.75,7.7578,7.7773,7.8633,7.8711,7.8766,7.9349,7.9346,7.9346,7.9632,7.8772,7.8296,7.9069,7.9246,7.9262,7.9253,7.9973,8.0429,8.0256,8.0933,8.1323,8.117,8.1131,8.1093,8.1093,8.1093,8.1093,8.1093,8.1093,8.1093,8.1093,8.1093,8.1093,8.1093,8.1093,8.1093,8.1093,8.1093,8.1093,0.0,0.0,0.0,0.0,0.0,0.0,0.0,0.0,5.6797,0.0,0.0,0.0,0.0,0.0,0.0,0.0,0.0,0.0,0.0,0.0,0.0,0.0,0.0,0.0,0.0,0.0,0.0,0.0,0.0,0.0,7.4258,7.457,7.539,7.7109,7.7187,7.7187,7.7187,7.7187,7.7187,7.7187,7.7187,7.7187,7.7187,7.7187,7.7187,7.7187,7.7187,7.7187,7.7187,7.7187,7.7187,7.7187,7.7187,7.7187,7.7187,7.7187,7.7187,7.7187,7.7187,7.7187,7.7187,7.7187,7.7187,7.7187,7.7187,7.7187,7.7187,7.7187,7.7187,7.7187,7.7187,7.7187,7.7422,7.8242,7.8476,7.8672,7.9492,7.9648,7.9648,7.9687,7.9518,7.9696,8.0779,7.9946,7.9151,7.919,7.9292,7.9404,7.9365,8.0156,8.0702,8.0663,8.1097,8.14,8.1362,8.1208,8.1093,8.1093,8.1093,8.1093,8.1093,8.1093,8.1093,8.1093,8.1093,8.1093,8.1093,8.1093,8.1093,8.1093,8.1093,8.1093,0.0,0.0,6.332,6.0976,0.0,0.0,0.0,0.0,0.0,0.0,0.0,0.0,0.0,0.0,0.0,0.0,0.0,0.0,0.0,0.0,0.0,0.0,0.0,0.0,0.0,0.0,0.0,0.0,0.0,0.0,0.0,7.4609,7.539,7.7148,7.7187,7.7187,7.7187,7.7187,7.7187,7.7187,7.7187,7.7187,7.7187,7.7187,7.7187,7.7187,7.7187,7.7187,7.7187,7.7187,7.7187,7.7187,7.7187,7.7187,7.7187,7.7187,7.7187,7.7187,7.7187,7.7187,7.7187,7.7187,7.7187,7.7187,7.7187,7.7187,7.7187,7.7187,7.7187,7.7344,7.789,7.8047,7.8281,7.9101,7.9297,7.9531,8.039,8.0547,8.0742,8.1328,8.1358,8.1441,8.1802,8.1502,8.1252,8.1265,8.129,8.1314,8.1314,8.1578,8.1709,8.1568,8.1554,8.1538,8.1424,8.1208,8.1093,8.1093,8.1093,8.1093,8.1093,8.1093,8.1093,8.1093,8.1093,8.1093,8.1093,8.1093,8.1093,8.1093,8.1093,8.1093,6.3398,6.4101,0.0,0.0,6.1758,0.0,0.0,0.0,0.0,0.0,0.0,0.0,0.0,0.0,0.0,0.0,0.0,0.0,0.0,5.9648,0.0,0.0,0.0,0.0,0.0,0.0,0.0,0.0,0.0,0.0,0.0,0.0,7.539,7.7148,7.7187,7.7187,7.7187,7.7187,7.7187,7.7187,7.7187,7.7187,7.7187,7.7187,7.7187,7.7187,7.7187,7.7187,7.7187,7.7187,7.7187,7.7187,7.7187,7.7187,7.7187,7.7187,7.7187,7.7187,7.7187,7.7187,7.7187,7.7187,7.7187,7.7187,7.7187,7.7187,7.7187,7.7187,7.7422,7.7773,7.8359,7.8711,7.914,7.9961,8.0156,8.039,8.1289,8.1445,8.164,8.2187,8.2304,8.2304,8.2304,8.2279,8.2309,8.23,8.2304,8.2304,8.2304,8.2287,8.222,8.2008,8.183,8.1601,8.1308,8.117,8.1093,8.1093,8.1093,8.1131,8.1208,8.1208,8.1054,8.0746,8.1054,8.1016,8.0631,8.0939,8.1093,8.1093,8.1093,8.1093]},{"header":{"parameterUnit":"m.s-1","parameterCategory":1,"la1":30.6,"la2":29.2853,"lo1":-89.7004,"lo2":-87.6739,"dx":0.0162,"dy":0.0183,"nx":112,"ny":82,"refTime":"2022-12-24T18:00:00:Z","depth":0,"parameterNumber":3,"parameterNumberName":"V-component_of_WINDS"},"data":[0.0,0.0,0.0,0.0,0.0,0.0,0.0,0.0,0.0,0.0,0.0,0.0,0.0,0.0,0.0,0.0,0.0,0.0,0.0,0.0,0.0,0.0,0.0,0.0,0.0,0.0,0.0,0.0,0.0,0.0,0.0,0.0,0.0,0.0,0.0,0.0,0.0,0.0,0.0,0.0,0.0,0.0,0.0,0.0,0.0,0.0,0.0,0.0,0.0,0.0,0.0,0.0,0.0,0.0,0.0,0.0,0.0,0.0,0.0,0.0,0.0,0.0,0.0,0.0,0.0,0.0,0.0,0.0,0.0,0.0,0.0,0.0,0.0,0.0,0.0,0.0,0.0,0.0,0.0,0.0,0.0,0.0,0.0,0.0,0.0,0.0,0.0,0.0,0.0,0.0,0.0,-2.1103,-2.1273,-2.0861,-1.9806,-2.1996,-2.2423,-2.0093,0.0,0.0,0.0,0.0,0.0,0.0,0.0,0.0,0.0,0.0,0.0,0.0,0.0,0.0,0.0,0.0,0.0,0.0,0.0,0.0,0.0,0.0,0.0,0.0,0.0,0.0,0.0,0.0,0.0,0.0,0.0,0.0,0.0,0.0,0.0,0.0,0.0,0.0,0.0,0.0,0.0,0.0,0.0,0.0,0.0,0.0,0.0,0.0,0.0,0.0,0.0,0.0,0.0,0.0,0.0,0.0,0.0,0.0,0.0,0.0,0.0,0.0,0.0,0.0,0.0,0.0,0.0,0.0,0.0,0.0,0.0,0.0,0.0,0.0,0.0,0.0,0.0,0.0,0.0,0.0,0.0,0.0,0.0,0.0,0.0,0.0,0.0,0.0,0.0,0.0,0.0,0.0,0.0,0.0,0.0,0.0,0.0,0.0,0.0,0.0,0.0,0.0,0.0,0.0,-2.124,-2.1038,-2.0342,-1.9955,-2.0031,-2.121,-2.1667,-2.0766,0.0,0.0,0.0,0.0,0.0,0.0,0.0,0.0,0.0,0.0,0.0,0.0,0.0,0.0,0.0,0.0,0.0,0.0,0.0,0.0,0.0,0.0,0.0,0.0,0.0,0.0,0.0,0.0,0.0,0.0,0.0,0.0,0.0,0.0,0.0,0.0,0.0,0.0,0.0,0.0,0.0,0.0,0.0,0.0,0.0,0.0,0.0,0.0,0.0,0.0,0.0,0.0,0.0,0.0,0.0,0.0,0.0,0.0,0.0,0.0,0.0,0.0,0.0,0.0,0.0,0.0,0.0,0.0,0.0,0.0,0.0,0.0,0.0,0.0,0.0,0.0,0.0,0.0,0.0,0.0,0.0,0.0,0.0,0.0,0.0,0.0,0.0,0.0,0.0,0.0,0.0,0.0,0.0,0.0,0.0,0.0,0.0,0.0,0.0,0.0,0.0,0.0,0.0,-1.9702,-2.0082,-2.0216,-1.9286,-1.8823,-1.8977,-2.0257,-2.0756,-1.9887,-2.0604,0.0,0.0,0.0,0.0,0.0,0.0,0.0,0.0,0.0,0.0,0.0,0.0,0.0,0.0,0.0,0.0,0.0,0.0,0.0,0.0,0.0,0.0,0.0,0.0,0.0,0.0,0.0,0.0,0.0,0.0,0.0,0.0,0.0,0.0,0.0,0.0,0.0,0.0,0.0,0.0,0.0,0.0,0.0,0.0,0.0,0.0,0.0,0.0,0.0,0.0,0.0,0.0,0.0,0.0,0.0,0.0,0.0,0.0,0.0,0.0,0.0,0.0,0.0,0.0,0.0,0.0,0.0,0.0,0.0,0.0,0.0,0.0,0.0,0.0,0.0,0.0,0.0,0.0,0.0,0.0,0.0,0.0,0.0,0.0,0.0,0.0,0.0,0.0,0.0,0.0,0.0,0.0,0.0,0.0,0.0,0.0,0.0,0.0,0.0,0.0,0.0,0.0,-1.9356,-1.8931,-1.9627,-1.88,-1.8183,-1.825,-1.9671,-2.0135,-1.9239,-1.9877,0.0,0.0,0.0,0.0,0.0,0.0,0.0,0.0,0.0,0.0,0.0,0.0,0.0,0.0,0.0,0.0,0.0,0.0,0.0,0.0,0.0,0.0,0.0,0.0,0.0,0.0,0.0,0.0,0.0,0.0,0.0,0.0,0.0,0.0,0.0,0.0,0.0,0.0,0.0,0.0,0.0,0.0,0.0,0.0,0.0,0.0,0.0,0.0,0.0,0.0,0.0,0.0,0.0,0.0,0.0,0.0,0.0,0.0,0.0,0.0,0.0,0.0,0.0,0.0,0.0,0.0,0.0,0.0,0.0,0.0,0.0,0.0,0.0,0.0,0.0,0.0,0.0,0.0,0.0,0.0,0.0,0.0,0.0,0.0,0.0,0.0,0.0,0.0,0.0,0.0,0.0,0.0,0.0,0.0,0.0,0.0,0.0,0.0,0.0,0.0,0.0,0.0,-1.8343,-1.7997,-1.9911,-1.9122,-1.8571,-1.8838,-1.9804,-2.0332,-1.9925,-2.0167,0.0,0.0,0.0,0.0,0.0,0.0,0.0,0.0,0.0,0.0,0.0,0.0,0.0,0.0,0.0,0.0,0.0,0.0,0.0,0.0,0.0,0.0,0.0,0.0,0.0,0.0,0.0,0.0,0.0,0.0,0.0,0.0,0.0,0.0,0.0,0.0,0.0,0.0,0.0,0.0,0.0,0.0,0.0,0.0,0.0,0.0,0.0,0.0,0.0,0.0,0.0,0.0,0.0,0.0,0.0,0.0,0.0,0.0,0.0,0.0,0.0,0.0,0.0,0.0,0.0,0.0,0.0,0.0,0.0,0.0,0.0,0.0,0.0,0.0,0.0,0.0,0.0,0.0,0.0,0.0,0.0,0.0,0.0,0.0,0.0,0.0,0.0,0.0,0.0,0.0,0.0,0.0,0.0,0.0,0.0,0.0,0.0,0.0,0.0,0.0,0.0,0.0,-1.8127,-1.8076,0.0,-1.8795,-1.8811,-1.8918,-1.9426,-1.986,-2.0021,0.0,0.0,0.0,0.0,0.0,0.0,0.0,0.0,0.0,0.0,0.0,0.0,0.0,0.0,0.0,0.0,0.0,0.0,0.0,0.0,0.0,0.0,0.0,0.0,0.0,0.0,0.0,0.0,0.0,0.0,0.0,0.0,0.0,0.0,0.0,0.0,0.0,0.0,0.0,0.0,0.0,0.0,0.0,0.0,0.0,0.0,0.0,0.0,0.0,0.0,0.0,0.0,0.0,0.0,0.0,0.0,0.0,0.0,0.0,0.0,0.0,0.0,0.0,0.0,0.0,0.0,0.0,0.0,0.0,0.0,0.0,0.0,0.0,0.0,0.0,0.0,0.0,0.0,0.0,0.0,0.0,0.0,0.0,0.0,0.0,0.0,0.0,0.0,0.0,0.0,0.0,0.0,0.0,0.0,0.0,0.0,0.0,0.0,0.0,0.0,0.0,0.0,-1.7792,-1.7927,-1.8109,0.0,-1.8718,-1.9065,-1.9065,-1.9252,-1.9583,-1.994,0.0,0.0,0.0,0.0,0.0,0.0,0.0,0.0,0.0,0.0,0.0,0.0,0.0,0.0,0.0,0.0,0.0,0.0,0.0,0.0,0.0,0.0,0.0,0.0,0.0,0.0,0.0,0.0,0.0,0.0,0.0,0.0,0.0,0.0,0.0,0.0,0.0,0.0,0.0,0.0,0.0,0.0,0.0,0.0,0.0,0.0,0.0,0.0,0.0,0.0,0.0,0.0,0.0,0.0,0.0,0.0,0.0,0.0,0.0,0.0,0.0,0.0,0.0,0.0,0.0,0.0,0.0,0.0,0.0,0.0,0.0,0.0,0.0,0.0,0.0,0.0,0.0,0.0,0.0,0.0,0.0,0.0,0.0,0.0,0.0,0.0,0.0,0.0,0.0,0.0,0.0,0.0,0.0,0.0,0.0,0.0,0.0,0.0,0.0,0.0,0.0,0.0,-1.7786,-1.7924,-1.8143,-1.8464,-1.9025,-1.9372,-1.9372,-1.9372,-1.9583,0.0,0.0,0.0,0.0,0.0,0.0,0.0,0.0,0.0,0.0,0.0,0.0,0.0,0.0,0.0,0.0,0.0,0.0,0.0,0.0,0.0,0.0,0.0,0.0,0.0,0.0,0.0,0.0,0.0,0.0,0.0,0.0,0.0,0.0,0.0,0.0,0.0,0.0,0.0,0.0,0.0,0.0,0.0,0.0,0.0,0.0,0.0,0.0,0.0,0.0,0.0,0.0,0.0,0.0,0.0,0.0,0.0,0.0,0.0,0.0,0.0,0.0,0.0,0.0,0.0,0.0,0.0,0.0,0.0,0.0,0.0,0.0,0.0,0.0,0.0,0.0,0.0,0.0,0.0,0.0,0.0,0.0,0.0,0.0,0.0,0.0,0.0,0.0,0.0,0.0,0.0,0.0,0.0,0.0,0.0,0.0,0.0,0.0,0.0,0.0,0.0,0.0,0.0,0.0,-1.7862,-1.8464,-1.8771,-1.9145,-1.9372,-1.9372,-1.9372,-1.9251,-1.8874,0.0,0.0,0.0,0.0,0.0,0.0,0.0,0.0,0.0,0.0,0.0,0.0,0.0,0.0,0.0,0.0,0.0,0.0,0.0,0.0,0.0,0.0,0.0,0.0,0.0,0.0,0.0,0.0,0.0,0.0,0.0,0.0,0.0,0.0,0.0,0.0,0.0,0.0,0.0,0.0,0.0,0.0,0.0,0.0,0.0,0.0,0.0,0.0,0.0,0.0,0.0,0.0,0.0,0.0,0.0,0.0,0.0,0.0,0.0,0.0,0.0,0.0,0.0,0.0,0.0,0.0,0.0,0.0,0.0,0.0,0.0,0.0,0.0,0.0,0.0,0.0,0.0,0.0,0.0,0.0,0.0,0.0,0.0,0.0,0.0,0.0,0.0,0.0,0.0,0.0,0.0,0.0,0.0,0.0,0.0,0.0,0.0,0.0,0.0,0.0,0.0,0.0,-1.686,-1.7798,-1.8597,-1.8891,-1.9185,-1.9372,-1.9372,-1.9372,-1.9193,-1.8847,0.0,0.0,0.0,0.0,0.0,0.0,0.0,0.0,0.0,0.0,0.0,0.0,0.0,0.0,0.0,0.0,0.0,0.0,0.0,0.0,0.0,0.0,0.0,0.0,0.0,0.0,0.0,0.0,0.0,0.0,0.0,0.0,0.0,0.0,0.0,0.0,0.0,0.0,0.0,0.0,0.0,0.0,0.0,0.0,0.0,0.0,0.0,0.0,0.0,0.0,0.0,0.0,0.0,0.0,0.0,0.0,0.0,0.0,0.0,0.0,0.0,0.0,0.0,0.0,0.0,0.0,0.0,0.0,0.0,0.0,0.0,0.0,0.0,0.0,0.0,0.0,0.0,0.0,0.0,0.0,0.0,0.0,0.0,0.0,0.0,0.0,0.0,0.0,0.0,0.0,0.0,0.0,0.0,0.0,0.0,0.0,0.0,0.0,0.0,0.0,0.0,0.0,-1.6857,-1.7764,-1.8637,-1.8931,-1.9199,-1.9372,-1.9372,-1.9399,-1.9467,-1.9613,0.0,0.0,0.0,0.0,0.0,0.0,0.0,0.0,0.0,0.0,0.0,0.0,0.0,0.0,0.0,0.0,0.0,0.0,0.0,0.0,0.0,0.0,0.0,0.0,0.0,0.0,0.0,0.0,0.0,0.0,0.0,0.0,0.0,0.0,0.0,0.0,0.0,0.0,0.0,0.0,0.0,0.0,0.0,0.0,0.0,0.0,0.0,0.0,0.0,0.0,0.0,0.0,0.0,0.0,0.0,0.0,0.0,0.0,0.0,0.0,-1.312,0.0,0.0,0.0,0.0,0.0,0.0,0.0,0.0,0.0,0.0,0.0,0.0,0.0,0.0,0.0,0.0,0.0,0.0,0.0,0.0,0.0,0.0,0.0,0.0,0.0,0.0,0.0,0.0,0.0,0.0,0.0,0.0,0.0,0.0,0.0,0.0,0.0,0.0,0.0,0.0,0.0,-1.6484,-1.7795,-1.8945,-1.9239,-1.9332,-1.9372,-1.9372,-1.9573,-1.9448,-1.8768,0.0,0.0,0.0,0.0,0.0,0.0,0.0,0.0,0.0,0.0,0.0,0.0,0.0,0.0,0.0,0.0,0.0,0.0,0.0,0.0,0.0,0.0,0.0,0.0,0.0,0.0,0.0,0.0,0.0,0.0,0.0,0.0,0.0,0.0,0.0,0.0,0.0,0.0,0.0,0.0,0.0,0.0,0.0,0.0,0.0,0.0,0.0,0.0,0.0,0.0,0.0,0.0,0.0,0.0,0.0,0.0,0.0,0.0,0.0,0.0,0.0,-1.4097,0.0,0.0,0.0,0.0,0.0,0.0,0.0,0.0,0.0,0.0,0.0,0.0,0.0,0.0,0.0,0.0,0.0,0.0,0.0,0.0,0.0,0.0,0.0,0.0,0.0,0.0,0.0,0.0,0.0,0.0,0.0,0.0,0.0,0.0,0.0,0.0,0.0,0.0,0.0,0.0,-1.6386,-1.7822,-1.9038,-1.9332,-1.9372,-1.9426,-1.9559,-1.972,-1.9666,-1.9345,-1.922,0.0,0.0,0.0,0.0,0.0,0.0,0.0,0.0,0.0,0.0,0.0,0.0,0.0,0.0,0.0,0.0,0.0,0.0,0.0,0.0,0.0,0.0,0.0,0.0,0.0,0.0,0.0,0.0,0.0,0.0,0.0,0.0,0.0,0.0,0.0,0.0,0.0,0.0,0.0,0.0,0.0,0.0,0.0,0.0,0.0,0.0,0.0,0.0,0.0,0.0,0.0,0.0,0.0,0.0,0.0,-1.6962,-1.728,-1.6945,-1.5869,-1.4919,-1.5147,-1.601,0.0,0.0,0.0,0.0,0.0,0.0,0.0,0.0,0.0,0.0,0.0,0.0,0.0,0.0,0.0,0.0,0.0,0.0,0.0,0.0,0.0,0.0,0.0,0.0,0.0,-1.5484,-1.5498,0.0,0.0,0.0,0.0,0.0,0.0,0.0,0.0,0.0,0.0,0.0,0.0,-1.6437,-1.7929,-1.9092,-1.9345,-1.9412,-1.9546,-1.9773,-1.9893,-2.0054,-2.0294,-1.9626,-1.9353,0.0,0.0,0.0,0.0,0.0,0.0,0.0,0.0,0.0,0.0,0.0,0.0,0.0,0.0,0.0,0.0,0.0,0.0,0.0,0.0,0.0,0.0,0.0,0.0,0.0,0.0,0.0,0.0,0.0,0.0,0.0,0.0,0.0,-1.7584,0.0,0.0,0.0,0.0,0.0,0.0,0.0,0.0,0.0,0.0,0.0,0.0,0.0,0.0,-1.597,-1.7841,-1.8758,-1.8758,-2.0483,-2.0678,-1.9372,-1.8302,-1.7867,-1.7853,-1.6773,0.0,-1.7279,-1.7146,0.0,0.0,0.0,0.0,0.0,0.0,0.0,0.0,0.0,0.0,0.0,0.0,0.0,0.0,0.0,0.0,0.0,0.0,0.0,0.0,0.0,0.0,-1.638,-1.646,-1.67,-1.6887,0.0,-1.5538,-1.4442,-1.4534,0.0,0.0,0.0,0.0,0.0,0.0,0.0,0.0,-1.7029,-1.837,-1.9319,-1.9359,-1.9599,-1.976,-1.98,-2.0267,-2.0575,-2.0615,-2.0508,-2.0093,-1.9018,-1.9348,0.0,0.0,0.0,0.0,0.0,0.0,0.0,0.0,0.0,0.0,0.0,0.0,0.0,0.0,0.0,0.0,0.0,0.0,0.0,0.0,0.0,0.0,0.0,0.0,0.0,0.0,0.0,0.0,0.0,-1.5853,-1.7681,-1.8303,-1.8029,-1.7631,0.0,0.0,0.0,0.0,0.0,0.0,0.0,0.0,0.0,-1.4122,-1.4589,-1.5486,-1.6832,-1.8664,-1.9928,-2.049,-2.2594,-2.2499,-2.05,-2.0136,-1.9247,-1.7908,-1.7449,-1.7747,-1.8716,-1.8675,-1.8595,-1.8526,0.0,0.0,0.0,0.0,0.0,0.0,-1.4616,0.0,0.0,0.0,0.0,0.0,0.0,0.0,0.0,0.0,0.0,0.0,0.0,0.0,0.0,-1.7582,-1.7809,-1.7903,-1.7903,-1.7858,-1.7284,0.0,-1.515,-1.4811,-1.4184,0.0,0.0,0.0,0.0,0.0,-1.7582,-1.8651,-1.9426,-1.9599,-1.972,-1.9933,-2.0267,-2.0521,-2.0748,-2.0909,-2.0922,-2.0695,-2.0174,-1.999,-1.9638,0.0,0.0,0.0,0.0,0.0,0.0,0.0,0.0,0.0,0.0,0.0,0.0,0.0,0.0,0.0,0.0,0.0,0.0,0.0,0.0,0.0,0.0,0.0,0.0,0.0,0.0,0.0,0.0,-1.708,0.0,-1.8887,-1.9021,-1.8957,0.0,0.0,0.0,0.0,0.0,0.0,-1.3547,-1.4028,-1.4482,-1.4843,-1.5351,-1.625,-1.7376,-1.9034,-2.0545,-2.1819,-2.3746,-2.3832,-2.2154,-2.1829,-2.0538,-1.8603,-1.7884,-1.8199,-1.9169,-1.9905,-2.0118,-2.0052,-2.0698,-1.9347,0.0,-1.7187,-1.6155,-1.4843,-1.5498,-1.6072,-1.6406,-1.5899,0.0,-1.6434,-1.6964,0.0,0.0,0.0,0.0,-1.7625,-1.8125,0.0,-1.7662,-1.833,-1.8544,-1.8597,-1.8597,-1.922,-1.9146,0.0,-1.6619,-1.6347,-1.4643,0.0,0.0,0.0,0.0,-1.7729,-1.8116,-1.8931,-1.9559,-1.9773,-1.9933,-2.0201,-2.0641,-2.0748,-2.0882,-2.1096,-2.1109,-2.1109,-2.1109,-2.0676,-2.0444,0.0,0.0,0.0,0.0,0.0,0.0,0.0,0.0,0.0,0.0,0.0,0.0,0.0,0.0,0.0,0.0,0.0,0.0,0.0,0.0,0.0,0.0,0.0,0.0,0.0,0.0,0.0,0.0,0.0,0.0,-1.9135,-1.9334,0.0,0.0,0.0,0.0,0.0,-1.4685,-1.4162,-1.4442,-1.475,-1.5177,-1.5752,-1.6072,-1.6599,-1.7177,-1.86,-2.0046,-2.1762,-2.3132,-2.4375,-2.5392,-2.2868,-2.1643,-2.1338,-1.8708,-1.7687,-1.7884,-2.0476,-2.1837,-2.2326,-2.3706,-2.1876,-1.8593,-1.9438,-1.784,-1.5471,-1.6339,-1.6847,-1.7061,-1.674,-1.7133,-1.7948,-1.8883,-1.9346,0.0,0.0,-1.9646,-1.9182,-1.8591,-1.841,-1.8437,-1.8477,-1.8704,-1.8905,-1.8905,-1.8789,-1.8467,0.0,-1.8821,-1.8906,-1.686,0.0,0.0,-1.662,-1.7168,-1.7796,-1.8397,-1.9239,-1.9786,-1.98,-2.0294,-2.0641,-2.0668,-2.0922,-2.1096,-2.1109,-2.1109,-2.1109,-2.1109,-2.0775,-2.1341,-2.2654,-2.2063,0.0,0.0,0.0,0.0,0.0,0.0,0.0,0.0,0.0,0.0,0.0,0.0,0.0,0.0,0.0,0.0,0.0,0.0,0.0,0.0,0.0,0.0,0.0,0.0,0.0,0.0,0.0,0.0,-1.86,-1.9116,0.0,0.0,-1.9199,-1.8104,-1.7318,-1.6339,-1.5627,-1.5337,-1.5645,-1.5992,-1.638,-1.6673,-1.7034,-1.7422,-1.8743,-2.0225,-2.1744,-2.3067,-2.3998,-2.4313,-2.2567,-2.1253,-2.0246,-1.8618,-1.8397,-1.9338,-2.1538,-2.2231,-2.2137,-2.4051,-2.3505,-2.1503,-2.0701,-1.9317,-1.7752,-1.7395,-1.7475,-1.7716,-1.7609,-1.8344,-1.9411,-2.0474,-2.0375,-2.0037,-2.1123,-2.0302,-1.9002,-1.8789,-1.8918,-1.9052,-1.9052,-1.9132,-1.9212,-1.9212,-1.989,-2.0231,-1.9131,-1.8933,-1.8545,-1.723,-1.7782,-1.8223,-1.7649,-1.8237,-1.8811,-1.9025,-1.9492,-1.9867,-2.0054,-2.0441,-2.0748,-2.0935,-2.1056,-2.1109,-2.1109,-2.1109,-2.1109,-2.1109,-2.1002,-2.1149,-2.146,-2.2835,-2.2872,0.0,0.0,0.0,0.0,0.0,0.0,0.0,0.0,0.0,0.0,0.0,0.0,0.0,0.0,0.0,0.0,0.0,0.0,0.0,0.0,0.0,0.0,0.0,0.0,0.0,0.0,-1.7094,-1.7858,-1.8835,-1.984,-2.09,-2.0255,-1.941,-1.8485,-1.7575,-1.6718,-1.6048,-1.6259,-1.6553,-1.6847,-1.7141,-1.7382,-1.7582,-1.8499,-1.9627,-2.1049,-2.2366,-2.3356,-2.3881,-2.2452,-2.1393,-2.0601,-1.8833,-1.8727,-1.9686,-2.1263,-2.2031,-2.2297,-2.4801,-2.4925,-2.3484,-2.1943,-2.0575,-1.942,-1.83,-1.8023,-1.8196,-1.8196,-1.9038,-2.0347,-2.1674,-2.1554,-2.1201,-2.216,-2.1182,-1.9735,-1.9179,-1.9225,-1.9372,-1.9372,-1.9372,-1.9399,-1.9492,-2.0294,-2.0772,-1.9861,-1.9631,-1.9237,-1.8104,-1.8718,-1.9132,-1.845,-1.9011,-1.9479,-1.9372,-1.98,-2.0174,-2.0361,-2.0641,-2.0895,-2.1096,-2.1015,-2.1002,-2.1096,-2.1015,-2.1002,-2.1109,-2.1015,-2.1064,-2.1366,-2.3395,-2.297,-1.9937,0.0,0.0,0.0,0.0,0.0,0.0,0.0,0.0,0.0,0.0,0.0,0.0,0.0,0.0,0.0,0.0,0.0,0.0,0.0,0.0,0.0,0.0,0.0,-1.421,-1.469,-1.5521,-1.686,-1.8466,-1.9816,-2.043,-2.1192,-2.082,-1.9018,-1.8347,-1.7486,-1.6397,-1.658,-1.686,-1.7154,-1.7435,-1.7582,-1.7582,-1.7595,-1.8318,-1.9746,-2.1065,-2.2689,-2.4278,-2.2842,-2.2314,-2.2536,-1.9785,-1.8504,-1.8615,-2.0004,-2.1387,-2.2995,-2.5844,-2.6009,-2.4434,-2.325,-2.1687,-2.0195,-1.8933,-1.8504,-1.8517,-1.8517,-1.9374,-2.0753,-2.2247,-2.2922,-2.3201,-2.3201,-2.245,-2.1259,-1.9809,-1.9372,-1.9372,-1.9372,-1.9386,-1.9466,-1.9746,-1.9813,-1.9893,-2.0174,-2.0911,-2.106,-1.9618,-1.9399,-1.9292,-1.9011,-1.9452,0.0,-1.9439,-2.0147,-2.0668,-2.0668,-2.0922,-2.1096,-2.1096,-2.0842,-2.0802,-2.1096,-2.0842,-2.0815,-2.1096,-2.0842,-2.1394,-2.2736,-2.352,-2.2857,-2.0438,0.0,0.0,0.0,0.0,0.0,0.0,0.0,0.0,0.0,0.0,0.0,0.0,0.0,0.0,0.0,0.0,0.0,0.0,0.0,0.0,0.0,0.0,-1.5708,-1.5311,-1.5279,-1.5741,-1.6965,-1.8672,-2.0214,-2.1336,-2.2162,-2.1878,-2.0091,-1.9844,-1.9018,-1.7298,-1.7301,-1.7382,-1.7462,-1.7542,-1.7582,-1.7582,-1.7809,-1.917,-2.1554,-2.211,-2.3756,-2.6187,-2.3652,-2.2544,-2.2552,-1.9903,-1.8811,-1.8924,-2.0554,-2.2196,-2.3585,-2.4879,-2.5769,-2.6104,-2.4819,-2.2831,-2.0728,-1.9319,-1.8945,-1.9132,-1.9132,-1.9347,-2.0231,-2.2751,-2.2815,-2.2224,-2.334,-2.2639,-2.1259,-1.9809,-1.9372,-1.9426,-1.9626,-1.9679,-1.976,-2.0054,-2.0107,-2.0134,-2.0214,-2.0455,-2.0452,-1.9987,-2.0,-1.9973,-1.988,0.0,0.0,-2.0,-2.0388,-2.0601,-2.0374,-2.0615,-2.0802,-2.0802,-2.0722,-2.0802,0.0,-2.1029,-2.1029,-2.1109,-2.1029,-2.1576,-2.284,-2.3304,-2.3402,0.0,0.0,0.0,0.0,0.0,0.0,0.0,0.0,0.0,0.0,0.0,0.0,0.0,0.0,0.0,0.0,0.0,0.0,0.0,0.0,0.0,0.0,-1.517,-1.5262,-1.5348,-1.5535,-1.5899,-1.6743,-1.8449,-2.0103,-2.1363,-2.2628,-2.2813,-2.1559,-2.1128,-2.0216,-1.8485,-1.7884,-1.7582,-1.7582,-1.7582,-1.7649,-1.7769,-1.7956,-1.8954,-2.0773,-2.1478,-2.2708,-2.4474,-2.2748,-2.2071,0.0,-2.0019,-1.9105,-1.9233,-2.0287,-2.1926,0.0,0.0,0.0,0.0,0.0,-2.3108,-2.1077,-1.9663,-1.9225,-1.9372,-1.9372,-1.9372,-1.9822,-2.2153,-2.1813,-2.1045,-2.2476,-2.1919,-2.067,-1.9766,-1.9639,-1.9773,-1.9947,-1.9987,-2.0067,-2.0361,-2.0414,-2.0454,-2.0575,0.0,0.0,-2.0601,-2.0401,-2.0187,-2.0067,-2.0267,-2.0374,0.0,-2.0601,-2.0788,-2.0615,-2.0748,-2.0855,-2.0855,-2.0748,0.0,0.0,0.0,-2.0989,-2.1109,0.0,0.0,0.0,0.0,0.0,0.0,0.0,0.0,0.0,-1.7803,-1.736,0.0,0.0,0.0,0.0,0.0,0.0,0.0,0.0,0.0,0.0,0.0,0.0,0.0,0.0,0.0,0.0,-1.4587,-1.4429,-1.499,-1.5591,-1.6059,-1.6299,-1.801,-1.9698,-2.0966,-2.2676,-2.3538,-2.308,-2.2378,-2.1253,0.0,0.0,0.0,0.0,0.0,-1.7769,-1.805,-1.8116,-1.8386,-1.8863,-2.0062,-2.0868,-2.136,-2.1137,-2.1189,-2.1472,-2.004,-1.9372,-1.9372,-1.9372,-2.1045,-2.371,-2.559,-2.7168,-2.796,-2.4931,-2.2927,0.0,0.0,0.0,0.0,-1.9412,-1.9439,-1.9802,-2.1247,-2.0816,-2.0034,-2.1362,-2.09,-2.0077,-1.9853,-2.004,-2.0241,-2.0267,-2.0281,-2.0361,-2.0655,-2.0722,-2.0802,-2.1056,-2.1109,-2.1109,-2.1109,-2.0681,-2.0241,-1.9987,-2.0388,0.0,-2.0361,-2.0788,-2.1096,-2.1069,0.0,0.0,-2.1056,-2.0828,-2.0815,-2.1136,-2.0949,-2.0935,-2.1203,-2.0962,-2.1069,-2.159,-2.2414,-2.2931,-2.2941,-2.2542,-2.2165,-2.1645,-1.9037,-1.7988,0.0,0.0,0.0,0.0,0.0,0.0,0.0,0.0,0.0,0.0,0.0,0.0,0.0,0.0,0.0,-1.4852,-1.4878,-1.5271,-1.5618,-1.638,-1.682,-1.6647,-1.8339,-2.0036,-2.1443,-2.2833,-2.3665,-2.3574,-2.3448,-2.2265,-1.9731,-1.9317,0.0,-1.7582,-1.7822,-1.7983,-1.805,-1.8517,-1.9319,-2.0559,0.0,0.0,-2.3278,-2.2045,-2.1526,-2.1472,-2.004,-1.9372,-1.9372,-1.9372,-2.0486,-2.2363,-2.6372,-2.8067,-2.796,-2.4931,-2.3599,-2.3039,-2.0371,-1.9519,-1.972,-1.972,-1.988,-2.0294,-2.1816,-2.2172,0.0,-2.229,-2.2216,-2.168,-2.0509,-2.0187,-2.0294,-2.0535,-2.0588,-2.0668,-2.0962,-2.1029,-2.1042,-2.1096,-2.1109,-2.1109,-2.1109,-2.1015,-2.0922,-2.0869,-2.0949,-2.1002,-2.0949,-2.1042,-2.1015,-2.0788,-2.0762,-2.0762,-2.0762,-2.0708,-2.0909,-2.143,-2.163,-2.175,-2.1817,-2.1764,-2.179,-2.1897,-2.3379,-2.394,-2.3621,-2.3469,-2.2976,-2.226,-2.0074,-1.9118,0.0,0.0,0.0,0.0,0.0,0.0,0.0,0.0,0.0,0.0,0.0,-1.7952,0.0,0.0,-1.5967,-1.4715,-1.5017,-1.5831,-1.6918,-1.7035,-1.6927,-1.6927,-1.7922,-1.9109,-2.0538,-2.1862,-2.2968,-2.3683,-2.3067,-2.2064,-2.0743,-1.9317,-1.8373,-1.7809,-1.7969,-1.8183,-1.8477,-1.8771,-1.9326,-2.0246,-2.0401,-2.0931,-2.1601,-2.0816,-2.0472,-2.0486,-1.9707,-1.9372,-1.9488,-2.0308,-2.1249,-2.2311,-2.5275,-2.6738,-2.6971,-2.4821,-2.4102,-2.3667,-2.0779,-1.9893,-2.0013,-2.0013,-2.0107,-2.0348,-2.106,-2.13,-2.13,-2.13,-2.1413,-2.1418,-2.0699,-2.0561,-2.0708,-2.0855,-2.0895,-2.0935,-2.1082,-2.1109,-2.1109,-2.1109,-2.1109,-2.1109,-2.1109,-2.1109,-2.1109,-2.1109,-2.1109,-2.1109,-2.1109,-2.1109,-2.1056,-2.0909,-2.0895,-2.0895,-2.0895,-2.1029,-2.1309,-2.1737,-2.1911,-2.2044,-2.2191,-2.2205,-2.2271,-2.2418,-2.3969,-2.4505,-2.405,-2.3851,-2.3484,-2.2721,-2.0856,-1.9786,0.0,0.0,0.0,0.0,0.0,0.0,0.0,0.0,-1.8021,-1.7129,-1.7952,-1.8311,-1.6562,-1.6438,-1.6238,-1.5279,-1.5399,-1.6236,-1.8171,-1.757,-1.7069,-1.7606,-1.7644,-1.8094,-1.942,-2.0845,-2.2265,-2.3583,-2.2667,-2.1946,-2.1744,-1.9376,-1.8088,-1.8036,-1.8156,-1.845,-1.8918,-1.8985,-1.9132,-1.9372,-1.9372,-1.9372,-1.9372,-1.9372,-1.9372,-1.9372,-1.9426,-1.9479,-1.9663,-2.1028,-2.1758,-2.2245,-2.3638,-2.4778,-2.5301,-2.4252,-2.3908,-2.3594,-2.1082,-2.0267,-2.0321,-2.0321,-2.0361,-2.0401,-2.0401,-2.0401,-2.0401,-2.0401,-2.0575,-2.0762,-2.0762,-2.0935,-2.1109,-2.1109,-2.1109,-2.1109,-2.1109,-2.1109,-2.1109,-2.1109,-2.1109,-2.1109,-2.1109,-2.1109,-2.1109,-2.1109,-2.1109,-2.1109,-2.1109,-2.1109,-2.1109,-2.1109,-2.1109,-2.1136,-2.1189,-2.1523,-2.1817,-2.2058,-2.2124,-2.2258,-2.2498,-2.2498,-2.2619,-2.2859,-2.3955,-2.4349,-2.3956,-2.3767,-2.3315,-2.2762,-2.1479,-2.0374,-2.357,0.0,0.0,-2.0586,-1.9728,-1.8939,0.0,0.0,-1.8674,-1.8028,-1.9507,-2.0367,-1.8566,-1.8239,-1.7962,-1.743,-1.6714,-1.6856,-1.884,-1.8203,-1.8011,-1.9169,-1.8276,-1.8094,-1.942,-2.0845,-2.2265,-2.3583,-2.3583,-2.2968,-2.1744,-2.0524,-1.9241,-1.8009,-1.8544,-1.8851,-1.8918,-1.9185,-1.9332,-1.9372,-1.9372,-1.9372,-1.9372,-1.9372,-1.9372,-1.9386,-1.9639,-1.9893,-2.0134,-2.0281,-2.0442,-2.0591,-2.2125,-2.278,-2.2837,-2.2765,-2.2646,-2.2512,-2.0805,-2.0401,-2.0628,-2.0628,-2.0802,-2.1015,-2.1015,-2.1015,-2.1015,-2.1015,-2.1042,-2.1069,-2.1069,-2.1082,-2.1109,-2.1109,-2.1109,-2.1109,-2.1109,-2.1109,-2.1109,-2.1109,-2.1109,-2.1109,-2.1109,-2.1109,-2.1109,-2.1109,-2.1109,-2.1109,-2.1109,-2.1109,-2.1109,-2.1109,-2.1109,-2.1216,-2.1483,-2.2004,-2.2338,-2.2365,-2.2619,-2.2779,-2.2806,-2.2819,-2.2832,-2.2859,-2.3092,-2.3065,-2.3025,-2.2727,-2.2416,-2.2092,-2.1706,-2.0975,-2.3372,0.0,0.0,0.0,-2.0292,-1.9624,-1.9706,-1.9805,-1.9883,-1.9393,-2.0495,-2.1148,-1.9756,-1.9022,-1.8459,0.0,-1.7077,-1.7158,-1.8974,-1.8316,-1.8094,-1.942,-1.8394,-1.7793,-1.8408,-2.0436,-2.2046,-2.2792,-2.2809,-2.2587,-2.227,-2.0345,-1.9015,-1.8544,-1.8784,-1.8998,-1.9185,-1.9305,-1.9372,-1.9372,-1.9372,-1.9452,-1.9626,-1.9626,-1.9706,-1.988,-2.0,-2.0214,-2.0494,-2.0494,-2.0588,-2.0748,-2.1465,-2.1712,-2.1807,-2.2462,-2.2751,-2.2539,-2.1163,-2.0828,-2.0922,-2.0922,-2.1015,-2.1109,-2.1109,-2.1109,-2.1109,-2.1109,-2.1109,-2.1109,-2.1109,-2.1109,-2.1109,-2.1109,-2.1109,-2.1109,-2.1109,-2.1109,-2.1109,-2.1109,-2.1109,-2.1109,-2.1109,-2.1109,-2.1109,-2.1109,-2.1109,-2.1109,-2.1109,-2.1109,-2.1109,-2.1109,-2.1269,-2.1483,-2.1777,-2.2178,-2.2485,-2.2672,-2.2792,-2.2859,-2.2859,-2.3033,-2.314,-2.314,-2.33,-2.33,-2.314,-2.3006,-2.2699,-2.2231,-2.2111,-2.1764,-2.3308,0.0,0.0,-2.1568,-2.0945,-2.0568,-2.0652,-2.0874,-2.0955,-2.0856,-2.1511,-2.182,-2.1118,-2.0149,0.0,-1.8535,-1.8052,-1.811,-1.9224,-1.8978,-1.8902,-1.9524,-1.8708,-1.803,-1.7702,-1.9866,-2.1512,-2.2291,-2.1885,-2.1941,-2.2626,-2.0062,-1.8704,-1.8918,-1.8998,-1.9145,-1.9359,-1.9372,-1.9372,-1.9372,-1.9452,-1.9599,-1.98,-1.988,-2.008,-2.0361,-2.0361,-2.0521,-2.0802,-2.0802,-2.0922,-2.1109,-2.1109,-2.1109,-2.1209,-2.2086,-2.2371,-2.2276,-2.1407,-2.1109,-2.1109,-2.1109,-2.1109,-2.1109,-2.1109,-2.1109,-2.1109,-2.1109,-2.1109,-2.1109,-2.1109,-2.1109,-2.1109,-2.1109,-2.1109,-2.1109,-2.1109,-2.1109,-2.1109,-2.1109,-2.1109,-2.1109,-2.1109,-2.1109,-2.1109,-2.1109,-2.1109,-2.1109,-2.1109,-2.1109,-2.1149,-2.1229,-2.1496,-2.179,-2.2084,-2.2378,-2.2632,-2.2846,-2.2939,-2.2993,-2.2993,-2.3287,-2.3447,-2.3447,-2.3661,-2.3661,-2.3447,-2.3367,-2.31,-2.2672,-2.2579,-2.2432,0.0,0.0,-2.1938,-2.1875,-2.1875,-2.1875,-2.1875,-2.1894,-2.1928,-2.2318,-2.25,-2.2617,-2.294,-2.1994,-2.0993,-2.0421,-2.0361,-2.0231,-1.9626,-2.0727,-2.1033,-1.9731,-1.9524,-1.915,0.0,-1.9284,-2.0739,-2.222,-2.1155,-2.1125,-2.2642,-2.0279,-1.8918,-1.8918,-1.9199,-1.9359,-1.9372,-1.9372,-1.9372,-1.9372,-1.9653,-1.9786,-1.9813,-2.0094,-2.0374,-2.0655,-2.0655,-2.0828,-2.1096,-2.1096,-2.1096,-2.1109,-2.1109,-2.1109,-2.1109,-2.1096,-2.1096,-2.1096,-2.1109,-2.1109,-2.1109,-2.1109,-2.1109,-2.1109,-2.1109,-2.1109,-2.1109,-2.1109,-2.1109,-2.1109,-2.1109,-2.1109,-2.1109,-2.1109,-2.1109,-2.1109,-2.1109,-2.1109,-2.1109,-2.1109,-2.1109,-2.1109,-2.1109,-2.1109,-2.1109,-2.1109,-2.1109,-2.1109,-2.1109,-2.1109,-2.1216,-2.151,-2.1804,-2.2084,-2.2378,-2.2672,-2.2846,-2.2859,-2.314,-2.3313,-2.3313,-2.3607,-2.3754,-2.3754,-2.3768,-2.3768,-2.3754,-2.3474,-2.3313,-2.3287,-2.2993,-2.2846,0.0,0.0,-2.2717,-2.2394,-2.2305,-2.2383,-2.2656,-2.2715,-2.2754,-2.2891,-2.3164,-2.3398,-2.3535,-2.255,-2.1877,-2.2092,-2.1315,-2.0329,-1.9743,-2.0845,-2.0845,-1.8499,-1.9208,0.0,0.0,0.0,0.0,-2.1496,-2.1088,-2.1128,-2.1911,-2.0274,-1.9225,-1.9225,-1.9319,-1.9372,-1.9372,-1.9372,-1.9466,-1.9653,-2.0147,-2.0388,-2.0388,-2.0681,-2.0869,-2.0962,-2.0962,-2.1015,-2.1109,-2.1109,-2.1109,-2.1109,-2.1109,-2.1109,-2.1109,-2.1109,-2.1109,-2.1109,-2.1109,-2.1109,-2.1109,-2.1109,-2.1109,-2.1109,-2.1109,-2.1109,-2.1109,-2.1109,-2.1109,-2.1109,-2.1109,-2.1109,-2.1109,-2.1109,-2.1109,-2.1109,-2.1109,-2.1109,-2.1109,-2.1109,-2.1109,-2.1109,-2.1109,-2.1109,-2.1109,-2.1109,-2.1109,-2.1109,-2.1109,-2.1283,-2.1443,-2.1537,-2.1991,-2.2311,-2.2405,-2.2699,-2.2953,-2.3153,-2.3273,-2.342,-2.3607,-2.3901,-2.4062,-2.4062,-2.4249,-2.4249,-2.4062,-2.3955,-2.3808,-2.3621,-2.3514,-2.3354,0.0,-2.3453,-2.298,-2.2788,-2.2734,-2.2812,-2.3086,-2.3144,-2.3144,-2.3144,-2.3359,-2.3555,-2.3555,-2.2662,-2.1999,-2.217,-2.2016,-2.1412,-1.9955,-2.2175,-2.2551,-1.8907,-1.9985,0.0,0.0,0.0,0.0,-2.1062,-2.0652,-2.0699,-2.1571,-2.0141,-1.9372,-1.9372,-1.9372,-1.9372,-1.9372,-1.9466,-1.972,-2.012,-2.0494,-2.0735,-2.0842,-2.1029,-2.1109,-2.1109,-2.1109,-2.1109,-2.1109,-2.1109,-2.1109,-2.1109,-2.1109,-2.1109,-2.1109,-2.1109,-2.1109,-2.1109,-2.1109,-2.1109,-2.1109,-2.1109,-2.1109,-2.1109,-2.1109,-2.1109,-2.1109,-2.1109,-2.1109,-2.1109,-2.1109,-2.1109,-2.1109,-2.1109,-2.1109,-2.1109,-2.1109,-2.1109,-2.1149,-2.1243,-2.1269,-2.1296,-2.1403,-2.1416,-2.1416,-2.1416,-2.1416,-2.139,-2.1283,-2.1523,-2.175,-2.1857,-2.2191,-2.2458,-2.2565,-2.2859,-2.3113,-2.3313,-2.3527,-2.3728,-2.3915,-2.4209,-2.4356,-2.4356,-2.4543,-2.4543,-2.4356,-2.4249,-2.4102,-2.3928,-2.3821,-2.3661,-2.3027,-2.2852,-2.2637,-2.3066,-2.3184,-2.3184,-2.3203,-2.3184,-2.3184,-2.3184,-2.3184,-2.3184,0.0,0.0,-2.1643,-2.1015,-2.282,-2.3288,-2.0634,-2.4508,-2.5792,0.0,0.0,0.0,0.0,0.0,0.0,-2.09,0.0,-2.004,-2.1358,-2.0141,-1.9372,-1.9372,-1.9386,-1.9386,-1.9386,-1.9693,-2.012,-2.0681,-2.0695,-2.0842,-2.1109,-2.1109,-2.1109,-2.1109,-2.1109,-2.1109,-2.1109,-2.1109,-2.1109,-2.1109,-2.1109,-2.1109,-2.1109,-2.1109,-2.1109,-2.1109,-2.1109,-2.1109,-2.1109,-2.1109,-2.1109,-2.1109,-2.1109,-2.1109,-2.1109,-2.1109,-2.1109,-2.1109,-2.1109,-2.1109,-2.1109,-2.1109,-2.1109,-2.1109,-2.1122,-2.1136,-2.1216,-2.1523,-2.1577,-2.1657,-2.1937,-2.1991,-2.1991,-2.1991,-2.2004,-2.1897,-2.1617,-2.183,-2.2111,-2.2257,-2.2297,-2.243,-2.2572,-2.3014,-2.334,-2.3227,-2.3888,-2.4209,-2.4222,-2.4489,-2.4636,-2.4636,-2.4636,-2.4636,-2.4636,-2.4356,-2.4222,-2.4222,-2.3941,-2.3808,-2.3027,-2.3066,-2.3086,-2.3516,-2.3633,-2.3711,-2.4023,-2.3848,-2.3633,-2.3633,-2.3633,-2.3711,0.0,0.0,0.0,-2.2902,-2.3153,0.0,-2.1931,-2.4579,0.0,0.0,0.0,-2.1994,-1.9131,-1.9118,0.0,0.0,-1.955,-1.9591,-1.9924,-1.9591,-1.9372,-1.9372,-1.9573,-1.9693,-1.9693,-2.0201,-2.0521,-2.0681,-2.0895,-2.1042,-2.1109,-2.1109,-2.1109,-2.1109,-2.1109,-2.1109,-2.1109,-2.1109,-2.1109,-2.1109,-2.1109,-2.1109,-2.1109,-2.1109,-2.1109,-2.1109,-2.1109,-2.1109,-2.1109,-2.1109,-2.1109,-2.1109,-2.1109,-2.1109,-2.1109,-2.1109,-2.1109,-2.1109,-2.1109,-2.1109,-2.1109,-2.1109,-2.1109,-2.1162,-2.139,-2.1443,-2.1523,-2.1817,-2.1871,-2.1897,-2.1977,-2.1991,-2.1991,-2.1991,-2.2164,-2.2205,-2.1911,-2.2124,-2.1789,-2.049,-2.1778,-2.1734,-1.903,-2.1554,-2.2795,-2.174,-2.3233,-2.4302,-2.4516,-2.4596,-2.4636,-2.4636,-2.4636,-2.4636,-2.4636,-2.4556,-2.4529,-2.4529,-2.4449,-2.4302,-2.3086,-2.3144,-2.3242,-2.3691,-2.3789,-2.3848,-2.4082,-2.3965,-2.373,-2.3535,-2.3496,0.0,0.0,0.0,0.0,0.0,0.0,0.0,-2.1576,-2.3823,-2.4419,0.0,-2.1773,0.0,-1.9334,-1.9265,-1.9372,0.0,0.0,-1.9372,-1.9372,-1.9372,-1.9426,-1.9559,-1.972,-1.992,-2.0187,-2.0508,-2.0735,-2.0869,-2.1029,-2.1109,-2.1109,-2.1109,-2.1109,-2.1122,0.0,-2.1229,-2.1122,-2.139,-2.1336,-2.1122,-2.1256,-2.1229,-2.1109,-2.1109,-2.1109,-2.1109,-2.1109,-2.1109,-2.1109,-2.1109,-2.1109,-2.1109,-2.1109,-2.1109,-2.1109,-2.1109,-2.1109,-2.1109,-2.1109,-2.1203,-2.1309,-2.1309,-2.1403,-2.1537,-2.171,-2.175,-2.183,-2.2124,-2.2285,-2.2365,-2.2365,-2.2365,-2.2365,-2.2365,-2.2512,-2.2552,-2.2392,-2.2512,-2.1914,-1.9977,-2.176,-2.1558,-1.7847,-2.1375,-2.2975,-2.1349,-2.3267,-2.4462,-2.4623,-2.4636,-2.4636,-2.4636,-2.4636,-2.4636,-2.4636,-2.4636,-2.4636,-2.4636,-2.4636,-2.4556,-2.3144,-2.3184,-2.332,-2.3769,-2.3926,-2.3945,-2.3887,-2.3867,-2.373,-2.3242,0.0,0.0,-2.2025,0.0,-2.0098,-1.9583,0.0,-2.1118,-2.0595,-2.2736,-2.344,-2.1212,-2.1294,-2.1031,-1.9591,-1.9372,-1.9386,-1.9426,-1.9426,-1.9412,-1.9372,-1.9399,-1.9573,-1.9907,-1.992,-2.0174,-2.0722,-2.0735,-2.0855,-2.1109,-2.1109,-2.1109,-2.1109,-2.1109,-2.1136,-2.1176,0.0,0.0,-2.1203,-2.167,-2.1563,-2.1136,-2.139,-2.1336,-2.1109,-2.1109,-2.1109,-2.1109,-2.1109,-2.1109,-2.1109,-2.1109,-2.1109,-2.1109,-2.1109,-2.1136,-2.1162,-2.1162,-2.1203,-2.1229,-2.1229,-2.1416,-2.1617,-2.1617,-2.1804,-2.1991,-2.2031,-2.2071,-2.2178,-2.2432,-2.2686,-2.2859,-2.2859,-2.2859,-2.2859,-2.2859,-2.2859,-2.2873,-2.2625,-2.2749,-2.2035,-1.9959,-2.1595,-2.1193,-1.7231,-2.11,-2.2873,-2.0524,-2.283,-2.4179,-2.4179,-2.4219,-2.4393,-2.469,-2.473,-2.473,-2.469,-2.469,-2.4676,-2.4636,-2.4636,-2.4636,-2.3144,-2.3398,-2.3789,-2.4199,-2.459,-2.4746,-2.4394,-2.4316,0.0,0.0,0.0,-2.2043,-2.2236,0.0,0.0,-1.9941,0.0,0.0,0.0,0.0,0.0,0.0,0.0,0.0,0.0,0.0,0.0,0.0,0.0,0.0,-1.9386,-1.9599,-1.9973,-2.0508,-2.0521,-2.0695,-2.1029,-2.1029,-2.1056,-2.1109,-2.1109,-2.1109,-2.1109,-2.1109,-2.1243,-2.147,0.0,0.0,-2.147,-2.1323,-2.1203,-2.1109,-2.1162,-2.1149,-2.1109,-2.1109,-2.1109,-2.1109,-2.1109,-2.1109,-2.1109,-2.1109,-2.1109,-2.1109,-2.1109,-2.1283,-2.147,-2.147,-2.1643,-2.183,-2.183,-2.1871,-2.1911,-2.1911,-2.1951,-2.2044,-2.2298,-2.2539,-2.2726,-2.2779,-2.2819,-2.2859,-2.2859,-2.2859,-2.2859,-2.2859,-2.2859,-2.2388,-2.0919,-2.2025,-2.1685,-1.8354,-1.9708,-1.8742,-1.3672,-1.8494,-2.0262,-1.6688,-2.0058,-2.2049,-2.2049,-2.2265,-2.3292,-2.4997,-2.5237,-2.5237,-2.4997,-2.4997,-2.4877,-2.4636,-2.4636,-2.4636,-2.2315,-2.2993,-2.3706,-2.3559,-2.4258,-2.4961,-2.4512,0.0,0.0,0.0,0.0,-2.1265,-2.1311,0.0,0.0,0.0,0.0,0.0,0.0,0.0,0.0,0.0,0.0,0.0,0.0,0.0,0.0,0.0,0.0,0.0,-1.9826,-2.0094,-2.0388,-2.0668,-2.0828,-2.0962,-2.1109,-2.1109,-2.1109,-2.1109,-2.1109,-2.1109,-2.1109,-2.1269,-2.1336,-2.1336,0.0,0.0,-2.155,-2.1563,-2.147,-2.1336,-2.1336,-2.1243,-2.1109,-2.1109,-2.1109,-2.1109,-2.1109,-2.1203,-2.1336,-2.1336,-2.1336,-2.1336,-2.1336,-2.155,-2.1777,-2.1777,-2.1884,-2.1991,-2.1991,-2.2098,-2.2205,-2.2205,-2.2325,-2.2472,-2.2619,-2.2766,-2.2585,-2.1596,-2.1459,-2.117,-2.0051,-1.9912,-1.9912,-1.9912,-2.0017,-1.9724,-1.8998,-1.9588,-1.9206,-1.643,-1.8,-1.7282,-1.2726,-1.7002,-1.8601,-1.5684,-1.8379,-2.0125,-2.0125,-2.0342,-2.1397,-2.3591,-2.3716,-2.4342,-2.5304,-2.5304,-2.5237,-2.509,-2.4943,-2.4863,-2.1212,-2.2025,-2.3054,-2.272,-2.3748,-2.4716,-2.4224,-2.4023,0.0,0.0,0.0,-2.0442,-2.0305,0.0,0.0,0.0,0.0,0.0,0.0,0.0,0.0,0.0,0.0,0.0,0.0,0.0,0.0,0.0,0.0,0.0,0.0,-2.0548,-2.0708,-2.0762,-2.0989,-2.1109,-2.1109,-2.1109,-2.1109,-2.1109,-2.1109,-2.1109,-2.1122,-2.1349,-2.1403,-2.1323,0.0,0.0,0.0,-2.1844,-2.179,-2.1643,-2.1643,-2.1496,-2.1296,-2.1296,-2.1296,-2.1296,-2.1296,-2.1456,-2.1643,-2.1643,-2.1643,-2.1657,-2.1724,-2.1897,-2.2084,-2.2151,-2.2178,-2.2178,-2.2178,-2.2338,-2.2377,-2.1958,-2.2128,-2.2297,-2.2297,-2.2022,-2.1321,-2.034,-1.982,-1.9005,-1.746,-1.7218,-1.7258,-1.7258,-1.7388,-1.7375,-1.6991,-1.7146,-1.6379,-1.4505,-1.6238,-1.6028,-1.263,-1.5759,-1.7074,-1.4984,-1.697,-1.8154,-1.8203,-1.8397,-1.9614,-2.2303,-2.2518,-2.3463,-2.5611,-2.5611,-2.5571,-2.5504,-2.5277,-2.517,-1.9679,-2.0272,-2.1207,-2.2303,-2.3184,-2.3754,-2.3364,0.0,0.0,-2.2324,-2.089,-1.9959,-1.9964,-1.8252,0.0,0.0,0.0,-1.8384,0.0,0.0,0.0,0.0,0.0,0.0,0.0,0.0,0.0,0.0,0.0,0.0,0.0,-2.0655,-2.0802,-2.1069,-2.1096,-2.1109,-2.1109,-2.1109,-2.1109,-2.1109,-2.1109,-2.1109,-2.1109,-2.1136,-2.143,-2.1884,0.0,0.0,0.0,-2.1804,-2.1737,-2.1951,-2.1951,-2.1924,-2.1911,-2.1911,-2.1911,-2.1911,-2.1911,-2.1924,-2.1951,-2.1951,-2.1951,-2.1991,-2.2258,-2.2352,-2.2432,-2.2699,-2.2779,-2.2779,-2.2779,-2.2806,-2.2395,-2.0719,-2.0316,-2.034,-2.034,-1.8938,-1.8229,-1.9773,-1.8823,-1.7684,-1.7541,-1.7569,-1.7709,-1.7709,-1.7719,-1.7077,-1.5492,-1.5377,-1.4708,-1.2902,-1.4302,-1.4581,-1.2622,-1.4467,-1.5,-1.3005,-1.4891,-1.6051,-1.6213,-1.657,-1.8586,-2.256,-2.2952,-2.3915,-2.5919,-2.5919,-2.5772,-2.5518,-2.5478,-2.5478,-1.8596,-1.9461,-2.0762,-2.1336,-2.2426,-2.3395,-2.3847,0.0,-2.3457,-2.2773,-2.0855,-1.933,-1.9849,-1.7978,-1.6727,-1.7609,-1.7916,0.0,0.0,0.0,0.0,0.0,0.0,0.0,0.0,0.0,0.0,0.0,0.0,0.0,0.0,-2.0935,-2.0989,-2.1109,-2.1109,-2.1109,-2.1109,-2.1109,-2.1109,-2.1109,-2.1109,-2.1109,-2.1122,-2.1296,-2.1403,-2.1456,0.0,0.0,0.0,-2.1724,-2.183,-2.2231,-2.2058,-2.1991,-2.1991,-2.1991,-2.1991,-2.1991,-2.1991,-2.2098,-2.2245,-2.2245,-2.2365,-2.2539,-2.2659,-2.2819,-2.2993,-2.3113,-2.3006,-2.2859,-2.2859,-2.2022,-2.0756,-1.8787,-1.8369,-1.8369,-1.8369,-1.7772,-1.7308,-1.6881,-1.6327,-1.5603,-1.4441,-1.4359,-1.426,-1.426,-1.4356,-1.4153,-1.3476,-1.3565,-1.3348,-1.2494,-1.3055,-1.3195,-1.2494,-1.3353,-1.3432,-1.2725,-1.3684,-1.4288,-1.4355,-1.4519,-1.6065,-1.8959,-2.0502,-2.2121,-2.4281,-2.557,-2.6159,-2.6039,-2.5865,-2.5785,-1.7551,-1.8393,-1.9744,-2.0119,-2.1337,-2.2654,0.0,-2.348,-2.3262,-2.3008,-2.0837,-1.9175,-1.9685,-1.7897,-1.6526,-1.7328,-1.7716,-1.8183,-1.8945,0.0,0.0,0.0,0.0,0.0,0.0,0.0,0.0,0.0,0.0,0.0,0.0,0.0,-2.1109,-2.1109,-2.1109,-2.1109,-2.1109,-2.1109,-2.0843,-2.0335,-2.0856,-2.0843,-2.0335,-2.1067,-2.1093,0.0,0.0,0.0,0.0,-2.1082,-2.1554,-2.2525,-2.2325,-2.2245,-2.2245,-2.2245,-2.2245,-2.2245,-2.2245,-2.1962,-2.1862,-2.2417,-2.2043,-2.1433,-2.2,-2.2228,-2.2357,-2.2434,-2.2241,-2.2022,-2.2022,-2.1044,-1.9495,-1.6967,-1.6404,-1.6423,-1.649,-1.6187,-1.5587,-1.4933,-1.4359,-1.3744,-1.2428,-1.2162,-1.2189,-1.2189,-1.2284,-1.2352,-1.2352,-1.244,-1.2501,-1.2501,-1.2542,-1.2569,-1.2569,-1.2671,-1.2766,-1.2854,-1.3057,-1.3193,-1.3241,-1.3342,-1.4375,-1.6483,-1.877,-2.1039,-2.314,-2.5251,-2.6386,-2.6386,-2.6186,-2.6039,-1.637,-1.68,-1.7469,-1.8434,-1.987,-2.1112,0.0,-2.2866,-2.3535,-2.2695,-2.0855,-1.9497,-1.9497,-1.7749,-1.6473,-1.7163,-1.7395,-1.7996,-1.9199,0.0,0.0,0.0,0.0,0.0,0.0,0.0,0.0,0.0,0.0,0.0,0.0,0.0,-2.1109,-2.1109,-2.1109,-2.1109,-2.1109,-2.1109,-2.0195,-1.8512,-2.0322,-2.0195,-1.864,-2.0335,0.0,0.0,0.0,0.0,0.0,-1.9663,-2.0922,-2.2859,-2.2859,-2.2859,-2.2859,-2.2859,-2.2859,-2.2859,-2.2859,-2.1734,-2.0467,-2.2297,-2.0507,-1.8153,-2.0002,-2.0403,-2.0249,-2.0509,-2.0391,-2.0201,-2.0201,-2.0063,-1.9066,-1.5274,-1.4432,-1.4483,-1.4677,-1.3275,-1.245,-1.4506,-1.3514,-1.2284,-1.2291,-1.2406,-1.2494,-1.2494,-1.2501,-1.2501,-1.2501,-1.2501,-1.2501,-1.2501,-1.2637,-1.2725,-1.2725,-1.2725,-1.2854,-1.3152,-1.3173,-1.3241,-1.339,-1.3403,-1.4375,-1.6483,-1.877,-2.1039,-2.314,-2.5251,-2.6386,-2.6386,-2.6386,-2.6226,-1.6064,-1.6553,-1.7109,-1.8375,-1.8844,-1.9333,-2.069,-2.0957,-2.0797,-2.0552,-1.9323,-1.8226,-1.8226,-1.7194,-1.6473,-1.7061,-1.7742,-1.8131,0.0,0.0,0.0,0.0,0.0,0.0,0.0,0.0,0.0,0.0,0.0,0.0,0.0,0.0,-2.1109,-2.1109,-2.1109,-2.0589,-1.9291,-1.9291,-1.85,-1.6689,-1.7345,-1.7303,-1.6933,-1.7456,0.0,0.0,0.0,0.0,0.0,-1.7728,-1.898,-2.1057,-2.1241,-2.1175,-2.1175,-2.1175,-2.045,-1.9149,-1.8982,-1.8648,-1.8229,-1.8787,-1.8282,-1.75,-1.8065,-1.84,-1.8453,-1.8227,-1.8153,-1.7809,-1.6545,-1.6368,-1.5767,-1.3191,-1.2707,-1.2802,-1.286,-1.2515,-1.2306,-1.295,-1.2782,-1.2433,-1.2433,-1.2474,-1.2501,-1.2501,-1.2501,-1.2501,-1.2501,-1.2501,-1.2542,-1.2644,-1.2705,-1.2732,-1.2732,-1.2915,-1.3071,-1.3166,-1.3268,-1.3349,-1.3397,-1.3403,-1.3728,-1.4375,-1.6492,-1.7946,-1.8598,-2.0867,-2.2659,-2.4111,-2.574,-2.6333,-1.4469,-1.5445,-1.6315,-1.7086,-1.7795,-1.8694,-1.976,-1.9844,-1.9695,-1.9695,-1.8597,-1.7684,-1.7684,-1.7021,-1.6355,-1.619,-1.6863,-1.7079,0.0,0.0,0.0,0.0,0.0,0.0,0.0,0.0,0.0,0.0,0.0,0.0,0.0,0.0,-1.9152,-1.9152,-1.9801,-1.9546,-1.8512,-1.7859,-1.6602,-1.4997,-1.5652,-1.5761,-1.5309,0.0,0.0,0.0,0.0,0.0,0.0,-1.5886,-1.7116,-1.9089,-1.9245,-1.916,-1.9171,-1.916,-1.8443,-1.743,-1.7298,-1.6685,-1.6263,-1.6967,-1.6744,-1.6121,-1.548,-1.583,-1.6568,-1.6367,-1.6358,-1.6072,-1.4923,-1.4728,-1.4237,-1.2353,-1.1993,-1.2081,-1.2135,-1.2223,-1.2305,-1.2359,-1.244,-1.2501,-1.2501,-1.2501,-1.2501,-1.2501,-1.2501,-1.2501,-1.2501,-1.2556,-1.2623,-1.2718,-1.2834,-1.2895,-1.2895,-1.3064,-1.32,-1.3254,-1.3349,-1.3403,-1.3403,-1.3403,-1.3403,-1.3403,-1.5514,-1.6647,-1.6647,-1.877,-2.0554,-2.2006,-2.4111,-2.5092,0.0,-1.3507,-1.4965,-1.4808,-1.6759,-1.8716,-1.8846,-1.931,0.0,-1.9649,-1.8551,-1.7606,-1.7621,-1.7092,-1.6199,-1.4796,-1.5258,-1.5457,0.0,0.0,0.0,0.0,0.0,0.0,0.0,0.0,0.0,0.0,0.0,0.0,0.0,0.0,0.0,-1.5913,-1.7345,-1.8116,-1.8116,-1.6581,-1.4866,-1.3344,-1.4948,-1.506,-1.3626,0.0,0.0,0.0,0.0,0.0,0.0,-1.4215,-1.5283,-1.6977,-1.7007,-1.7007,-1.6997,-1.7017,-1.7007,-1.6846,-1.6836,-1.5707,-1.4449,-1.631,-1.5739,-1.4196,-1.2621,-1.3288,-1.4488,-1.4645,-1.4695,-1.4695,-1.4695,-1.4703,-1.4276,-1.2515,-1.2088,-1.2135,-1.2277,-1.2305,-1.2345,-1.2474,-1.2501,-1.2501,-1.2501,-1.2501,-1.2501,-1.2501,-1.2501,-1.2508,-1.2515,-1.2644,-1.2739,-1.2759,-1.301,-1.318,-1.3186,-1.3186,-1.3247,-1.339,-1.3403,-1.3403,-1.3403,-1.3403,-1.3403,-1.3403,-1.535,-1.6319,-1.6319,-1.8607,-1.9745,-1.9745,-2.1845,-2.298,-0.8977,0.0,-1.3491,-1.4558,-1.5202,-1.591,0.0,-1.7371,-1.7119,-1.7119,-1.6689,-1.636,-1.6608,-1.6657,-1.6328,-1.5386,-1.5783,-1.5561,-1.322,0.0,0.0,0.0,0.0,0.0,0.0,0.0,0.0,0.0,0.0,0.0,0.0,0.0,0.0,-1.5913,-1.5005,-1.4493,-1.4493,-1.4253,-1.3161,-1.1482,-1.2134,-1.2283,-1.2028,0.0,0.0,0.0,0.0,0.0,0.0,-1.2309,-1.3309,-1.5026,-1.547,-1.5496,-1.5237,-1.5532,-1.4479,-1.3054,-1.2934,-1.2683,-1.2518,-1.3081,-1.3,-1.2621,-1.234,-1.2428,-1.2748,-1.2784,-1.2791,-1.2791,-1.2791,-1.2885,-1.2835,-1.2388,-1.2318,-1.2406,-1.244,-1.2454,-1.2461,-1.2494,-1.2501,-1.2501,-1.2501,-1.2501,-1.2501,-1.2501,-1.2501,-1.2542,-1.2664,-1.2705,-1.2813,-1.3044,-1.3132,-1.322,-1.3336,-1.3349,-1.3363,-1.3397,-1.3403,-1.3403,-1.3403,-1.3403,-1.3403,-1.3403,-1.3887,-1.4217,-1.4217,-1.6328,-1.7302,-1.7465,-1.9582,-2.1523,-0.8038,-0.986,-1.1878,-1.269,-1.381,-1.4974,-1.5956,-1.6286,-1.6273,-1.6273,-1.6032,-1.5925,-1.6219,-1.6004,-1.5438,-1.4478,-1.427,-1.366,0.0,0.0,0.0,0.0,0.0,0.0,0.0,0.0,0.0,0.0,0.0,0.0,0.0,0.0,0.0,0.0,-1.2664,-1.2531,-1.3319,-1.2626,-1.1954,-1.1151,-1.1233,-1.1348,-1.1497,0.0,0.0,0.0,0.0,0.0,-1.1619,-1.1619,-1.218,-1.319,-1.3375,-1.3436,-1.3429,-1.3521,-1.2816,-1.1925,-1.185,-1.187,-1.1965,-1.2115,-1.2169,-1.2196,-1.2345,-1.2332,-1.2264,-1.2264,-1.2264,-1.2264,-1.2264,-1.2325,-1.2386,-1.2386,-1.2447,-1.2501,-1.2501,-1.2501,-1.2501,-1.2501,-1.2501,-1.2522,-1.2596,-1.261,-1.263,-1.2698,-1.2712,-1.2739,-1.2827,-1.2895,-1.2996,-1.3152,-1.3234,-1.3308,-1.3397,-1.3403,-1.3403,-1.3403,-1.3403,-1.3403,-1.3403,-1.3403,-1.3403,-1.3403,-1.3403,-1.3403,-1.3403,-1.4541,-1.5185,-1.5185,-1.7302,-1.9085,-0.8065,-0.918,-1.0431,-1.0604,-1.2531,-1.4503,-1.4885,-1.5532,-1.6064,-1.6273,-1.6072,-1.6005,-1.6339,-1.5419,-1.432,-1.3345,-1.2276,-1.1339,-1.0548,0.0,0.0,0.0,0.0,0.0,0.0,0.0,0.0,0.0,0.0,0.0,0.0,0.0,0.0,0.0,-1.0968,-1.1661,-1.3157,-1.1682,-1.1145,-1.1389,-1.1416,-1.1497,-1.1619,-1.1619,0.0,0.0,0.0,0.0,-1.1647,-1.1626,-1.1647,-1.1687,-1.1687,-1.1762,-1.187,-1.1891,-1.1972,-1.2067,-1.2088,-1.2094,-1.2121,-1.2271,-1.2325,-1.2345,-1.2467,-1.2501,-1.2501,-1.2501,-1.2501,-1.2501,-1.2501,-1.2501,-1.2501,-1.2501,-1.2501,-1.2501,-1.2501,-1.2501,-1.2508,-1.2528,-1.2535,-1.2583,-1.2739,-1.2766,-1.2807,-1.2942,-1.2963,-1.2969,-1.299,-1.3098,-1.318,-1.3207,-1.3322,-1.3403,-1.3403,-1.3403,-1.3403,-1.3403,-1.3403,-1.3403,-1.3403,-1.3403,-1.3403,-1.3403,-1.3403,-1.3403,-1.3403,-1.3403,-1.3403,-1.3403,-1.5185,-1.6328,-0.8201,-0.8557,-0.9071,-1.0153,-1.0984,-1.2145,-1.4344,-1.4672,-1.4961,-1.6064,-1.6233,-1.6366,-1.6914,-1.5977,-1.4894,0.0,0.0,-1.0503,0.0,0.0,0.0,0.0,0.0,0.0,0.0,0.0,0.0,0.0,0.0,0.0,0.0,0.0,0.0,0.0,0.0,-1.1331,-1.1734,-1.1461,-1.1348,-1.1396,-1.1525,-1.1599,-1.1619,-1.1619,-1.1619,0.0,0.0,0.0,-1.1789,-1.1667,-1.1769,-1.1993,-1.1993,-1.2006,-1.204,-1.2169,-1.2155,-1.2081,-1.221,-1.2257,-1.2277,-1.242,-1.2467,-1.2474,-1.2494,-1.2501,-1.2501,-1.2501,-1.2501,-1.2501,-1.2501,-1.2501,-1.2501,-1.2501,-1.2501,-1.2501,-1.2501,-1.2501,-1.2542,-1.2671,-1.2698,-1.2745,-1.2901,-1.2929,-1.2935,-1.2956,-1.2963,-1.3003,-1.3125,-1.3159,-1.322,-1.3349,-1.339,-1.3403,-1.3403,-1.3403,-1.3403,-1.3403,-1.3403,-1.3403,-1.3403,-1.3403,-1.3403,-1.3403,-1.3403,-1.3403,-1.3403,-1.3403,-1.3403,-1.3403,-1.3728,-1.4863,-0.8126,-0.8255,-0.8557,-0.9093,-1.004,-1.1124,-1.2287,-1.3529,-1.4607,-1.5469,-1.6108,-1.674,-1.7502,0.0,-1.3568,-1.2107,0.0,0.0,0.0,0.0,0.0,0.0,0.0,0.0,0.0,0.0,0.0,0.0,0.0,0.0,0.0,0.0,0.0,0.0,0.0,0.0,-1.1511,-1.1511,-1.1511,-1.1518,-1.1586,-1.1619,-1.1619,-1.1701,-1.1735,0.0,0.0,-1.1898,-1.1952,-1.1884,-1.1938,-1.206,-1.206,-1.2115,-1.2203,-1.2352,-1.2359,-1.2311,-1.2379,-1.2406,-1.2413,-1.2481,-1.2501,-1.2501,-1.2501,-1.2562,-1.261,-1.2522,-1.2501,-1.2501,-1.2501,-1.2501,-1.2501,-1.2501,-1.2562,-1.2623,-1.2623,-1.2691,-1.2773,-1.284,-1.2854,-1.2901,-1.3051,-1.3078,-1.3105,-1.3186,-1.32,-1.322,-1.3288,-1.3295,-1.3322,-1.3397,-1.3403,-1.3403,-1.3403,-1.3403,-1.3403,-1.3403,-1.3403,-1.3403,-1.3403,-1.3403,-1.3403,-1.3403,-1.3403,-1.3403,-1.3403,-1.3403,-1.3403,-1.3403,-1.3403,-1.3887,-0.8085,-0.818,-0.8282,-0.8309,-0.9294,-1.02,-1.0601,-1.2135,-1.381,-1.485,-1.5762,-1.6717,-1.7456,-1.5055,0.0,0.0,0.0,0.0,0.0,0.0,0.0,0.0,0.0,0.0,0.0,0.0,0.0,0.0,0.0,0.0,0.0,0.0,0.0,0.0,0.0,0.0,-1.1619,-1.1619,-1.1619,-1.1619,-1.1619,-1.164,-1.1674,-1.1782,-1.185,-1.1891,-1.2013,-1.2081,-1.2115,-1.2074,-1.2101,-1.2162,-1.2128,-1.221,-1.2352,-1.2461,-1.2501,-1.2501,-1.2501,-1.2501,-1.2501,-1.2501,-1.2501,-1.2508,-1.2542,-1.2637,-1.2712,-1.263,-1.261,-1.2603,-1.2562,-1.2583,-1.261,-1.261,-1.2698,-1.2786,-1.2786,-1.2874,-1.2969,-1.3003,-1.301,-1.3057,-1.32,-1.3227,-1.3268,-1.3383,-1.3403,-1.3403,-1.3403,-1.3403,-1.3403,-1.3403,-1.3403,-1.3403,-1.3403,-1.3403,-1.3403,-1.3403,-1.3403,-1.3403,-1.3403,-1.3403,-1.3403,-1.3403,-1.3403,-1.3403,-1.3403,-1.3403,-1.3403,-1.3403,-1.3403,-1.3403,-0.8214,-0.8262,-0.8303,-0.8431,-0.8488,-0.8888,-1.0339,-1.0678,-1.1576,-1.454,0.0,0.0,0.0,-1.4331,0.0,0.0,0.0,0.0,0.0,0.0,0.0,0.0,0.0,0.0,0.0,0.0,0.0,0.0,0.0,0.0,0.0,0.0,0.0,0.0,0.0,0.0,-1.1619,-1.1619,-1.1619,-1.1619,-1.1619,-1.1687,-1.1816,-1.1823,-1.1911,-1.2047,-1.2054,-1.2142,-1.2264,-1.2121,-1.2223,-1.2461,-1.2325,-1.2359,-1.2488,-1.2501,-1.2501,-1.2501,-1.2501,-1.2501,-1.2501,-1.2501,-1.2501,-1.2528,-1.2671,-1.2718,-1.2759,-1.2888,-1.2929,-1.2895,-1.2752,-1.282,-1.2929,-1.2929,-1.2935,-1.2942,-1.2942,-1.2956,-1.3003,-1.3132,-1.3159,-1.3207,-1.3356,-1.3383,-1.339,-1.3397,-1.3403,-1.3403,-1.3403,-1.3403,-1.3403,-1.3403,-1.3403,-1.3403,-1.3403,-1.3403,-1.3403,-1.3403,-1.3403,-1.3403,-1.3403,-1.3403,-1.3403,-1.3403,-1.3403,-1.3403,-1.3403,-1.3403,-1.3403,-1.3403,-1.3403,-1.3403,-0.8113,-0.8262,-0.8418,-0.8465,-0.8513,-0.8701,-0.945,-1.028,-1.1709,-1.4249,-1.4516,0.0,0.0,0.0,0.0,0.0,0.0,0.0,0.0,0.0,0.0,0.0,0.0,0.0,0.0,0.0,0.0,0.0,0.0,0.0,0.0,0.0,0.0,0.0,0.0,0.0,0.0,-1.1708,-1.1748,-1.1748,-1.1748,-1.1782,-1.1837,-1.2026,-1.2149,-1.221,-1.2298,-1.2366,-1.242,-1.2359,-1.24,-1.2494,-1.244,-1.2454,-1.2501,-1.2501,-1.2501,-1.2501,-1.2501,-1.2501,-1.2501,-1.2501,-1.2569,-1.2657,-1.2712,-1.2861,-1.2996,-1.2969,-1.3091,-1.318,-1.2935,-1.2915,-1.2963,-1.2963,-1.303,-1.3091,-1.3091,-1.3166,-1.3247,-1.3302,-1.3315,-1.3336,-1.339,-1.3403,-1.3403,-1.3403,-1.3403,-1.3403,-1.3403,-1.3403,-1.3403,-1.3403,-1.3403,-1.3403,-1.3403,-1.3403,-1.3403,-1.3403,-1.3403,-1.3403,-1.3403,-1.3403,-1.3403,-1.3403,-1.3403,-1.3403,-1.3403,-1.3403,-1.3403,-1.3403,-1.3403,-1.3403,-0.8113,-0.8262,-0.8438,-0.8533,-0.8635,-0.8777,-0.9022,-0.989,-1.1272,-1.3334,-1.3432,0.0,0.0,0.0,0.0,0.0,0.0,0.0,0.0,0.0,0.0,0.0,0.0,0.0,0.0,0.0,0.0,0.0,0.0,0.0,0.0,0.0,0.0,0.0,0.0,0.0,0.0,-1.1782,-1.1857,-1.1904,-1.1952,-1.1979,-1.1986,-1.2196,-1.2318,-1.2366,-1.2461,-1.2501,-1.2501,-1.2501,-1.2501,-1.2501,-1.2501,-1.2501,-1.2501,-1.2501,-1.2501,-1.2501,-1.2501,-1.2535,-1.2576,-1.2576,-1.2678,-1.2813,-1.2854,-1.301,-1.3159,-1.3112,-1.3247,-1.3356,-1.3152,-1.3098,-1.3098,-1.3098,-1.3173,-1.3247,-1.3247,-1.3329,-1.3403,-1.3403,-1.3403,-1.3403,-1.3403,-1.3403,-1.3403,-1.3403,-1.3403,-1.3403,-1.3403,-1.3403,-1.3403,-1.3403,-1.3403,-1.3403,-1.3403,-1.3403,-1.3403,-1.3403,-1.3403,-1.3403,-1.3403,-1.3403,-1.3403,-1.3403,-1.3403,-1.3403,-1.3403,-1.3403,-1.3403,-1.3403,-1.3403,-1.3403,-0.8269,-0.8275,-0.8343,-0.8635,-0.8716,-0.8838,-0.9279,-0.9266,-0.9738,-1.1741,-1.2217,-1.2217,-1.2217,0.0,0.0,0.0,0.0,0.0,0.0,0.0,0.0,0.0,0.0,0.0,0.0,0.0,0.0,0.0,0.0,0.0,0.0,0.0,0.0,0.0,0.0,0.0,0.0,-1.1837,-1.1911,-1.2067,-1.2223,-1.2291,-1.2291,-1.2291,-1.2372,-1.2501,-1.2501,-1.2501,-1.2501,-1.2501,-1.2501,-1.2501,-1.2501,-1.2501,-1.2501,-1.2501,-1.2501,-1.2501,-1.2501,-1.2603,-1.2732,-1.2732,-1.2834,-1.299,-1.3132,-1.3173,-1.3207,-1.3356,-1.3403,-1.3403,-1.3403,-1.3403,-1.3403,-1.3403,-1.3403,-1.3403,-1.3403,-1.3403,-1.3403,-1.3403,-1.3403,-1.3403,-1.3403,-1.3403,-1.3403,-1.3403,-1.3403,-1.3403,-1.3403,-1.3403,-1.3403,-1.3403,-1.3403,-1.3403,-1.3403,-1.3403,-1.3403,-1.3403,-1.3403,-1.3403,-1.3403,-1.3403,-1.3403,-1.3403,-1.3403,-1.3403,-1.3403,-1.3403,-1.3403,-1.3403,-1.3403,-1.3403,-0.8348,-0.8418,-0.8406,-0.8272,0.0,0.0,0.0,-0.9503,0.0,0.0,-1.2217,-1.2217,0.0,0.0,0.0,0.0,0.0,0.0,0.0,0.0,0.0,0.0,0.0,0.0,0.0,0.0,0.0,0.0,0.0,0.0,0.0,0.0,0.0,0.0,0.0,0.0,0.0,0.0,-1.2176,-1.2223,-1.2372,-1.2386,-1.2291,-1.2393,-1.2461,-1.2501,-1.2501,-1.2501,-1.2501,-1.2501,-1.2501,-1.2501,-1.2501,-1.2501,-1.2501,-1.2501,-1.2569,-1.2664,-1.2664,-1.2766,-1.2895,-1.2895,-1.299,-1.3119,-1.3159,-1.3247,-1.3342,-1.339,-1.3403,-1.3403,-1.3403,-1.3403,-1.3403,-1.3403,-1.3403,-1.3403,-1.3403,-1.3403,-1.3403,-1.3403,-1.3403,-1.3403,-1.3403,-1.3403,-1.3403,-1.3403,-1.3403,-1.3403,-1.3403,-1.3403,-1.3403,-1.3403,-1.3403,-1.3403,-1.3403,-1.3403,-1.3403,-1.3403,-1.3403,-1.3403,-1.3403,-1.3403,-1.3403,-1.3403,-1.3403,-1.3403,-1.3403,-1.3403,-1.3403,-1.3403,-1.3403,-1.3403,-0.828,-0.8441,-0.8504,-0.8581,-0.9056,-0.9432,-0.9546,0.0,0.0,0.0,0.0,0.0,0.0,0.0,0.0,0.0,0.0,0.0,0.0,0.0,0.0,0.0,0.0,0.0,0.0,0.0,0.0,0.0,0.0,0.0,0.0,0.0,0.0,0.0,0.0,0.0,0.0,0.0,0.0,-1.2372,-1.2461,-1.2461,-1.2379,-1.2461,-1.2501,-1.2501,-1.2501,-1.2501,-1.2501,-1.2501,-1.2501,-1.2501,-1.2501,-1.2535,-1.2589,-1.2589,-1.2691,-1.282,-1.282,-1.2922,-1.3044,-1.3044,-1.3146,-1.3261,-1.3261,-1.3329,-1.3403,-1.3403,-1.3403,-1.3403,-1.3403,-1.3403,-1.3403,-1.3403,-1.3403,-1.3403,-1.3403,-1.3403,-1.3403,-1.3403,-1.3403,-1.3403,-1.3403,-1.3403,-1.3403,-1.3403,-1.3403,-1.3403,-1.3403,-1.3403,-1.3403,-1.3403,-1.3403,-1.3403,-1.3403,-1.3403,-1.3403,-1.3403,-1.3403,-1.3403,-1.3403,-1.3403,-1.3403,-1.3403,-1.3403,-1.3403,-1.3403,-1.3403,-1.3403,-1.3403,-1.3403,-1.3403,-0.8041,-0.8367,-0.8732,-0.9248,-0.9261,0.0,-0.9633,-0.9822,-0.9822,0.0,0.0,0.0,0.0,0.0,0.0,0.0,0.0,0.0,0.0,0.0,0.0,0.0,0.0,0.0,0.0,0.0,0.0,0.0,0.0,0.0,0.0,0.0,0.0,0.0,0.0,0.0,0.0,0.0,0.0,0.0,-1.2501,-1.2501,-1.2501,-1.2501,-1.2501,-1.2501,-1.2501,-1.2501,-1.2501,-1.2501,-1.2508,-1.2522,-1.2522,-1.2617,-1.2752,-1.2752,-1.2847,-1.2983,-1.2983,-1.3071,-1.3193,-1.3193,-1.3288,-1.3403,-1.3403,-1.3403,-1.3403,-1.3403,-1.3403,-1.3403,-1.3403,-1.3403,-1.3403,-1.3403,-1.3403,-1.3403,-1.3403,-1.3403,-1.3403,-1.3403,-1.3403,-1.3403,-1.3403,-1.3403,-1.3403,-1.3403,-1.3403,-1.3403,-1.3403,-1.3403,-1.3403,-1.3403,-1.3403,-1.3403,-1.3403,-1.3403,-1.3403,-1.3403,-1.3403,-1.3403,-1.3403,-1.3403,-1.3403,-1.3403,-1.3403,-1.3403,-1.3403,-1.3403,-1.3403,-1.3403,-1.3403,-1.3403,-0.8707,-0.9154,0.0,-0.9648,-0.9703,-0.962,-0.9808,-0.9822,0.0,0.0,0.0,0.0,0.0,0.0,0.0,0.0,0.0,0.0,0.0,0.0,0.0,0.0,0.0,0.0,0.0,0.0,0.0,0.0,0.0,0.0,0.0,0.0,0.0,0.0,0.0,0.0,-1.2454,-1.2454,-1.2474,0.0,-1.2501,-1.2501,-1.2501,-1.2501,-1.2501,-1.2501,-1.2501,-1.2501,-1.2501,-1.2501,-1.2569,-1.2678,-1.2678,-1.2773,-1.2908,-1.2908,-1.3003,-1.3125,-1.3125,-1.3227,-1.3349,-1.3349,-1.3376,-1.3403,-1.3403,-1.3403,-1.3403,-1.3403,-1.3403,-1.3403,-1.3403,-1.3403,-1.3403,-1.3403,-1.3403,-1.3403,-1.3403,-1.3403,-1.3403,-1.3403,-1.3403,-1.3403,-1.3403,-1.3403,-1.3403,-1.3403,-1.3403,-1.3403,-1.3403,-1.3403,-1.3403,-1.3403,-1.3403,-1.3403,-1.3403,-1.3403,-1.3403,-1.3403,-1.3403,-1.3403,-1.3403,-1.3403,-1.3403,-1.3403,-1.3403,-1.3403,-1.3403,-1.3403,-1.3403,-1.3403,-1.3403,-1.3403,-0.9194,-0.9567,0.0,-0.9787,0.0,-0.9822,-0.9822,-0.9822,0.0,0.0,0.0,0.0,0.0,0.0,0.0,0.0,0.0,0.0,0.0,0.0,0.0,0.0,0.0,0.0,0.0,0.0,0.0,0.0,0.0,0.0,0.0,0.0,0.0,0.0,0.0,0.0,-1.2501,-1.2501,-1.2501,-1.2501,-1.2501,-1.2501,-1.2501,-1.2501,-1.2501,-1.2501,-1.2501,-1.2542,-1.261,-1.261,-1.2705,-1.284,-1.284,-1.2935,-1.3064,-1.3064,-1.3152,-1.3281,-1.3281,-1.3336,-1.3403,-1.3403,-1.3403,-1.3403,-1.3403,-1.3403,-1.3403,-1.3403,-1.3403,-1.3403,-1.3403,-1.3403,-1.3403,-1.3403,-1.3403,-1.3403,-1.3403,-1.3403,-1.3403,-1.3403,-1.3403,-1.3403,-1.3403,-1.3403,-1.3403,-1.3403,-1.3403,-1.3403,-1.3403,-1.3403,-1.3403,-1.3403,-1.3403,-1.3403,-1.3403,-1.3403,-1.3403,-1.3403,-1.3403,-1.3403,-1.3403,-1.3403,-1.3403,-1.3403,-1.3403,-1.3403,-1.3403,-1.3403,-1.3403,-1.3403,-1.3403,-1.3403,-0.9335,-0.9838,-0.9802,-0.9754,-0.9842,0.0,-0.9856,-0.9842,0.0,0.0,0.0,0.0,0.0,0.0,0.0,0.0,0.0,0.0,0.0,0.0,0.0,0.0,0.0,0.0,0.0,0.0,0.0,0.0,0.0,0.0,0.0,0.0,0.0,0.0,0.0,-1.2501,-1.2501,-1.2501,-1.2501,-1.2501,-1.2501,-1.2515,-1.2542,-1.2542,-1.2542,-1.2542,-1.2542,-1.263,-1.2766,-1.2766,-1.2861,-1.2996,-1.2996,-1.3085,-1.3214,-1.3214,-1.3295,-1.3403,-1.3403,-1.3403,-1.3403,-1.3403,-1.3403,-1.3403,-1.3403,-1.3403,-1.3403,-1.3403,-1.3403,-1.3403,-1.3403,-1.3403,-1.3403,-1.3403,-1.3403,-1.3403,-1.3403,-1.3403,-1.3403,-1.3403,-1.3403,-1.3403,-1.3403,-1.3403,-1.3403,-1.3403,-1.3403,-1.3403,-1.3403,-1.3403,-1.3403,-1.3403,-1.3403,-1.3403,-1.3403,-1.3403,-1.3403,-1.3403,-1.3403,-1.3403,-1.3403,-1.3403,-1.3403,-1.3403,-1.3403,-1.3403,-1.3403,-1.3403,-1.3403,-1.3403,-1.3403,-1.3403,-0.8869,0.0,-0.9849,0.0,-0.9794,-0.9856,0.0,0.0,0.0,0.0,0.0,0.0,0.0,0.0,0.0,0.0,0.0,0.0,0.0,0.0,0.0,0.0,0.0,0.0,0.0,0.0,0.0,0.0,0.0,0.0,0.0,0.0,-1.2271,-1.2291,-1.2427,0.0,-1.2501,-1.2501,-1.2501,-1.2501,-1.2501,-1.2569,-1.2698,-1.2698,-1.2698,-1.2698,-1.2698,-1.2786,-1.2929,-1.2929,-1.3017,-1.3146,-1.3146,-1.3241,-1.337,-1.337,-1.3383,-1.3403,-1.3403,-1.3403,-1.3403,-1.3403,-1.3403,-1.3403,-1.3403,-1.3403,-1.3403,-1.3403,-1.3403,-1.3403,-1.3403,-1.3403,-1.3403,-1.3403,-1.3403,-1.3403,-1.3403,-1.3403,-1.3403,-1.3403,-1.3403,-1.3403,-1.3403,-1.3403,-1.3403,-1.3403,-1.3403,-1.3403,-1.3403,-1.3403,-1.3403,-1.3403,-1.3403,-1.3403,-1.3403,-1.3403,-1.3403,-1.3403,-1.3403,-1.3403,-1.3403,-1.3403,-1.3403,-1.3403,-1.3403,-1.3403,-1.3403,-1.3403,-1.3403,-1.3403,-1.3403,-1.3403,-0.3826,-0.7174,-0.9847,0.0,-1.0073,-1.0177,-0.9821,0.0,0.0,0.0,0.0,0.0,0.0,0.0,0.0,0.0,0.0,0.0,0.0,0.0,0.0,0.0,0.0,0.0,0.0,0.0,0.0,0.0,0.0,0.0,0.0,-1.2216,-1.2325,-1.2406,-1.2467,0.0,-1.2501,-1.2501,-1.2549,-1.263,-1.263,-1.2712,-1.2861,-1.2861,-1.2861,-1.2861,-1.2861,-1.2942,-1.3078,-1.3078,-1.3166,-1.3302,-1.3302,-1.3342,-1.3403,-1.3403,-1.3403,-1.3403,-1.3403,-1.3403,-1.3403,-1.3403,-1.3403,-1.3403,-1.3403,-1.3403,-1.3403,-1.3403,-1.3403,-1.3403,-1.3403,-1.3403,-1.3403,-1.3403,-1.3403,-1.3403,-1.3403,-1.3403,-1.3403,-1.3403,-1.3403,-1.3403,-1.3403,-1.3403,-1.3403,-1.3403,-1.3403,-1.3403,-1.3403,-1.3403,-1.3403,-1.3403,-1.3403,-1.3403,-1.3403,-1.3403,-1.3403,-1.3403,-1.3403,-1.3403,-1.3403,-1.3403,-1.3403,-1.3403,-1.3403,-1.3403,-1.3403,-1.3403,-1.3403,-1.3403,-1.3403,-1.3403,0.0,0.0,-0.7736,-0.9627,-1.0412,-1.0573,0.0,0.0,0.0,0.0,0.0,0.0,0.0,0.0,0.0,0.0,0.0,0.0,0.0,0.0,0.0,0.0,0.0,0.0,0.0,0.0,0.0,0.0,0.0,0.0,-1.2277,-1.2332,-1.2406,-1.2515,-1.2515,-1.2515,-1.2515,-1.2542,-1.2617,-1.2732,-1.2766,-1.2868,-1.3017,-1.3017,-1.3037,-1.3071,-1.303,-1.3098,-1.3227,-1.3227,-1.3295,-1.3403,-1.3403,-1.3403,-1.3403,-1.3403,-1.3403,-1.3403,-1.3403,-1.3403,-1.3403,-1.3403,-1.3403,-1.3403,-1.3403,-1.3403,-1.3403,-1.3403,-1.3403,-1.3403,-1.3403,-1.3403,-1.3403,-1.3403,-1.3403,-1.3403,-1.3403,-1.3403,-1.3403,-1.3403,-1.3403,-1.3403,-1.3403,-1.3403,-1.3403,-1.3403,-1.3403,-1.3403,-1.3403,-1.3403,-1.3403,-1.3403,-1.3403,-1.3403,-1.3403,-1.3403,-1.3403,-1.3403,-1.3403,-1.3403,-1.3403,-1.3403,-1.3403,-1.3403,-1.3437,-1.3437,-1.3403,-1.3403,-1.3403,-1.3403,-1.3403,-1.3403,0.0,-0.0221,0.0,-0.8903,-1.0717,0.0,0.0,0.0,0.0,0.0,0.0,0.0,0.0,0.0,0.0,0.0,0.0,0.0,0.0,0.0,0.0,0.0,0.0,0.0,0.0,0.0,0.0,0.0,0.0,0.0,-1.2291,-1.2447,-1.2542,-1.2549,-1.2549,-1.2549,-1.2549,-1.2664,-1.2725,-1.2732,-1.2881,-1.3024,-1.3159,-1.3159,-1.3241,-1.337,-1.3227,-1.3247,-1.339,-1.339,-1.3397,-1.3403,-1.3403,-1.3403,-1.3403,-1.3403,-1.3403,-1.3403,-1.3403,-1.3403,-1.3403,-1.3403,-1.3403,-1.3403,-1.3403,-1.3403,-1.3403,-1.3403,-1.3403,-1.3403,-1.3403,-1.3403,-1.3403,-1.3403,-1.3403,-1.3403,-1.3403,-1.3403,-1.3403,-1.3403,-1.3403,-1.3403,-1.3403,-1.3403,-1.3403,-1.3403,-1.3403,-1.3403,-1.3403,-1.3403,-1.3403,-1.3403,-1.3403,-1.3403,-1.3403,-1.3403,-1.3403,-1.3403,-1.3403,-1.3403,-1.3403,-1.3403,-1.3403,-1.3403,-1.3546,-1.3546,-1.3403,-1.3403,-1.3403,-1.3403,-1.3403,-1.3403,0.0,0.0,0.0,-0.8456,-1.0411,-1.0608,0.0,0.0,0.0,0.0,0.0,0.0,0.0,0.0,0.0,0.0,0.0,0.0,0.0,0.0,0.0,0.0,0.0,0.0,0.0,0.0,0.0,0.0,0.0,0.0,-1.2454,-1.2515,-1.1286,-0.8608,-0.8453,-0.9901,-1.2698,-1.2745,-1.2847,-1.3017,-1.3071,-1.3173,-1.3315,-1.3315,-1.3349,-1.3397,-1.3342,-1.3349,-1.3403,-1.3403,-1.3403,-1.3403,-1.3403,-1.3403,-1.3403,-1.3403,-1.3403,-1.3403,-1.3403,-1.3403,-1.3403,-1.3403,-1.3403,-1.3403,-1.3403,-1.3403,-1.3403,-1.3403,-1.3403,-1.3403,-1.3403,-1.3403,-1.3403,-1.3403,-1.3403,-1.3403,-1.3403,-1.3403,-1.3403,-1.3403,-1.3403,-1.3403,-1.3403,-1.3403,-1.3403,-1.3403,-1.3403,-1.3403,-1.3403,-1.3403,-1.3403,-1.3403,-1.3403,-1.3403,-1.3403,-1.3403,-1.3444,-1.3539,-1.3458,-1.3444,-1.3546,-1.3451,-1.3444,-1.3546,-1.36,-1.3553,-1.3403,-1.3593,-1.3634,-1.3546,-1.3546,-1.3546,0.0,0.0,0.0,0.0,0.0,0.0,0.0,0.0,0.0,0.0,0.0,0.0,0.0,0.0,0.0,0.0,0.0,0.0,0.0,0.0,0.0,0.0,0.0,0.0,0.0,0.0,0.0,0.0,0.0,0.0,-1.2562,-1.1137,-0.8448,-0.4376,-0.4236,-0.6315,-1.0527,-1.2071,-1.3017,-1.3186,-1.3227,-1.3302,-1.3403,-1.3403,-1.3403,-1.3403,-1.3403,-1.3403,-1.3403,-1.3403,-1.3403,-1.3403,-1.3403,-1.3403,-1.3403,-1.3403,-1.3403,-1.3403,-1.3403,-1.3403,-1.3403,-1.3403,-1.3403,-1.3403,-1.3403,-1.3403,-1.3403,-1.3403,-1.3403,-1.3403,-1.3403,-1.3403,-1.3403,-1.3403,-1.3403,-1.3403,-1.3403,-1.3403,-1.3403,-1.3403,-1.3403,-1.3403,-1.3403,-1.3403,-1.3403,-1.3403,-1.3403,-1.3403,-1.3403,-1.3403,-1.3403,-1.3403,-1.3403,-1.3424,-1.3471,-1.3431,-1.3485,-1.3688,-1.3559,-1.3526,-1.3627,-1.358,-1.3573,-1.3627,-1.3729,-1.3702,-1.3546,-1.3743,-1.379,-1.3702,-1.3702,-1.3702,0.0,0.0,0.0,0.0,0.0,0.0,0.0,0.0,0.0,0.0,0.0,0.0,0.0,0.0,0.0,0.0,0.0,0.0,0.0,0.0,0.0,0.0,0.0,0.0,0.0,0.0,0.0,0.0,0.0,-1.2414,-1.2447,-0.8462,-0.4222,-0.0157,0.0,-0.1911,-0.6055,-1.0443,-1.2893,-1.307,-1.3349,-1.3403,-1.3403,-1.3403,-1.3403,-1.3403,-1.3403,-1.3403,-1.3403,-1.3403,-1.3403,-1.3403,-1.3403,-1.3403,-1.3403,-1.3403,-1.3403,-1.3403,-1.3403,-1.3403,-1.3403,-1.3403,-1.3403,-1.3403,-1.3403,-1.3403,-1.3403,-1.3403,-1.3403,-1.3403,-1.3403,-1.3403,-1.3403,-1.3403,-1.3403,-1.3403,-1.3403,-1.3403,-1.3403,-1.3403,-1.3403,-1.3403,-1.3403,-1.3403,-1.3403,-1.3403,-1.3403,-1.3403,-1.3403,-1.3403,-1.3403,-1.3403,-1.3403,-1.3464,-1.3614,-1.3492,-1.3532,-1.3831,-1.3715,-1.3641,-1.3641,-1.377,-1.3777,-1.3648,-1.3926,-1.4,-1.3851,-1.3851,-1.3851,-1.3844,-1.3844,-1.3844,0.0,0.0,0.0,0.0,0.0,0.0,0.0,0.0,0.0,0.0,0.0,0.0,0.0,0.0,0.0,0.0,0.0,0.0,0.0,0.0,0.0,0.0,0.0,0.0,0.0,0.0,0.0,0.0,0.0,-0.9251,-1.2311,-0.5648,-0.126,-0.0,0.0,-0.0483,-0.1796,-0.2955,-0.6952,-1.3258,-1.3291,-1.3471,-1.3471,-1.3471,-1.3471,-1.3471,-1.3451,-1.3437,-1.3437,-1.341,-1.3403,-1.3403,-1.3403,-1.3403,-1.3403,-1.3403,-1.3403,-1.3403,-1.3403,-1.3403,-1.3403,-1.3403,-1.3403,-1.3403,-1.3403,-1.3403,-1.3403,-1.3403,-1.3403,-1.3403,-1.3403,-1.3403,-1.3403,-1.3403,-1.3403,-1.3403,-1.3403,-1.3403,-1.3403,-1.3403,-1.3403,-1.3403,-1.3403,-1.3403,-1.3403,-1.3403,-1.3403,-1.3403,-1.3403,-1.3403,-1.3403,-1.3403,-1.3403,-1.3464,-1.3614,-1.3593,-1.3695,-1.3987,-1.3865,-1.3831,-1.3946,-1.3878,-1.3871,-1.3946,-1.4027,-1.4102,-1.417,-1.417,-1.4116,-1.4007,-1.4007,-1.3946,0.0,0.0,0.0,0.0,0.0,0.0,0.0,0.0,0.0,0.0,0.0,0.0,0.0,0.0,0.0,0.0,0.0,0.0,0.0,0.0,0.0,0.0,0.0,0.0,0.0,0.0,0.0,0.0,-0.3597,-0.6264,-1.2161,-0.4576,0.0,0.0,0.0,0.0,0.0,0.0,-0.2665,-0.7893,-0.9751,-1.0597,-1.0597,-1.0597,-1.0597,-1.0597,-1.1248,-1.2253,-1.3451,-1.3417,-1.3403,-1.3403,-1.3403,-1.3403,-1.3403,-1.3403,-1.3403,-1.3403,-1.3403,-1.3403,-1.3403,-1.3403,-1.3403,-1.3403,-1.3403,-1.3403,-1.3403,-1.3417,-1.3431,-1.3444,-1.3444,-1.3444,-1.3437,-1.3424,-1.3424,-1.3417,-1.3403,-1.3403,-1.3403,-1.3403,-1.3403,-1.3403,-1.3403,-1.3403,-1.3403,-1.3403,-1.3403,-1.3403,-1.3403,-1.3403,-1.3424,-1.3492,-1.3498,-1.358,-1.3797,-1.3756,-1.3844,-1.415,-1.4021,-1.398,-1.4068,-1.4048,-1.4041,-1.4075,-1.4136,-1.4211,-1.4299,-1.4299,-1.4251,-1.4163,-1.4163,-1.4116,0.0,0.0,0.0,0.0,0.0,0.0,0.0,0.0,0.0,0.0,0.0,0.0,0.0,0.0,0.0,0.0,0.0,0.0,0.0,0.0,0.0,0.0,0.0,0.0,0.0,0.0,0.0,0.0,0.0,-0.3288,-1.0722,-0.3971,0.0,0.0,0.0,0.0,0.0,0.0,0.0,-0.0,-0.4023,-0.6035,-0.6035,-0.6035,-0.6035,-0.6035,-0.8036,-1.0565,-1.3458,-1.3424,-1.341,-1.3403,-1.3403,-1.3403,-1.3403,-1.3403,-1.3403,-1.3403,-1.3403,-1.3403,-1.3403,-1.341,-1.341,-1.3403,-1.3403,-1.3403,-1.3244,-1.2765,-1.2624,-1.265,-1.265,-1.265,-1.2637,-1.2612,-1.3111,-1.3444,-1.341,-1.3403,-1.3403,-1.3403,-1.3403,-1.3403,-1.3403,-1.3403,-1.3403,-1.3403,-1.3403,-1.3403,-1.3403,-1.3403,-1.3458,-1.3614,-1.3627,-1.3749,-1.4048,-1.3946,-1.3994,-1.4285,-1.417,-1.4095,-1.4095,-1.4231,-1.4238,-1.4102,-1.4231,-1.4299,-1.4299,-1.4299,-1.4299,-1.4299,-1.4299,-1.4299,0.0,0.0,0.0,0.0,0.0,0.0,0.0,0.0,0.0,0.0,0.0,0.0,0.0,0.0,0.0,0.0,0.0,0.0,0.0,0.0,0.0,0.0,0.0,0.0,0.0,0.0,0.0,0.0,0.0,-0.0785,-0.2356,-0.0953,0.0,0.0,0.0,0.0,0.0,0.0,0.0,-0.0,-0.0841,-0.1346,-0.1346,-0.1346,-0.1346,-0.1513,-0.6724,-1.0618,-1.3365,-1.3331,-1.3451,-1.3403,-1.3403,-1.3403,-1.3403,-1.3403,-1.3403,-1.3403,-1.3431,-1.3424,-1.341,-1.3464,-1.3444,-1.3403,-1.3431,-1.3444,-1.2593,-0.9049,-0.8048,-0.8052,-0.8052,-0.8052,-0.8048,-0.8044,-1.0742,-1.3451,-1.3444,-1.3417,-1.3403,-1.3403,-1.3403,-1.3403,-1.3403,-1.3403,-1.3403,-1.3403,-1.3403,-1.3403,-1.3403,-1.3403,-1.3458,-1.3614,-1.3627,-1.3749,-1.4048,-1.4041,-1.4102,-1.4285,-1.4272,-1.4258,-1.4258,-1.4285,-1.4285,-1.4258,-1.4285,-1.4299,-1.4299,-1.4299,-1.4299,-1.4299,-1.4299,-1.4299,0.0,0.0,0.0,0.0,0.0,0.0,0.0,0.0,0.0,0.0,0.0,0.0,0.0,0.0,0.0,0.0,0.0,0.0,0.0,0.0,0.0,0.0,0.0,0.0,0.0,0.0,0.0,0.0,0.0,0.0,0.0,0.0,0.0,0.0,0.0,0.0,0.0,0.0,0.0,0.0,0.0,0.0,0.0,0.0,0.0,-0.0168,-0.3194,-0.7913,-1.3211,-1.0948,-1.007,-1.0216,-1.2593,-1.3451,-1.3451,-1.3451,-1.3451,-1.3451,-1.3471,-1.1926,-1.0388,-1.2637,-1.1939,-1.0554,-1.2785,-1.3325,-1.2991,-1.0613,-0.6888,-0.3358,-0.3358,-0.3358,-0.3357,-0.3352,-0.5025,-0.7881,-1.2451,-1.3451,-1.3424,-1.3424,-1.341,-1.3403,-1.3403,-1.3403,-1.3403,-1.3403,-1.3403,-1.3403,-1.3403,-1.3464,-1.3573,-1.3722,-1.3804,-1.3939,-1.4163,-1.4183,-1.4217,-1.4292,-1.4299,-1.4299,-1.4299,-1.4299,-1.4299,-1.4299,-1.4299,-1.4299,-1.4299,-1.4299,-1.4299,-1.4299,-1.4299,-1.4299,0.0,0.0,0.0,0.0,0.0,0.0,0.0,0.0,0.0,0.0,0.0,0.0,0.0,0.0,0.0,0.0,0.0,0.0,0.0,0.0,0.0,0.0,0.0,0.0,0.0,0.0,0.0,0.0,0.0,0.0,0.0,0.0,0.0,0.0,0.0,0.0,0.0,0.0,0.0,0.0,0.0,0.0,0.0,0.0,0.0,0.0,0.0,-0.4034,-1.0645,-0.7901,-0.6714,-0.7048,-1.077,-1.213,-1.213,-1.213,-1.213,-1.2303,-1.3164,-1.043,-0.7376,-1.0948,-0.9077,-0.6369,-1.1801,-1.3365,-1.3043,-1.1328,-0.5558,0.0,0.0,0.0,0.0,0.0,0.0,-0.2012,-0.9249,-1.1432,-1.2432,-1.3291,-1.3437,-1.341,-1.3403,-1.3403,-1.3403,-1.3403,-1.3403,-1.341,-1.341,-1.3546,-1.3695,-1.3838,-1.398,-1.4136,-1.4285,-1.4299,-1.4299,-1.4299,-1.4299,-1.4299,-1.4299,-1.4299,-1.4299,-1.4299,-1.4299,-1.4299,-1.4299,-1.4299,-1.4299,-1.4299,-1.4299,-1.4299,0.0,0.0,0.0,0.0,0.0,0.0,0.0,0.0,0.0,0.0,0.0,0.0,0.0,0.0,0.0,0.0,0.0,0.0,0.0,0.0,0.0,0.0,0.0,0.0,0.0,0.0,0.0,0.0,0.0,0.0,0.0,0.0,0.0,0.0,0.0,0.0,0.0,0.0,0.0,0.0,0.0,0.0,0.0,0.0,0.0,0.0,0.0,-0.0505,-0.1852,-0.5224,-0.6748,-0.6744,-0.7219,-0.7543,-0.7543,-0.7543,-0.7543,-0.8052,-1.1993,-1.0446,-0.6707,-0.7249,-0.4374,-0.2349,-1.0802,-1.3385,-1.1669,-0.3705,-0.0842,0.0,0.0,0.0,0.0,0.0,0.0,-0.0335,-0.1342,-0.4691,-0.8558,-1.2643,-1.3471,-1.3437,-1.3403,-1.3403,-1.3403,-1.3403,-1.3424,-1.3444,-1.3444,-1.358,-1.3729,-1.3878,-1.4,-1.4136,-1.4285,-1.4299,-1.4299,-1.4299,-1.4299,-1.4299,-1.4299,-1.4299,-1.4299,-1.4299,-1.4299,-1.4299,-1.4299,-1.4299,-1.4299,-1.4299,-1.4299,-1.4299,0.0,0.0,0.0,0.0,0.0,0.0,0.0,0.0,0.0,0.0,0.0,0.0,0.0,0.0,0.0,0.0,0.0,0.0,0.0,0.0,0.0,0.0,0.0,0.0,0.0,0.0,0.0,0.0,0.0,0.0,0.0,0.0,0.0,0.0,0.0,0.0,0.0,0.0,0.0,0.0,0.0,0.0,0.0,0.0,0.0,0.0,0.0,0.0,-0.0168,-0.2022,-0.2865,-0.2864,-0.2858,-0.2855,-0.2855,-0.2855,-0.2855,-0.3024,-0.5048,-0.4374,-0.2856,-0.2862,-0.1515,-0.0673,-0.4544,-0.5558,-0.4883,-0.101,0.0,0.0,0.0,0.0,0.0,0.0,0.0,0.0,0.0,-0.1525,-0.492,-1.2027,-1.1322,-1.0264,-1.303,-1.3459,-1.3425,-1.3363,-1.3389,-1.2526,-0.9918,-0.9664,-1.0793,-1.3667,-1.415,-1.4251,-1.4299,-1.4299,-1.4299,-1.4299,-1.4299,-1.4299,-1.4299,-1.4299,-1.4299,-1.4299,-1.4299,-1.4299,-1.4299,-1.4299,-1.4299,-1.4299,-1.4299,-1.4299,0.0,0.0,0.0,0.0,0.0,0.0,0.0,0.0,0.0,0.0,0.0,0.0,0.0,0.0,0.0,0.0,0.0,0.0,0.0,0.0,0.0,0.0,0.0,0.0,0.0,0.0,0.0,0.0,0.0,0.0,0.0,0.0,0.0,0.0,0.0,0.0,0.0,0.0,0.0,0.0,0.0,0.0,0.0,0.0,0.0,0.0,0.0,0.0,0.0,0.0,0.0,0.0,0.0,0.0,0.0,0.0,0.0,0.0,0.0,0.0,0.0,0.0,0.0,0.0,0.0,0.0,0.0,0.0,0.0,0.0,0.0,0.0,0.0,0.0,0.0,0.0,0.0,0.0,-0.1891,-0.8515,-0.8165,-0.8165,-1.2612,-1.23,-1.1527,-1.1641,-1.2551,-1.22,-0.903,-0.647,-0.6153,-0.9854,-1.2638,-1.434,-1.4312,-1.4306,-1.4299,-1.4299,-1.4299,-1.4299,-1.4299,-1.4299,-1.4299,-1.4299,-1.4299,-1.4299,-1.4299,-1.4299,-1.4299,-1.4299,-1.4299,-1.4299,0.0,0.0,0.0,0.0,0.0,0.0,0.0,0.0,0.0,0.0,0.0,0.0,0.0,0.0,0.0,0.0,0.0,0.0,0.0,0.0,0.0,0.0,0.0,0.0,0.0,0.0,0.0,0.0,0.0,0.0,0.0,0.0,0.0,0.0,0.0,0.0,0.0,0.0,0.0,0.0,0.0,0.0,0.0,0.0,0.0,0.0,0.0,0.0,0.0,0.0,0.0,0.0,0.0,0.0,0.0,0.0,0.0,0.0,0.0,0.0,0.0,0.0,0.0,0.0,0.0,0.0,0.0,0.0,0.0,0.0,0.0,0.0,0.0,0.0,0.0,0.0,0.0,0.0,-0.0,-0.0348,-0.382,-0.8201,-1.2614,-0.9816,-0.6925,-0.6928,-1.0615,-1.3288,-1.3281,-0.5605,-0.0352,-0.0352,-0.8703,-1.4353,-1.4346,-1.4319,-1.4299,-1.4299,-1.4299,-1.4299,-1.4299,-1.4299,-1.4299,-1.4299,-1.4299,-1.4299,-1.4299,-1.4299,-1.4299,-1.4299,-1.4299,-1.4299,0.0,0.0,0.0,0.0,0.0,0.0,0.0,0.0,0.0,0.0,0.0,0.0,0.0,0.0,0.0,0.0,0.0,0.0,0.0,0.0,0.0,0.0,0.0,0.0,0.0,0.0,0.0,0.0,0.0,0.0,0.0,0.0,0.0,0.0,0.0,0.0,0.0,0.0,0.0,0.0,0.0,0.0,0.0,0.0,0.0,0.0,0.0,0.0,0.0,0.0,0.0,0.0,0.0,0.0,0.0,0.0,0.0,0.0,0.0,0.0,0.0,0.0,0.0,0.0,0.0,0.0,0.0,0.0,0.0,0.0,0.0,0.0,0.0,0.0,0.0,0.0,0.0,0.0,0.0,0.0,-0.1243,-0.2666,-0.4287,-0.8207,-0.9078,-0.3193,-0.3549,-0.4617,-0.4617,-0.1958,-0.1248,-0.4275,-0.7673,-1.0916,-1.3991,-1.4319,-1.4299,-1.4299,-1.4299,-1.4299,-1.4299,-1.4299,-1.4299,-1.4299,-1.4299,-1.4299,-1.4299,-1.4299,-1.4299,-1.4299,-1.4299,-1.4299,0.0,0.0,0.0,0.0,0.0,0.0,0.0,0.0,0.0,0.0,0.0,0.0,0.0,0.0,0.0,0.0,0.0,0.0,0.0,0.0,0.0,0.0,0.0,0.0,0.0,0.0,0.0,0.0,0.0,0.0,0.0,0.0,0.0,0.0,0.0,0.0,0.0,0.0,0.0,0.0,0.0,0.0,0.0,0.0,0.0,0.0,0.0,0.0,0.0,0.0,0.0,0.0,0.0,0.0,0.0,0.0,0.0,0.0,0.0,0.0,0.0,0.0,0.0,0.0,0.0,0.0,0.0,0.0,0.0,0.0,0.0,0.0,0.0,0.0,0.0,0.0,0.0,0.0,0.0,0.0,0.0,0.0,0.0,-0.4852,-0.6659,-0.0898,0.0,0.0,0.0,-0.3053,-0.629,-0.9344,-0.806,-0.9117,-1.3971,-1.4312,-1.4299,-1.4299,-1.4299,-1.4306,-1.4319,-1.4319,-1.4292,-1.4238,-1.4292,-1.4285,-1.4217,-1.4272,-1.4299,-1.4299,-1.4299,-1.4299]}]]